[[{"header":{"parameterUnit":"m.s-1","parameterCategory":1,"la1":30.6,"la2":29.2853,"lo1":-89.7004,"lo2":-87.6739,"dy":0.0162,"dx":0.0183,"nx":112,"ny":82,"refTime":"2024-08-20T06:00:00:Z","depth":0,"parameterNumber":2,"parameterNumberName":"U-component_of_WINDS"},"data":[0.0,0.0,0.0,0.0,0.0,0.0,0.0,0.0,0.0,0.0,0.0,0.0,0.0,0.0,0.0,0.0,0.0,0.0,0.0,0.0,0.0,0.0,0.0,0.0,0.0,0.0,0.0,0.0,0.0,0.0,0.0,0.0,0.0,0.0,0.0,0.0,0.0,0.0,0.0,0.0,0.0,0.0,0.0,0.0,0.0,0.0,0.0,0.0,0.0,0.0,0.0,0.0,0.0,0.0,0.0,0.0,0.0,0.0,0.0,0.0,0.0,0.0,0.0,0.0,0.0,0.0,0.0,0.0,0.0,0.0,0.0,0.0,0.0,0.0,0.0,0.0,0.0,0.0,0.0,0.0,0.0,0.0,0.0,0.0,0.0,0.0,0.0,0.0,0.0,0.0,-0.5585,-0.6252,-0.7446,-0.8292,-0.852,-0.8174,-0.7171,-0.5463,0.0,0.0,0.0,0.0,0.0,0.0,0.0,0.0,0.0,0.0,0.0,0.0,0.0,0.0,0.0,0.0,0.0,0.0,0.0,0.0,0.0,0.0,0.0,0.0,0.0,0.0,0.0,0.0,0.0,0.0,0.0,0.0,0.0,0.0,0.0,0.0,0.0,0.0,0.0,0.0,0.0,0.0,0.0,0.0,0.0,0.0,0.0,0.0,0.0,0.0,0.0,0.0,0.0,0.0,0.0,0.0,0.0,0.0,0.0,0.0,0.0,0.0,0.0,0.0,0.0,0.0,0.0,0.0,0.0,0.0,0.0,0.0,0.0,0.0,0.0,0.0,0.0,0.0,0.0,0.0,0.0,0.0,0.0,0.0,0.0,0.0,0.0,0.0,0.0,0.0,0.0,0.0,0.0,0.0,0.0,0.0,0.0,0.0,0.0,0.0,0.0,0.0,0.0,0.0,-0.5498,-0.6806,-0.7719,-0.8201,-0.8245,-0.7825,-0.7121,-0.6043,0.0,0.0,0.0,0.0,0.0,0.0,0.0,0.0,0.0,0.0,0.0,0.0,0.0,0.0,0.0,0.0,0.0,0.0,0.0,0.0,0.0,0.0,0.0,0.0,0.0,0.0,0.0,0.0,0.0,0.0,0.0,0.0,0.0,0.0,0.0,0.0,0.0,0.0,0.0,0.0,0.0,0.0,0.0,0.0,0.0,0.0,0.0,0.0,0.0,0.0,0.0,0.0,0.0,0.0,0.0,0.0,0.0,0.0,0.0,0.0,0.0,0.0,0.0,0.0,0.0,0.0,0.0,0.0,0.0,0.0,0.0,0.0,0.0,0.0,0.0,0.0,0.0,0.0,0.0,0.0,0.0,0.0,0.0,0.0,0.0,0.0,0.0,0.0,0.0,0.0,0.0,0.0,0.0,0.0,0.0,0.0,0.0,0.0,0.0,0.0,0.0,0.0,0.0,-0.5106,-0.5869,-0.7092,-0.75,-0.7761,-0.7887,-0.7354,-0.6596,-0.556,-0.4405,0.0,0.0,0.0,0.0,0.0,0.0,0.0,0.0,0.0,0.0,0.0,0.0,0.0,0.0,0.0,0.0,0.0,0.0,0.0,0.0,0.0,0.0,0.0,0.0,0.0,0.0,0.0,0.0,0.0,0.0,0.0,0.0,0.0,0.0,0.0,0.0,0.0,0.0,0.0,0.0,0.0,0.0,0.0,0.0,0.0,0.0,0.0,0.0,0.0,0.0,0.0,0.0,0.0,0.0,0.0,0.0,0.0,0.0,0.0,0.0,0.0,0.0,0.0,0.0,0.0,0.0,0.0,0.0,0.0,0.0,0.0,0.0,0.0,0.0,0.0,0.0,0.0,0.0,0.0,0.0,0.0,0.0,0.0,0.0,0.0,0.0,0.0,0.0,0.0,0.0,0.0,0.0,0.0,0.0,0.0,0.0,0.0,0.0,0.0,0.0,0.0,0.0,-0.5686,-0.6191,-0.7052,-0.7211,-0.7278,-0.7407,-0.6848,-0.6115,-0.5185,-0.3934,0.0,0.0,0.0,0.0,0.0,0.0,0.0,0.0,0.0,0.0,0.0,0.0,0.0,0.0,0.0,0.0,0.0,0.0,0.0,0.0,0.0,0.0,0.0,0.0,0.0,0.0,0.0,0.0,0.0,0.0,0.0,0.0,0.0,0.0,0.0,0.0,0.0,0.0,0.0,0.0,0.0,0.0,0.0,0.0,0.0,0.0,0.0,0.0,0.0,0.0,0.0,0.0,0.0,0.0,0.0,0.0,0.0,0.0,0.0,0.0,0.0,0.0,0.0,0.0,0.0,0.0,0.0,0.0,0.0,0.0,0.0,0.0,0.0,0.0,0.0,0.0,0.0,0.0,0.0,0.0,0.0,0.0,0.0,0.0,0.0,0.0,0.0,0.0,0.0,0.0,0.0,0.0,0.0,0.0,0.0,0.0,0.0,0.0,0.0,0.0,0.0,0.0,-0.5639,-0.6193,-0.6706,-0.6964,-0.7028,-0.6885,-0.6471,-0.6026,-0.551,-0.4107,0.0,0.0,0.0,0.0,0.0,0.0,0.0,0.0,0.0,0.0,0.0,0.0,0.0,0.0,0.0,0.0,0.0,0.0,0.0,0.0,0.0,0.0,0.0,0.0,0.0,0.0,0.0,0.0,0.0,0.0,0.0,0.0,0.0,0.0,0.0,0.0,0.0,0.0,0.0,0.0,0.0,0.0,0.0,0.0,0.0,0.0,0.0,0.0,0.0,0.0,0.0,0.0,0.0,0.0,0.0,0.0,0.0,0.0,0.0,0.0,0.0,0.0,0.0,0.0,0.0,0.0,0.0,0.0,0.0,0.0,0.0,0.0,0.0,0.0,0.0,0.0,0.0,0.0,0.0,0.0,0.0,0.0,0.0,0.0,0.0,0.0,0.0,0.0,0.0,0.0,0.0,0.0,0.0,0.0,0.0,0.0,0.0,0.0,0.0,0.0,0.0,0.0,-0.5505,-0.6061,0.0,-0.6678,-0.6659,-0.6513,-0.6096,-0.5584,-0.5023,0.0,0.0,0.0,0.0,0.0,0.0,0.0,0.0,0.0,0.0,0.0,0.0,0.0,0.0,0.0,0.0,0.0,0.0,0.0,0.0,0.0,0.0,0.0,0.0,0.0,0.0,0.0,0.0,0.0,0.0,0.0,0.0,0.0,0.0,0.0,0.0,0.0,0.0,0.0,0.0,0.0,0.0,0.0,0.0,0.0,0.0,0.0,0.0,0.0,0.0,0.0,0.0,0.0,0.0,0.0,0.0,0.0,0.0,0.0,0.0,0.0,0.0,0.0,0.0,0.0,0.0,0.0,0.0,0.0,0.0,0.0,0.0,0.0,0.0,0.0,0.0,0.0,0.0,0.0,0.0,0.0,0.0,0.0,0.0,0.0,0.0,0.0,0.0,0.0,0.0,0.0,0.0,0.0,0.0,0.0,0.0,0.0,0.0,0.0,0.0,0.0,0.0,-0.4779,-0.5421,-0.5956,0.0,-0.6446,-0.6364,-0.617,-0.5701,-0.5218,-0.468,0.0,0.0,0.0,0.0,0.0,0.0,0.0,0.0,0.0,0.0,0.0,0.0,0.0,0.0,0.0,0.0,0.0,0.0,0.0,0.0,0.0,0.0,0.0,0.0,0.0,0.0,0.0,0.0,0.0,0.0,0.0,0.0,0.0,0.0,0.0,0.0,0.0,0.0,0.0,0.0,0.0,0.0,0.0,0.0,0.0,0.0,0.0,0.0,0.0,0.0,0.0,0.0,0.0,0.0,0.0,0.0,0.0,0.0,0.0,0.0,0.0,0.0,0.0,0.0,0.0,0.0,0.0,0.0,0.0,0.0,0.0,0.0,0.0,0.0,0.0,0.0,0.0,0.0,0.0,0.0,0.0,0.0,0.0,0.0,0.0,0.0,0.0,0.0,0.0,0.0,0.0,0.0,0.0,0.0,0.0,0.0,0.0,0.0,0.0,0.0,0.0,0.0,-0.4792,-0.5411,-0.5918,-0.6265,-0.63,-0.6173,-0.5827,-0.5356,-0.4942,0.0,0.0,0.0,0.0,0.0,0.0,0.0,0.0,0.0,0.0,0.0,0.0,0.0,0.0,0.0,0.0,0.0,0.0,0.0,0.0,0.0,0.0,0.0,0.0,0.0,0.0,0.0,0.0,0.0,0.0,0.0,0.0,0.0,0.0,0.0,0.0,0.0,0.0,0.0,0.0,0.0,0.0,0.0,0.0,0.0,0.0,0.0,0.0,0.0,0.0,0.0,0.0,0.0,0.0,0.0,0.0,0.0,0.0,0.0,0.0,0.0,0.0,0.0,0.0,0.0,0.0,0.0,0.0,0.0,0.0,0.0,0.0,0.0,0.0,0.0,0.0,0.0,0.0,0.0,0.0,0.0,0.0,0.0,0.0,0.0,0.0,0.0,0.0,0.0,0.0,0.0,0.0,0.0,0.0,0.0,0.0,0.0,0.0,0.0,0.0,0.0,0.0,0.0,-0.4593,-0.5095,-0.5552,-0.5989,-0.6022,-0.5977,-0.5827,-0.5491,-0.4994,-0.425,0.0,0.0,0.0,0.0,0.0,0.0,0.0,0.0,0.0,0.0,0.0,0.0,0.0,0.0,0.0,0.0,0.0,0.0,0.0,0.0,0.0,0.0,0.0,0.0,0.0,0.0,0.0,0.0,0.0,0.0,0.0,0.0,0.0,0.0,0.0,0.0,0.0,0.0,0.0,0.0,0.0,0.0,0.0,0.0,0.0,0.0,0.0,0.0,0.0,0.0,0.0,0.0,0.0,0.0,0.0,0.0,0.0,0.0,0.0,0.0,0.0,0.0,0.0,0.0,0.0,0.0,0.0,0.0,0.0,0.0,0.0,0.0,0.0,0.0,0.0,0.0,0.0,0.0,0.0,0.0,0.0,0.0,0.0,0.0,0.0,0.0,0.0,0.0,0.0,0.0,0.0,0.0,0.0,0.0,0.0,0.0,0.0,0.0,0.0,0.0,0.0,0.0,-0.4626,-0.5129,-0.5588,-0.6028,-0.606,-0.5965,-0.5765,-0.5512,-0.5058,-0.4329,0.0,0.0,0.0,0.0,0.0,0.0,0.0,0.0,0.0,0.0,0.0,0.0,0.0,0.0,0.0,0.0,0.0,0.0,0.0,0.0,0.0,0.0,0.0,0.0,0.0,0.0,0.0,0.0,0.0,0.0,0.0,0.0,0.0,0.0,0.0,0.0,0.0,0.0,0.0,0.0,0.0,0.0,0.0,0.0,0.0,0.0,0.0,0.0,0.0,0.0,0.0,0.0,0.0,0.0,0.0,0.0,0.0,0.0,0.0,0.0,0.0,0.0,0.0,0.0,0.0,0.0,0.0,0.0,0.0,0.0,0.0,0.0,0.0,0.0,0.0,0.0,0.0,0.0,0.0,0.0,0.0,0.0,0.0,0.0,0.0,0.0,0.0,0.0,0.0,0.0,0.0,0.0,0.0,0.0,0.0,0.0,0.0,0.0,0.0,0.0,0.0,0.0,-0.4857,-0.5446,-0.5918,-0.6304,-0.6261,-0.6078,-0.5735,-0.5464,-0.5095,-0.4651,0.0,0.0,0.0,0.0,0.0,0.0,0.0,0.0,0.0,0.0,0.0,0.0,0.0,0.0,0.0,0.0,0.0,0.0,0.0,0.0,0.0,0.0,0.0,0.0,0.0,0.0,0.0,0.0,0.0,0.0,0.0,0.0,0.0,0.0,0.0,0.0,0.0,0.0,0.0,0.0,0.0,0.0,0.0,0.0,0.0,0.0,0.0,0.0,0.0,0.0,0.0,0.0,0.0,0.0,0.0,0.0,0.0,0.0,0.0,0.0,-1.1148,0.0,0.0,0.0,0.0,0.0,0.0,0.0,0.0,0.0,0.0,0.0,0.0,0.0,0.0,0.0,0.0,0.0,0.0,0.0,0.0,0.0,0.0,0.0,0.0,0.0,0.0,0.0,0.0,0.0,0.0,0.0,0.0,0.0,0.0,0.0,0.0,0.0,0.0,0.0,0.0,0.0,-0.5315,-0.5578,-0.5915,-0.6493,-0.6064,-0.5733,-0.5697,-0.5464,-0.5137,-0.4696,-0.3969,0.0,0.0,0.0,0.0,0.0,0.0,0.0,0.0,0.0,0.0,0.0,0.0,0.0,0.0,0.0,0.0,0.0,0.0,0.0,0.0,0.0,0.0,0.0,0.0,0.0,0.0,0.0,0.0,0.0,0.0,0.0,0.0,0.0,0.0,0.0,0.0,0.0,0.0,0.0,0.0,0.0,0.0,0.0,0.0,0.0,0.0,0.0,0.0,0.0,0.0,0.0,0.0,0.0,0.0,0.0,0.0,0.0,0.0,0.0,0.0,-1.2,0.0,0.0,0.0,0.0,0.0,0.0,0.0,0.0,0.0,0.0,0.0,0.0,0.0,0.0,0.0,0.0,0.0,0.0,0.0,0.0,0.0,0.0,0.0,0.0,0.0,0.0,0.0,0.0,0.0,0.0,0.0,0.0,0.0,0.0,0.0,0.0,0.0,0.0,0.0,0.0,-0.6197,-0.6565,-0.6917,-0.7294,-0.7015,-0.6636,-0.6177,-0.5962,-0.5492,-0.4737,-0.4161,0.0,0.0,0.0,0.0,0.0,0.0,0.0,0.0,0.0,0.0,0.0,0.0,0.0,0.0,0.0,0.0,0.0,0.0,0.0,0.0,0.0,0.0,0.0,0.0,0.0,0.0,0.0,0.0,0.0,0.0,0.0,0.0,0.0,0.0,0.0,0.0,0.0,0.0,0.0,0.0,0.0,0.0,0.0,0.0,0.0,0.0,0.0,0.0,0.0,0.0,0.0,0.0,0.0,-1.7312,-1.7541,-1.7541,-1.7541,-1.7715,-1.7908,-1.5756,-1.4965,-1.5045,-1.2868,0.0,0.0,0.0,0.0,0.0,0.0,0.0,0.0,0.0,0.0,0.0,0.0,0.0,0.0,0.0,0.0,0.0,0.0,0.0,0.0,0.0,0.0,0.0,0.0,-1.0112,-1.0444,-0.8128,0.0,0.0,0.0,0.0,0.0,0.0,0.0,0.0,0.0,0.0,0.0,-0.7272,-0.7798,-0.8147,-0.8298,-0.8178,-0.774,-0.6868,-0.6678,-0.6138,-0.5076,-0.4612,-0.4179,0.0,0.0,0.0,0.0,0.0,0.0,0.0,0.0,0.0,0.0,0.0,0.0,0.0,0.0,0.0,0.0,0.0,0.0,0.0,0.0,0.0,0.0,0.0,0.0,0.0,0.0,0.0,0.0,0.0,0.0,0.0,0.0,-1.4245,-1.4841,0.0,0.0,0.0,0.0,0.0,0.0,0.0,0.0,0.0,0.0,0.0,0.0,0.0,-1.6725,-1.7174,-1.799,-1.8568,-1.8916,-1.9677,-2.0044,-2.0044,-2.0044,-2.0031,-2.0108,-1.9725,0.0,-1.6455,-1.6104,0.0,0.0,0.0,0.0,0.0,0.0,0.0,0.0,0.0,0.0,0.0,0.0,0.0,0.0,0.0,0.0,0.0,0.0,0.0,0.0,0.0,0.0,-1.2421,-1.191,-1.1816,-1.1735,0.0,-1.0005,-0.8777,-0.8434,-0.8011,0.0,0.0,0.0,0.0,0.0,0.0,0.0,-0.8626,-0.8739,-0.8869,-0.9194,-0.8567,-0.797,-0.7668,-0.7534,-0.7077,-0.6227,-0.5755,-0.509,-0.4254,-0.3923,0.0,0.0,0.0,0.0,0.0,0.0,0.0,0.0,0.0,0.0,0.0,0.0,0.0,0.0,0.0,0.0,0.0,0.0,0.0,0.0,0.0,0.0,0.0,0.0,0.0,0.0,0.0,0.0,0.0,-1.517,-1.6506,-1.6488,-1.7043,-1.6882,0.0,0.0,0.0,0.0,0.0,0.0,0.0,0.0,0.0,-1.7972,-1.8815,-1.9567,-2.02,-2.0753,-2.1138,-2.1321,-2.1668,-2.1842,-2.1842,-2.1842,-2.1842,-2.1842,-2.1842,-2.1207,-2.006,-1.8135,-1.6696,-1.5539,0.0,0.0,0.0,0.0,-1.183,-1.1855,-1.2147,-1.192,-1.1486,-1.1751,0.0,0.0,0.0,0.0,0.0,0.0,0.0,0.0,0.0,0.0,-1.2421,-1.2518,-1.2451,-1.2409,-1.2409,-1.1623,-1.0716,0.0,-0.9639,-0.9107,-0.802,0.0,0.0,0.0,0.0,-0.9133,-0.9576,-0.9889,-1.0036,-0.9914,-0.9559,-0.9063,-0.8365,-0.8236,-0.7838,-0.6957,-0.6699,-0.6106,-0.5036,-0.4842,-0.436,0.0,0.0,0.0,0.0,0.0,0.0,0.0,0.0,0.0,0.0,0.0,0.0,0.0,0.0,0.0,0.0,0.0,0.0,0.0,0.0,0.0,0.0,0.0,0.0,0.0,0.0,0.0,0.0,-1.7283,-1.8495,-1.8384,-1.9408,-1.9508,0.0,0.0,0.0,0.0,0.0,0.0,-1.822,-1.9288,-1.9987,-2.0209,-2.1108,-2.1824,-2.2437,-2.2748,-2.2904,-2.2904,-2.2904,-2.2904,-2.2904,-2.2904,-2.2904,-2.2904,-2.2904,-2.2904,-2.2692,-2.0083,-1.8785,-1.828,-1.6601,-1.5897,-1.5695,-1.4491,-1.3926,-1.3769,-1.3727,-1.3278,-1.2765,-1.3025,-1.253,-1.1706,-1.123,0.0,0.0,0.0,0.0,-1.1582,-1.1826,-1.2091,-1.2427,-1.2819,-1.2862,-1.2813,-1.2813,-1.256,-1.2034,0.0,-1.0939,-1.0549,-0.9336,0.0,0.0,0.0,0.0,-0.9905,-1.0488,-1.0847,-1.0917,-1.0601,-1.0442,-1.0023,-0.9187,-0.9037,-0.8633,-0.7733,-0.7603,-0.7041,-0.5914,-0.5785,-0.5185,-0.4045,0.0,0.0,0.0,0.0,0.0,0.0,0.0,0.0,0.0,0.0,0.0,0.0,0.0,0.0,0.0,0.0,0.0,0.0,0.0,0.0,0.0,0.0,0.0,0.0,0.0,0.0,0.0,0.0,0.0,-2.0891,-2.1141,0.0,0.0,0.0,0.0,-2.0917,-2.141,-2.1673,-2.1738,-2.2289,-2.2666,-2.2702,-2.2785,-2.2831,-2.2876,-2.2895,-2.2904,-2.2904,-2.2904,-2.2904,-2.2904,-2.2904,-2.2904,-2.2904,-2.2904,-2.2904,-2.2867,-2.2318,-2.1816,-2.1335,-1.9895,-1.9171,-1.8635,-1.6554,-1.5793,-1.5725,-1.4613,-1.4069,-1.387,-1.4129,-1.3501,-1.2596,-1.2318,-1.1844,0.0,0.0,-1.2193,-1.2687,-1.297,-1.3236,-1.3441,-1.3471,-1.3284,-1.3103,-1.3103,-1.2707,-1.2271,0.0,-1.181,-1.1597,-1.0899,0.0,-1.1074,-1.0803,-1.0793,-1.1003,-1.1449,-1.1341,-1.1201,-1.1255,-1.0832,-1.0483,-1.0238,-0.998,-0.9496,-0.8685,-0.8379,-0.7834,-0.6876,-0.6511,-0.5982,-0.5132,-0.4865,0.0,0.0,0.0,0.0,0.0,0.0,0.0,0.0,0.0,0.0,0.0,0.0,0.0,0.0,0.0,0.0,0.0,0.0,0.0,0.0,0.0,0.0,0.0,0.0,0.0,0.0,0.0,0.0,-2.3075,-2.4283,0.0,-2.2797,-2.2435,-2.2551,-2.3148,-2.2772,-2.2964,-2.3936,-2.4061,-2.4115,-2.4125,-2.4381,-2.451,-2.451,-2.451,-2.451,-2.451,-2.451,-2.451,-2.451,-2.451,-2.451,-2.4491,-2.4244,-2.4134,-2.4097,-2.3481,-2.2869,-2.2131,-2.1516,-2.1084,-2.0657,-1.9083,-1.8487,-1.8353,-1.728,-1.6318,-1.5406,-1.4556,-1.4165,-1.3948,-1.367,-1.3459,-1.326,-1.3012,-1.3085,-1.3169,-1.2916,-1.2922,-1.2994,-1.2994,-1.2922,-1.285,-1.285,-1.2699,-1.2612,-1.2649,-1.2571,-1.2313,-1.1785,-1.1985,-1.1915,-1.101,-1.1282,-1.1543,-1.1424,-1.1458,-1.1405,-1.116,-1.0961,-1.0757,-1.0525,-1.0299,-0.9974,-0.9511,-0.9252,-0.8631,-0.7536,-0.695,-0.6158,-0.5085,-0.4606,-0.3987,0.0,0.0,0.0,0.0,0.0,0.0,0.0,0.0,0.0,0.0,0.0,0.0,0.0,0.0,0.0,0.0,0.0,0.0,0.0,0.0,0.0,0.0,0.0,0.0,0.0,0.0,-2.4149,-2.4886,-2.612,-2.6417,-2.5072,-2.4903,-2.5042,-2.5461,-2.4913,-2.4718,-2.5187,-2.5402,-2.5368,-2.5029,-2.5619,-2.5768,-2.5424,-2.5424,-2.5424,-2.5424,-2.5424,-2.5424,-2.5424,-2.5424,-2.5424,-2.5405,-2.5148,-2.4926,-2.4787,-2.4226,-2.3547,-2.2819,-2.258,-2.2373,-2.2033,-2.0728,-2.0164,-1.9938,-1.8777,-1.7576,-1.6353,-1.5335,-1.485,-1.4666,-1.4383,-1.4238,-1.4093,-1.3743,-1.3586,-1.3411,-1.2964,-1.2843,-1.2819,-1.2729,-1.2705,-1.2729,-1.2825,-1.277,-1.2815,-1.3171,-1.3001,-1.2697,-1.2482,-1.2531,-1.2328,-1.1536,-1.1709,-1.1786,-1.1486,-1.1508,-1.1461,-1.1128,-1.1036,-1.0918,-1.0767,-1.0396,-1.0132,-1.0051,-0.9599,-0.9046,-0.8284,-0.7434,-0.6485,-0.5413,-0.4591,-0.3982,-0.3583,0.0,0.0,0.0,0.0,0.0,0.0,0.0,0.0,0.0,0.0,0.0,0.0,0.0,0.0,0.0,0.0,0.0,0.0,0.0,0.0,0.0,0.0,0.0,-2.1565,-2.26,-2.4131,-2.6291,-2.6551,-2.6921,-2.7929,-2.7564,-2.7417,-2.7834,-2.7827,-2.7142,-2.5674,-2.6541,-2.6602,-2.5531,-2.6519,-2.657,-2.5497,-2.5445,-2.5488,-2.5479,-2.5479,-2.5417,-2.5408,-2.5408,-2.5408,-2.5408,-2.539,-2.5224,-2.4866,-2.4539,-2.4061,-2.3486,-2.3145,-2.2996,-2.2846,-2.1454,-2.0772,-2.0387,-1.8939,-1.7789,-1.6817,-1.652,-1.5656,-1.469,-1.4407,-1.4141,-1.3942,-1.3936,-1.3749,-1.3489,-1.3218,-1.3101,-1.3067,-1.2795,-1.2723,-1.2752,-1.3029,-1.2874,-1.2843,-1.338,-1.3049,-1.2797,-1.3065,-1.2726,-1.2431,-1.2376,-1.1996,0.0,-1.171,-1.1489,-1.1305,-1.1305,-1.1139,-1.0993,-1.0993,-1.0347,-1.004,-1.0266,-0.943,-0.9008,-0.9195,-0.7985,-0.6984,-0.6232,-0.497,-0.4314,-0.4317,0.0,0.0,0.0,0.0,0.0,0.0,0.0,0.0,0.0,0.0,0.0,0.0,0.0,0.0,0.0,0.0,0.0,0.0,0.0,0.0,0.0,-1.9437,-2.1107,-2.2208,-2.4829,-2.6779,-2.7194,-2.8672,-2.9478,-2.9063,-2.8511,-2.8589,-2.9461,-2.8379,-2.8157,-2.9245,-2.957,-2.9139,-2.7895,-2.8554,-2.8336,-2.716,-2.716,-2.7013,-2.6683,-2.6683,-2.6418,-2.591,-2.6135,-2.6135,-2.5892,-2.5611,-2.5431,-2.5289,-2.4517,-2.393,-2.3486,-2.3145,-2.2896,-2.2644,-2.2283,-2.2064,-2.1862,-2.0631,-1.9468,-1.835,-1.733,-1.6234,-1.5234,-1.4968,-1.4835,-1.4739,-1.4545,-1.4443,-1.428,-1.3809,-1.355,-1.3387,-1.3308,-1.2963,-1.2765,-1.303,-1.2923,-1.2858,-1.3169,-1.2959,-1.2839,-1.3077,-1.2985,-1.2791,-1.2428,-1.2109,0.0,-1.1739,-1.1456,-1.1305,-1.1305,-1.1246,-1.1209,-1.1209,-1.071,-1.0281,-1.004,-0.9448,-0.9141,-0.92,-0.8398,-0.7438,-0.6372,-0.5197,-0.4561,0.0,0.0,0.0,0.0,0.0,0.0,0.0,0.0,0.0,0.0,0.0,0.0,0.0,0.0,0.0,0.0,0.0,0.0,0.0,0.0,0.0,0.0,-2.0906,-2.2289,-2.3197,-2.5603,-2.7584,-2.8487,-2.921,-2.9757,-3.0016,-2.934,-2.9404,-3.0648,-2.9995,-2.9719,-3.0245,-3.0691,-3.018,-2.846,-2.9126,-2.8971,-2.7822,-2.7822,-2.7702,-2.7426,-2.7313,-2.6935,-2.637,-2.6443,-2.6298,-2.5889,-2.5666,-2.5513,-2.5315,-2.4658,-2.4148,0.0,0.0,0.0,0.0,0.0,-2.2594,-2.2493,-2.1818,-2.0885,-1.9767,-1.9001,-1.7671,-1.6358,-1.6207,-1.5721,-1.524,-1.5089,-1.4962,-1.4781,-1.4358,-1.4034,-1.3743,-1.3461,-1.3033,-1.2738,-1.2927,-1.2808,-1.2739,-1.3034,-1.2951,0.0,-1.2953,-1.2889,-1.2731,-1.2453,-1.2177,-1.1979,-1.1889,-1.1639,-1.145,-1.145,-1.1364,-1.1305,-1.1305,-1.0871,0.0,0.0,0.0,-0.9351,-0.9005,-0.8607,0.0,0.0,0.0,0.0,0.0,0.0,0.0,0.0,-0.4436,-0.4316,0.0,0.0,0.0,0.0,0.0,0.0,0.0,0.0,0.0,0.0,0.0,0.0,0.0,0.0,0.0,0.0,-2.2973,-2.4135,-2.4299,-2.5575,-2.7282,-2.9462,-2.8778,-2.8879,-3.0799,-3.0107,-3.0066,-3.1423,-3.1869,-3.1452,-2.9911,0.0,0.0,0.0,0.0,-2.9172,-2.8017,-2.796,-2.7875,-2.7772,-2.7438,-2.7059,-2.6664,-2.6457,-2.6131,-2.5695,-2.5695,-2.5494,-2.5194,-2.4826,-2.4499,-2.4108,-2.3408,-2.2886,-2.2594,-2.2594,-2.2594,-2.2594,-2.2594,0.0,0.0,-2.0885,-1.9495,-1.7733,-1.7635,-1.6722,-1.5698,-1.5594,-1.5378,-1.5086,-1.4821,-1.4527,-1.4129,-1.3491,-1.2998,-1.2768,-1.282,-1.2613,-1.2535,-1.2929,-1.2866,-1.278,-1.2807,-1.2592,-1.2457,-1.2457,-1.2294,-1.2137,-1.2137,-1.1932,-1.1741,-1.1741,0.0,0.0,-1.1348,-1.0935,-1.0742,-1.0934,-1.0374,-0.9716,-0.8991,-0.8918,-0.8604,-0.8061,-0.8062,-0.7775,-0.7154,-0.7267,-0.6856,-0.6053,-0.5061,-0.4797,0.0,0.0,0.0,0.0,0.0,0.0,0.0,0.0,0.0,0.0,0.0,0.0,0.0,0.0,0.0,-2.2277,-2.3206,-2.414,-2.511,-2.6682,-2.7684,-2.7454,-2.879,-3.0177,-3.1273,-3.1122,-3.1109,-3.1544,-3.1519,-3.1407,-3.1244,-3.2529,-3.2556,-3.1167,-3.1758,-3.1095,-2.913,-2.9071,-2.8563,-2.7512,0.0,0.0,-2.6439,-2.6619,-2.6359,-2.5765,-2.5765,-2.5581,-2.5165,-2.4893,-2.4576,-2.4108,-2.3408,-2.2886,-2.2594,-2.2594,-2.2594,-2.2594,-2.2594,-2.1869,-2.0885,-2.0885,-2.0004,-1.8715,-1.7838,-1.7384,0.0,-1.6078,-1.5624,-1.5376,-1.5104,-1.4612,-1.4167,-1.4019,-1.3481,-1.3056,-1.3056,-1.2711,-1.2418,-1.251,-1.2479,-1.2544,-1.278,-1.2775,-1.2694,-1.2694,-1.2495,-1.2344,-1.2344,-1.2175,-1.2024,-1.2024,-1.1986,-1.1883,-1.1645,-1.1332,-1.1026,-1.0683,-1.0751,-1.0715,-1.055,-1.0181,-0.9833,-0.9493,-0.8798,-0.8332,-0.8229,-0.8447,-0.844,-0.8211,-0.6308,-0.5461,0.0,0.0,0.0,0.0,0.0,0.0,0.0,0.0,0.0,0.0,0.0,-1.9867,-2.0624,0.0,-2.2565,-2.3617,-2.4614,-2.5519,-2.6288,-2.7567,-2.838,-2.8125,-2.9317,-3.0489,-3.1386,-3.0721,-3.0863,-3.2156,-3.1968,-3.187,-3.2159,-3.2825,-3.2605,-3.1405,-3.1166,-3.0529,-2.9422,-2.8957,-2.839,-2.7677,-2.7549,-2.7169,-2.6676,-2.6676,-2.6351,-2.5815,-2.5673,-2.5483,-2.5285,-2.4945,-2.4535,-2.4142,-2.3766,-2.3323,-2.2809,-2.2671,-2.2594,-2.2594,-2.2594,-2.2232,-2.1666,-2.1089,-2.0048,-1.8805,-1.7667,-1.6836,-1.6205,-1.5624,-1.5363,-1.5227,-1.5093,-1.475,-1.433,-1.4128,-1.3685,-1.3281,-1.3106,-1.271,-1.2452,-1.2565,-1.2495,-1.2452,-1.2571,-1.2732,-1.2813,-1.2813,-1.271,-1.2587,-1.2587,-1.2382,-1.2231,-1.2231,-1.217,-1.2046,-1.1927,-1.1768,-1.1596,-1.1359,-1.1343,-1.1343,-1.1343,-1.1014,-1.0757,-1.0608,-1.012,-0.9731,-0.9385,-0.9619,-0.9581,-0.922,-0.8306,-0.7505,0.0,0.0,0.0,0.0,0.0,0.0,0.0,0.0,-1.9561,-1.9989,-2.097,-2.1993,-2.2559,-2.3759,-2.4774,-2.5197,-2.6214,-2.6968,-2.7236,-2.8021,-2.8689,-2.9192,-2.9812,-3.0535,-3.145,-3.0588,-3.0712,-3.2483,-3.2401,-3.2264,-3.216,-3.2332,-3.1872,-3.0645,-2.9893,-2.9422,-2.9244,-2.8489,-2.802,-2.784,-2.753,-2.7253,-2.7035,-2.6721,-2.6396,-2.602,-2.5566,-2.5383,-2.5241,-2.4941,-2.4633,-2.4287,-2.421,-2.3862,-2.328,-2.2877,-2.2663,-2.2594,-2.2594,-2.2594,-2.2443,-2.1505,-2.0357,-1.9161,-1.8021,-1.6717,-1.5512,-1.5303,-1.5089,-1.4928,-1.4928,-1.4713,-1.4452,-1.406,-1.3727,-1.348,-1.3233,-1.2845,-1.2592,-1.278,-1.2576,-1.2414,-1.2414,-1.2571,-1.2759,-1.2807,-1.2813,-1.2813,-1.2813,-1.2597,-1.2484,-1.2484,-1.2348,-1.2213,-1.217,-1.2121,-1.2116,-1.2164,-1.1898,-1.1768,-1.1768,-1.1498,-1.1354,-1.1305,-1.1354,-1.1131,-1.063,-1.0879,-1.0783,-1.0277,-1.0414,-0.9701,-1.7871,-1.8438,-1.9424,-2.1073,-2.1197,-2.1731,0.0,0.0,-2.3352,-2.5,-2.4551,-2.4147,-2.496,-2.5892,-2.6587,-2.696,-2.7134,-2.7236,-2.7272,-2.7395,-2.7776,-2.8577,-2.9853,-3.0977,-3.1849,-3.2159,-3.2119,-3.1504,-3.2207,-3.195,-3.0295,-3.0995,-3.0995,-3.0001,-2.9884,-2.9412,-2.86,-2.848,-2.8011,-2.7194,-2.7133,-2.7108,-2.7073,-2.7073,-2.6799,-2.6388,-2.5677,-2.5189,-2.4881,-2.4838,-2.4795,-2.4718,-2.4313,-2.4125,-2.3971,-2.3314,-2.2835,-2.2594,-2.2594,-2.2594,-2.2594,-2.2443,-2.1928,-2.1148,-2.0071,-1.8767,-1.7463,-1.6424,-1.541,-1.4659,-1.4659,-1.445,-1.4234,-1.418,-1.3943,-1.3717,-1.3486,-1.3222,-1.2974,-1.2845,-1.2576,-1.2414,-1.2414,-1.2436,-1.2527,-1.278,-1.2813,-1.2813,-1.2813,-1.2786,-1.2775,-1.2775,-1.2748,-1.2645,-1.2393,-1.2218,-1.2186,-1.2361,-1.2191,-1.2056,-1.2056,-1.1785,-1.152,-1.1311,-1.1509,-1.1729,-1.1914,-1.2363,-1.2602,-1.2686,-1.2161,-1.0682,-2.0956,-2.1649,-2.2257,0.0,-2.4451,-2.5001,-2.605,-2.5762,-2.5582,-2.6702,-2.5855,-2.5167,-2.608,-2.6267,-2.6311,0.0,-2.7338,-2.7984,-2.7984,-2.8685,-2.924,-2.9356,-3.0398,-3.1355,-3.1957,-3.1681,-3.1428,-3.1323,-3.1179,-3.0713,-2.9943,-3.0295,-3.0295,-2.9884,-2.9353,-2.8888,-2.848,-2.7951,-2.7487,-2.7073,-2.7073,-2.7073,-2.7073,-2.7073,-2.6859,-2.6456,-2.5925,-2.5489,-2.5121,-2.4907,-2.4821,-2.4804,-2.4586,-2.4436,-2.4091,-2.3391,-2.3014,-2.2843,-2.2671,-2.2594,-2.2493,-2.1818,-2.1089,-2.0261,-1.9183,-1.8094,-1.7147,-1.6683,-1.5832,-1.5137,-1.5137,-1.4665,-1.4196,-1.4196,-1.4116,-1.4008,-1.3916,-1.3593,-1.3297,-1.32,-1.2877,-1.2619,-1.2619,-1.2506,-1.2447,-1.2544,-1.2678,-1.2813,-1.2813,-1.2813,-1.2813,-1.2813,-1.2813,-1.277,-1.2624,-1.257,-1.2554,-1.2614,-1.2305,-1.2094,-1.2094,-1.1693,-1.1472,-1.1509,-1.1785,-1.2132,-1.2516,-1.2997,-1.3297,-1.3477,-1.2476,-1.1164,-2.3055,-2.3939,0.0,-2.5967,-2.6992,-2.752,-2.7097,-2.7092,-2.7352,-2.8043,-2.6912,-2.6039,-2.6965,-2.6688,-2.6308,-2.6412,-2.7529,-2.8354,-2.8462,-2.8956,-2.9373,-2.9524,-2.9963,-3.0604,-3.134,-3.091,-3.0809,-3.1245,-3.0412,-2.9766,-2.953,-2.953,-2.9422,-2.9126,-2.848,-2.8131,-2.8131,-2.7427,-2.7073,-2.7073,-2.7073,-2.7073,-2.7073,-2.7073,-2.6859,-2.6473,-2.6208,-2.5814,-2.5409,-2.5078,-2.4907,-2.4821,-2.4821,-2.4641,-2.4316,-2.3665,-2.3297,-2.3057,-2.2731,-2.2594,-2.2443,-2.1666,-2.0731,-1.9797,-1.9027,-1.7832,-1.6677,-1.6677,-1.5939,-1.5143,-1.5143,-1.4671,-1.4196,-1.4196,-1.4196,-1.4196,-1.4196,-1.3922,-1.3658,-1.3588,-1.3238,-1.2986,-1.2916,-1.2716,-1.2587,-1.2517,-1.2711,-1.2862,-1.2732,-1.277,-1.2813,-1.2813,-1.2813,-1.2813,-1.2813,-1.2753,-1.2667,-1.2667,-1.2267,-1.1997,-1.1997,-1.1628,-1.1558,-1.179,-1.2137,-1.2526,-1.3007,-1.3373,-1.3529,-1.3381,-1.2513,-1.1433,0.0,0.0,-2.5513,-2.6905,-2.7893,-2.869,-2.9084,-2.8926,-2.889,-2.9774,-2.817,-2.6927,-2.7816,-2.7584,-2.7407,-2.7786,-2.7867,-2.8079,-2.8426,-2.7053,-2.6677,-2.8342,-2.7969,-2.8135,0.0,-3.0327,-3.0809,-3.1245,-3.0412,-2.9471,-2.86,-2.854,-2.8131,-2.7194,-2.7133,-2.7133,-2.7133,-2.7133,-2.7073,-2.7073,-2.7073,-2.7073,-2.7073,-2.7073,-2.6859,-2.6491,-2.6473,-2.6054,-2.5426,-2.5417,-2.5146,-2.4821,-2.4821,-2.4812,-2.4753,-2.4296,-2.3734,-2.3057,-2.2731,-2.2594,-2.2594,-2.2544,-2.1784,-2.0865,-2.0814,-1.8878,-1.6677,-1.6677,-1.5517,-1.4245,-1.4245,-1.4191,-1.4196,-1.4196,-1.4196,-1.4196,-1.4196,-1.4186,-1.4099,-1.3857,-1.362,-1.3383,-1.3136,-1.3087,-1.3007,-1.2835,-1.2947,-1.2931,-1.2484,-1.2624,-1.2813,-1.2813,-1.2813,-1.2813,-1.2813,-1.2554,-1.2425,-1.2425,-1.1973,-1.1709,-1.1709,-1.1698,-1.1795,-1.2078,-1.2548,-1.3029,-1.3459,-1.3696,-1.3338,-1.2462,-1.2413,-1.1596,-2.4602,0.0,-2.6837,-2.7893,-2.8618,-2.9197,-2.9653,-2.9422,-2.9108,-2.9172,-2.7441,-2.5937,-2.6048,-2.5416,-2.5119,-2.5717,-2.624,-2.6798,-2.7452,-2.7844,-2.7882,-2.7238,-2.8282,0.0,0.0,0.0,0.0,-2.9465,-2.8917,-2.831,-2.759,-2.7547,-2.7427,-2.7133,-2.7073,-2.7073,-2.7073,-2.7073,-2.7073,-2.7073,-2.7073,-2.7073,-2.7073,-2.7073,-2.7004,-2.6867,-2.6602,-2.6208,-2.5729,-2.5472,-2.5155,-2.4821,-2.4821,-2.4821,-2.477,-2.4321,-2.3798,-2.3227,-2.2987,-2.2494,-2.1979,-2.1979,-2.1267,-2.0344,-2.0344,-1.9034,-1.7569,-1.7569,-1.6352,-1.5035,-1.5035,-1.4611,-1.4196,-1.4196,-1.4196,-1.4196,-1.4196,-1.4196,-1.4169,-1.4083,-1.3873,-1.368,-1.3593,-1.3313,-1.3077,-1.3001,-1.2797,-1.2592,-1.2436,-1.2339,-1.2337,-1.2337,-1.2337,-1.2337,-1.2337,-1.2262,-1.2218,-1.2218,-1.2067,-1.1975,-1.1975,-1.2086,-1.2285,-1.2564,-1.304,-1.3394,-1.3706,-1.3131,-1.2729,-1.2363,-1.0609,-0.9402,-2.5972,-2.7092,-2.7966,-2.8876,-2.9456,-2.9829,-2.9963,-2.9402,-2.8767,-2.8416,-2.639,-2.4627,-2.4427,-2.3556,-2.3127,-2.4064,-2.4933,-2.5775,-2.6617,-2.7597,-2.791,-2.7068,-2.8126,-2.8662,0.0,0.0,0.0,-2.8518,-2.7941,-2.7447,-2.7116,-2.7073,-2.7073,-2.7073,-2.7073,-2.7073,-2.7073,-2.7073,-2.7073,-2.7073,-2.7073,-2.7073,-2.7073,-2.7073,-2.7073,-2.7064,-2.6807,-2.6482,-2.6105,-2.5729,-2.5352,-2.5001,-2.4872,-2.4654,-2.4454,-2.42,-2.3631,-2.2972,-2.285,-2.2285,-2.1591,-2.1469,-2.0806,-2.0078,-2.0078,-1.9138,-1.793,-1.7615,-1.6564,-1.5458,-1.5143,-1.4617,-1.4196,-1.4196,-1.4196,-1.4196,-1.4196,-1.4196,-1.4196,-1.4196,-1.4062,-1.3954,-1.3954,-1.362,-1.3357,-1.3357,-1.2958,-1.2662,-1.2662,-1.2522,-1.244,-1.2359,-1.2348,-1.2348,-1.2348,-1.2272,-1.2224,-1.2224,-1.2224,-1.2224,-1.2224,-1.249,-1.2775,-1.3061,-1.34,-1.3717,-1.3954,-1.3342,-1.2585,-1.176,-1.0061,-0.8582,-2.6993,-2.8028,-2.8928,-2.9808,-3.0356,-3.05,-3.0014,-2.8916,-2.7875,-2.742,-2.5067,-2.3038,-2.2851,0.0,-2.1615,-2.283,-2.403,-2.5116,-2.599,-2.6439,-2.6854,0.0,0.0,0.0,0.0,0.0,0.0,-2.8367,0.0,-2.7056,-2.7073,-2.7073,-2.7073,-2.7073,-2.7073,-2.7073,-2.7073,-2.7073,-2.7073,-2.7073,-2.7073,-2.7073,-2.7073,-2.7073,-2.7073,-2.7073,-2.7073,-2.685,-2.6465,-2.6105,-2.5729,-2.5335,-2.4928,-2.444,-2.3921,-2.3865,-2.3245,-2.2347,-2.2266,-2.1849,-2.1288,-2.1,-2.0514,-2.0078,-2.0078,-1.9086,-1.7832,-1.6988,-1.6146,-1.5298,-1.4455,-1.425,-1.4196,-1.4196,-1.4196,-1.4196,-1.4196,-1.4196,-1.4196,-1.4196,-1.4196,-1.4196,-1.4196,-1.3997,-1.3841,-1.3841,-1.3448,-1.3147,-1.3109,-1.3093,-1.3007,-1.2835,-1.2813,-1.2813,-1.2813,-1.256,-1.2431,-1.2431,-1.2441,-1.2452,-1.2452,-1.2894,-1.3254,-1.3491,-1.3723,-1.3954,-1.4196,-1.4083,-1.2925,-1.0726,-1.0617,-0.9027,-2.8411,-2.9456,-3.0212,-3.045,-3.0092,-2.9531,-2.8768,-2.7616,-2.613,-2.3932,-2.2679,-2.1319,-1.9315,-1.9766,0.0,-2.208,-2.3698,0.0,-2.6678,-2.7512,0.0,-2.6931,0.0,-2.7807,-2.6913,-2.7019,0.0,0.0,-2.6978,-2.6765,-2.7056,-2.7073,-2.7073,-2.7073,-2.7073,-2.7073,-2.7073,-2.7073,-2.7073,-2.7073,-2.7073,-2.7073,-2.7073,-2.7073,-2.7073,-2.7073,-2.7073,-2.685,-2.6482,-2.6388,-2.596,-2.536,-2.4805,-2.4321,-2.3857,-2.3408,-2.2789,-2.2143,-2.1884,-2.1341,-2.0793,-2.0701,-2.0143,-1.948,-1.948,-1.8781,-1.7937,-1.7726,-1.6617,-1.5458,-1.525,-1.4665,-1.4196,-1.4196,-1.4196,-1.4196,-1.4196,-1.4196,-1.4196,-1.4196,-1.4196,-1.4196,-1.4196,-1.4143,-1.4099,-1.4099,-1.3992,-1.3723,-1.3173,-1.2958,-1.2878,-1.2818,-1.2813,-1.2813,-1.2813,-1.2759,-1.2721,-1.2721,-1.2834,-1.2931,-1.2931,-1.3383,-1.3669,-1.3733,-1.397,-1.4132,-1.4196,-1.292,-1.1987,-1.1328,-0.9523,-0.8097,-2.9342,-3.0312,-3.1011,-3.0599,-2.9677,-2.8525,-2.7192,-2.5471,-2.3492,-2.1303,-1.9958,-1.8717,-1.7217,-1.7846,0.0,0.0,0.0,0.0,-2.5741,-2.6824,-2.7263,0.0,-2.7408,0.0,-2.6824,-2.6695,-2.664,0.0,-2.6747,-2.6842,-2.7064,-2.7073,-2.7073,-2.7073,-2.6822,-2.6518,-2.6214,-2.6518,-2.6518,-2.6214,-2.6214,-2.6214,-2.6214,-2.6214,-2.6214,-2.6214,0.0,-2.6089,-2.5882,-2.5716,-2.531,-2.4721,-2.4228,-2.3666,-2.307,-2.2732,-2.223,-2.1687,-2.15,-2.1095,-2.0608,-2.0324,-1.9799,-1.9279,-1.9279,-1.8952,-1.8468,-1.8094,-1.7298,-1.6511,-1.6146,-1.5405,-1.4773,-1.4773,-1.4455,-1.4196,-1.4196,-1.4196,-1.4196,-1.4196,-1.4196,-1.4196,-1.4196,-1.4196,-1.4196,-1.4196,-1.4196,-1.4046,-1.3636,-1.3373,-1.319,-1.3137,-1.3126,-1.3126,-1.3126,-1.3126,-1.3126,-1.3126,-1.3292,-1.3421,-1.3421,-1.3782,-1.3986,-1.3986,-1.4121,-1.4196,-1.4196,-1.3202,-1.2372,-1.1546,-1.0233,-0.8751,-2.9459,-3.0197,-3.0685,-2.9918,-2.8665,-2.7182,-2.5353,-2.2895,-2.0585,-1.9127,0.0,-1.608,-1.5868,-1.6258,-1.7105,-1.8555,0.0,-2.2577,-2.4325,-2.5319,-2.6147,-2.6761,-2.683,-2.683,-2.683,-2.6327,-2.5953,-2.5953,-2.6518,-2.683,-2.683,-2.683,-2.683,-2.683,-2.6266,-2.5717,-2.5111,-2.5647,-2.5647,-2.5111,-2.5111,-2.5111,-2.5111,-2.5111,-2.5111,-2.5111,-2.5111,-2.5111,-2.5087,-2.4709,-2.4336,-2.3948,-2.3605,-2.2912,-2.2108,-2.2002,-2.166,-2.1211,-2.1211,-2.0998,-2.0625,-2.0025,-1.9601,-1.9382,-1.9286,-1.9279,-1.9116,-1.8415,-1.8094,-1.7832,-1.7047,-1.6252,-1.5613,-1.5506,-1.4928,-1.4353,-1.4191,-1.4196,-1.4196,-1.4196,-1.4196,-1.4196,-1.4196,-1.4196,-1.4196,-1.4196,-1.4196,-1.4196,-1.4196,-1.4003,-1.3793,-1.3593,-1.3572,-1.3572,-1.3572,-1.3572,-1.3572,-1.3572,-1.376,-1.3868,-1.3868,-1.4078,-1.4196,-1.4196,-1.4196,-1.4196,-1.4196,-1.4029,-1.3202,-1.1714,-1.1328,-0.979,-2.7178,-2.7258,-2.7269,-2.7348,-2.6056,-2.4339,-2.278,-2.0875,0.0,0.0,-1.6091,-1.54,-1.4201,-1.5478,-1.7144,-1.8569,0.0,0.0,0.0,0.0,-2.502,0.0,-2.548,-2.548,-2.548,0.0,0.0,0.0,0.0,-2.548,-2.548,-2.548,-2.548,-2.548,-2.5349,-2.5226,-2.5111,-2.5226,-2.5226,-2.5111,-2.5111,-2.5111,-2.5111,-2.5111,-2.5111,-2.5111,-2.5111,0.0,-2.5103,-2.504,-2.4627,-2.3913,-2.3386,-2.2759,-2.2059,-2.1546,-2.1268,-2.1211,-2.1211,-2.0998,-2.0662,-2.0219,-1.9938,-1.9683,-1.936,-1.9279,-1.9272,-1.9116,-1.8579,-1.7982,-1.7825,-1.7147,-1.6305,-1.5666,-1.5399,-1.5089,-1.4353,-1.4196,-1.4196,-1.4196,-1.4196,-1.4196,-1.4196,-1.4196,-1.4196,-1.4196,-1.4196,-1.4196,-1.4196,-1.4159,-1.4116,-1.4073,-1.4073,-1.4073,-1.4073,-1.4073,-1.4073,-1.4073,-1.411,-1.4126,-1.4126,-1.4169,-1.4196,-1.4196,-1.4196,-1.4196,-1.4196,-1.3207,-1.255,-1.2219,-1.0021,-0.8644,-2.6415,-2.6468,-2.6328,-2.6107,-2.4573,-2.2554,-2.0575,0.0,0.0,0.0,-1.4561,-1.4343,-1.3616,-1.4639,0.0,-1.7311,0.0,0.0,0.0,0.0,0.0,0.0,0.0,0.0,0.0,0.0,0.0,0.0,0.0,-2.4355,-2.5042,-2.5111,-2.4919,-2.461,-2.4919,-2.4734,-2.4046,-2.4425,-2.4417,-2.4046,-2.4046,-2.4046,-2.4046,-2.4046,-2.4046,-2.4046,-2.4046,0.0,-2.4046,-2.4046,-2.3658,-2.3049,-2.2759,-2.2243,-2.1603,-2.1325,-2.1211,-2.1211,-2.1211,-2.1108,-2.0896,-2.0343,-2.0025,-1.9757,-1.9426,-1.9279,-1.9279,-1.9279,-1.9004,-1.8684,-1.8684,-1.8048,-1.7147,-1.6305,-1.5458,-1.4719,-1.4299,-1.4196,-1.4196,-1.4196,-1.4196,-1.4196,-1.4196,-1.4196,-1.4196,-1.4196,-1.4196,-1.4196,-1.4196,-1.4196,-1.4196,-1.4196,-1.4196,-1.4196,-1.4196,-1.4196,-1.4196,-1.4196,-1.4196,-1.4196,-1.4196,-1.4196,-1.4196,-1.4196,-1.4196,-1.4196,-1.4196,-1.3315,-1.2713,-1.2327,-1.0351,-0.8861,-2.5147,-2.5272,-2.5252,-2.4667,-2.3032,-2.0996,-1.8758,-1.6988,0.0,0.0,-1.3492,-1.3492,-1.3492,0.0,-1.4819,0.0,-1.6806,-1.8304,0.0,0.0,0.0,0.0,0.0,0.0,0.0,0.0,0.0,0.0,0.0,0.0,-2.461,-2.4672,-2.4425,-2.3922,-2.4417,-2.417,-2.3113,-2.3611,-2.3611,-2.3106,-2.3106,-2.3106,-2.3106,-2.3106,-2.3106,-2.3106,-2.3106,0.0,0.0,-2.3106,-2.274,-2.2184,-2.2184,-2.1789,-2.1211,-2.1211,-2.1211,-2.1211,-2.1211,-2.1211,-2.1115,-2.0475,-2.012,-1.9791,-1.9396,-1.9279,-1.9279,-1.9279,-1.9279,-1.9279,-1.9279,-1.8795,-1.7989,-1.6942,-1.541,-1.4196,-1.4196,-1.4196,-1.4196,-1.4196,-1.4196,-1.4196,-1.4196,-1.4196,-1.4196,-1.4196,-1.4196,-1.4196,-1.4196,-1.4196,-1.4196,-1.4196,-1.4196,-1.4196,-1.4196,-1.4196,-1.4196,-1.4196,-1.4196,-1.4196,-1.4196,-1.4196,-1.4196,-1.4196,-1.4196,-1.4196,-1.4196,-1.3478,-1.2876,-1.2387,-1.0562,-0.913,-2.1632,-2.1663,-2.167,-2.1611,-2.0547,-1.9125,-1.7416,0.0,-1.5094,-1.377,-1.3492,-1.3492,-1.3492,-1.3784,-1.4443,0.0,0.0,-1.7746,0.0,0.0,0.0,0.0,0.0,0.0,0.0,0.0,0.0,0.0,0.0,0.0,-2.33,-2.33,-2.3238,-2.3168,-2.323,-2.323,-2.3106,-2.3175,-2.3175,-2.3106,-2.3106,-2.3106,-2.3106,-2.3106,-2.3106,-2.3106,-2.3106,0.0,0.0,-2.3106,-2.274,-2.2184,-2.2184,-2.1789,-2.1211,-2.1211,-2.1211,-2.1211,-2.1211,-2.1211,-2.1152,-2.0794,-2.0402,-2.0077,-1.9462,-1.9279,-1.9279,-1.9279,-1.9279,-1.9279,-1.9279,-1.922,-1.8743,-1.71,-1.541,-1.4196,-1.4196,-1.4196,-1.4196,-1.4196,-1.4196,-1.4196,-1.4196,-1.4196,-1.4196,-1.4196,-1.4196,-1.4196,-1.4196,-1.4196,-1.4196,-1.4196,-1.4196,-1.4196,-1.4196,-1.4196,-1.4196,-1.4196,-1.4196,-1.4196,-1.4196,-1.4196,-1.4196,-1.4196,-1.4196,-1.4196,-1.4196,-1.3044,-1.2441,-1.2327,-0.9515,-0.814,-2.0446,-2.0772,-2.0867,-2.0676,-1.9945,-1.8854,-1.7027,0.0,-1.5024,-1.3762,-1.3492,-1.3492,-1.3492,-1.3601,-1.4048,0.0,-1.5372,-1.625,-1.846,0.0,0.0,0.0,0.0,0.0,0.0,0.0,0.0,0.0,0.0,0.0,-2.3106,-2.3106,-2.3106,-2.3106,-2.3106,-2.3106,-2.3106,-2.3106,-2.3106,-2.3106,-2.3106,-2.3106,-2.3106,-2.3106,-2.3106,-2.3106,-2.3106,0.0,0.0,-2.3106,-2.2849,-2.2432,-2.225,-2.1906,-2.1481,-2.1284,-2.1211,-2.1211,-2.1211,-2.1211,-2.1159,-2.083,-2.0446,-2.015,-1.9703,-1.9485,-1.9279,-1.9279,-1.9279,-1.9279,-1.9279,-1.89,-1.8206,-1.6995,-1.5832,-1.4826,-1.4299,-1.4196,-1.4196,-1.4196,-1.3921,-1.3645,-1.3645,-1.3645,-1.3537,-1.3152,-1.3753,-1.4083,-1.3699,-1.3975,-1.4196,-1.4196,-1.4196,-1.4196,-1.4196,-1.4196,-1.4196,-1.4196,-1.3867,-1.3645,-1.3645,-1.3315,-1.3098,-1.3098,-1.3478,-1.3483,-1.3098,-1.2604,-1.2219,-1.1896,-0.9798,-0.8527,-1.9396,-1.9974,-2.0216,-1.9894,-1.9323,-1.8386,0.0,-1.5745,-1.4907,-1.374,-1.3492,-1.3492,-1.3492,-1.3492,-1.3784,0.0,-1.4692,-1.5328,-1.7384,-1.7918,0.0,0.0,0.0,0.0,0.0,0.0,0.0,0.0,0.0,0.0,-2.3106,-2.3106,-2.3106,-2.3106,-2.3106,-2.3106,-2.3106,-2.3106,-2.3106,-2.3106,-2.3106,-2.3106,-2.3106,-2.3106,-2.3106,-2.3106,-2.3106,0.0,0.0,-2.3106,-2.2864,-2.2469,-2.2264,-2.192,-2.1525,-2.1298,-2.1211,-2.1211,-2.1211,-2.1211,-2.1174,-2.094,-2.0526,-2.0139,-1.9974,-1.9608,-1.9279,-1.9279,-1.9227,-1.9175,-1.9279,-1.8534,-1.7516,-1.667,-1.5767,-1.4869,-1.3862,-1.3645,-1.3645,-1.3645,-1.3315,-1.3044,-1.3044,-1.3044,-1.2876,-1.2441,-1.3098,-1.3537,-1.3098,-1.3537,-1.3921,-1.3921,-1.3921,-1.4029,-1.4191,-1.4196,-1.4137,-1.3975,-1.3537,-1.3207,-1.3044,-1.2604,-1.2387,-1.2387,-1.2822,-1.2822,-1.2387,-1.2223,-1.1951,-1.1568,-0.9801,-0.8364,-1.8057,-1.8796,-1.9213,-1.8884,-1.8313,-1.7494,-1.6213,-1.5374,-1.463,-1.3697,-1.3492,-1.3492,-1.3492,-1.3492,-1.3711,-1.4408,-1.4735,-1.5455,-1.706,-1.8167,0.0,0.0,0.0,0.0,0.0,0.0,0.0,0.0,0.0,0.0,-2.3106,-2.3106,-2.3106,-2.3106,-2.3106,-2.3106,-2.3106,-2.3106,-2.3106,-2.3106,-2.3106,-2.3106,-2.3106,-2.3106,-2.3106,-2.3106,0.0,0.0,0.0,-2.3106,-2.2747,-2.2184,-2.2184,-2.1789,-2.1211,-2.1211,-2.1211,-2.1211,-2.1211,-2.1211,-2.1211,-2.1203,-2.0764,-2.0183,-2.0176,-1.9784,-1.9279,-1.9279,-1.913,-1.8974,-1.9227,-1.8279,-1.7014,-1.6133,-1.5013,-1.39,-1.2654,-1.2441,-1.2441,-1.2441,-1.2387,-1.2387,-1.2387,-1.2387,-1.2387,-1.2387,-1.2387,-1.2441,-1.2387,-1.293,-1.3315,-1.3315,-1.3315,-1.3537,-1.4137,-1.4196,-1.3975,-1.3369,-1.3315,-1.3044,-1.2436,-1.2387,-1.2387,-1.2387,-1.2387,-1.2387,-1.2387,-1.1896,-1.1623,-1.1514,-0.9133,-0.7093,-1.6257,-1.7121,-1.7816,-1.7274,-1.6982,-1.655,-1.5447,-1.4926,-1.4406,-1.3653,-1.3492,-1.3492,-1.3492,-1.3492,-1.385,-1.4948,-1.5211,0.0,0.0,0.0,0.0,0.0,0.0,0.0,0.0,0.0,0.0,0.0,0.0,0.0,-2.3106,-2.3106,-2.3106,-2.3106,-2.3106,-2.3106,-2.3106,-2.3106,-2.3106,-2.3106,-2.3106,-2.3106,-2.3106,-2.3106,-2.3106,0.0,0.0,0.0,0.0,-2.3106,-2.2864,-2.2462,-2.2264,-2.192,-2.1511,-2.1291,-2.1211,-2.1211,-2.1211,-2.1211,-2.1211,-2.1211,-2.0918,-2.0475,-2.0249,-1.9791,-1.9279,-1.9279,-1.913,-1.8921,-1.9026,-1.8712,-1.7911,-1.6033,-1.528,-1.4535,-1.2762,-1.2387,-1.2387,-1.2387,-1.211,-1.1841,-1.1841,-1.1841,-1.1732,-1.1295,-1.1896,-1.2273,-1.1896,-1.2332,-1.2659,-1.2659,-1.2659,-1.293,-1.3537,-1.3207,-1.2876,-1.2713,-1.2332,-1.206,-1.1841,-1.1455,-1.1236,-1.1236,-1.1618,-1.1678,-1.1236,-1.1459,-1.1072,-1.0076,-0.8637,-0.7371,-1.4779,-1.5643,-1.6286,-1.5928,-1.5833,-1.5643,-1.4926,-1.4516,-1.4174,-1.3601,-1.3492,-1.3492,-1.3492,-1.3492,-1.3836,-1.4896,-1.5167,0.0,0.0,0.0,0.0,0.0,0.0,0.0,0.0,0.0,0.0,0.0,0.0,0.0,-2.3106,-2.3106,-2.3106,-2.3106,-2.3106,-2.3106,-2.3106,-2.3106,-2.3106,-2.3106,-2.3106,-2.3106,-2.3106,-2.3106,-2.3106,0.0,0.0,0.0,0.0,-2.2974,-2.274,-2.2425,-2.2125,-2.1803,-2.1489,-2.1284,-2.1211,-2.1211,-2.1211,-2.1146,-2.1024,-2.1024,-2.067,-2.0147,-1.9823,-1.9423,-1.9123,-1.9011,-1.8757,-1.86,-1.8705,-1.8541,-1.7957,-1.6193,-1.5328,-1.4471,-1.2753,-1.205,-1.1782,-1.1782,-1.1514,-1.124,-1.124,-1.124,-1.1131,-1.0747,-1.1295,-1.1618,-1.1295,-1.1732,-1.2114,-1.2114,-1.2114,-1.2278,-1.2604,-1.2495,-1.2327,-1.2114,-1.1787,-1.1514,-1.1295,-1.0911,-1.0692,-1.0692,-1.1076,-1.1076,-1.0692,-1.1076,-1.0633,-0.9361,-0.842,-0.7537,0.0,-1.4296,-1.4754,-1.471,-1.471,-1.4659,-1.4428,-1.4114,0.0,-1.355,-1.3477,-1.3477,-1.355,-1.3543,-1.3777,-1.4555,0.0,0.0,0.0,0.0,0.0,0.0,0.0,0.0,0.0,0.0,0.0,0.0,0.0,0.0,-2.3106,-2.3106,-2.3106,-2.3106,-2.3106,-2.3106,-2.3106,-2.3106,-2.3106,-2.3106,-2.3106,-2.3106,-2.3043,-2.3043,-2.3043,0.0,0.0,0.0,0.0,-2.2693,-2.2386,-2.2087,-2.1766,-2.1438,-2.1153,-2.1153,-2.1153,-2.1153,-2.1153,-2.091,-2.0658,-2.0658,-2.0076,-1.9352,-1.901,-1.8862,-1.8764,-1.8482,-1.822,-1.8069,-1.8325,-1.8003,-1.7417,-1.6511,-1.5162,-1.3809,-1.263,-1.15,-1.0692,-1.0692,-1.0692,-1.0692,-1.0692,-1.0692,-1.0692,-1.0692,-1.0692,-1.0692,-1.0692,-1.1185,-1.1514,-1.1514,-1.1514,-1.1514,-1.1514,-1.2005,-1.206,-1.1568,-1.1514,-1.1295,-1.0747,-1.0692,-1.0692,-1.0692,-1.0692,-1.0692,-1.0692,-1.0637,-1.0135,-0.9306,-0.8374,-0.7438,-1.1869,0.0,-1.3302,-1.2806,-1.2871,-1.3062,0.0,-1.2884,-1.2811,-1.3186,-1.3122,-1.3216,-1.4106,-1.4071,-1.4438,-1.6074,0.0,0.0,0.0,0.0,0.0,0.0,0.0,0.0,0.0,0.0,0.0,0.0,0.0,-2.3106,-2.3106,-2.3106,-2.3106,-2.3106,-2.3106,-2.3106,-2.3106,-2.3106,-2.3106,-2.3106,-2.3106,-2.2981,-2.2731,-2.2731,-2.2613,0.0,0.0,0.0,-2.2334,-2.2029,-2.1718,-2.1406,-2.1095,-2.0784,-2.0507,-2.0507,-2.0507,-2.0507,-2.0507,-2.0443,-2.0385,-2.0385,-1.997,-1.9339,-1.8995,-1.8602,-1.8227,-1.837,-1.822,-1.8016,-1.8069,-1.8016,-1.7589,-1.6293,-1.4995,-1.3809,-1.263,-1.15,-1.0692,-1.0692,-1.0692,-1.0692,-1.0692,-1.0692,-1.0692,-1.0692,-1.0692,-1.0692,-1.0692,-1.0802,-1.0911,-1.0911,-1.0911,-1.0911,-1.0911,-1.1021,-1.1076,-1.0911,-1.0911,-1.0857,-1.0692,-1.0692,-1.0692,-1.0692,-1.0692,-1.0692,-1.0692,-1.0025,-0.9247,-0.8309,-0.7463,-0.6606,-1.052,-1.1757,-1.2998,-1.2755,-1.2838,-1.3049,-1.3266,-1.2832,-1.2458,-1.2727,0.0,-1.2999,-1.3744,-1.4006,0.0,0.0,-1.6712,0.0,0.0,0.0,0.0,0.0,0.0,0.0,0.0,0.0,0.0,0.0,0.0,-2.3106,-2.3106,-2.3106,-2.305,-2.2863,-2.2856,-2.2918,-2.3106,-2.2918,-2.2856,-2.2856,-2.2731,-2.2543,-2.2355,-2.2355,-2.2299,0.0,0.0,0.0,-2.2076,-2.1628,-2.1341,-2.1145,-2.0756,-2.0475,-2.027,-2.027,-2.027,-2.027,-2.027,-2.0213,-2.004,-1.9931,-1.9468,-1.8919,-1.876,-1.8279,-1.7852,-1.8003,-1.7957,-1.7799,-1.7799,-1.7799,-1.7635,-1.6882,-1.537,-1.3917,-1.3329,-1.1878,-1.0692,-1.0692,-1.0692,-1.0692,-1.0692,-1.0692,-1.0692,-1.0692,-1.0692,-1.0692,-1.0692,-1.0692,-1.0692,-1.0692,-1.0692,-1.0692,-1.0692,-1.0692,-1.0692,-1.0692,-1.0692,-1.0692,-1.0692,-1.0692,-1.0692,-1.0692,-1.0692,-1.0692,-1.0692,-0.9805,-0.9175,-0.8686,-0.7409,-0.6555,-0.9624,-1.1303,-1.2994,-1.2956,-1.3138,-1.3346,-1.3611,0.0,0.0,0.0,0.0,0.0,-1.3437,-1.4043,0.0,0.0,0.0,0.0,0.0,0.0,0.0,0.0,0.0,0.0,0.0,0.0,0.0,0.0,0.0,-2.3106,-2.3106,-2.3106,-2.2918,-2.2613,-2.2606,-2.2738,-2.2918,-2.2668,-2.2543,-2.2543,-2.2237,-2.2048,-2.2048,-2.2048,-2.1985,-2.1922,0.0,0.0,-2.1874,-2.1303,-2.1046,-2.0948,-2.0378,-2.0162,-2.0162,-2.0162,-2.0162,-2.0162,-2.0162,-1.9989,-1.97,-1.9482,-1.8971,-1.849,-1.849,-1.8063,-1.7582,-1.7582,-1.7582,-1.7582,-1.7582,-1.7582,-1.7582,-1.7582,-1.5802,-1.4078,-1.4078,-1.2309,-1.0692,-1.0692,-1.0692,-1.0692,-1.0692,-1.0692,-1.0692,-1.0692,-1.0692,-1.0692,-1.0692,-1.0692,-1.0692,-1.0692,-1.0692,-1.0692,-1.0692,-1.0692,-1.0692,-1.0692,-1.0692,-1.0692,-1.0692,-1.0692,-1.0692,-1.0692,-1.0692,-1.0692,-1.0692,-0.9831,-0.9412,-0.9257,-0.7649,-0.6859,-0.9714,-1.1278,-1.2245,-1.0805,-1.1139,-1.1868,-1.2087,0.0,0.0,0.0,0.0,0.0,0.0,-1.5396,-1.614,0.0,0.0,0.0,0.0,0.0,0.0,0.0,0.0,0.0,0.0,0.0,0.0,0.0,0.0,-2.3106,-2.3106,-2.3106,-2.2918,-2.2613,-2.2606,-2.248,-2.2237,-2.2174,-2.2174,-2.2174,-2.2111,-2.1922,-2.167,-2.167,-2.1544,-2.1235,0.0,-2.1094,-2.0901,-2.0496,-2.0207,-2.0011,-1.9668,-1.954,-1.954,-1.954,-1.954,-1.954,-1.954,-1.9482,-1.9424,-1.9424,-1.8971,-1.849,-1.849,-1.8063,-1.7582,-1.7582,-1.7582,-1.7582,-1.7582,-1.7582,-1.7582,-1.7582,-1.5802,-1.4078,-1.4078,-1.2309,-1.0692,-1.0692,-1.0692,-1.0692,-1.0692,-1.0692,-1.0692,-1.0692,-1.0692,-1.0692,-1.0692,-1.0692,-1.0692,-1.0692,-1.0692,-1.0692,-1.0692,-1.0692,-1.0692,-1.0692,-1.0692,-1.0692,-1.0692,-1.0692,-1.0692,-1.0692,-1.0692,-1.0692,-1.0692,-0.9947,-0.918,-0.8354,-0.7538,-0.6696,-0.808,-0.9304,-1.0213,-0.9533,-1.153,-1.3702,-1.3971,-1.3515,0.0,0.0,0.0,0.0,0.0,0.0,-1.6912,0.0,0.0,0.0,0.0,0.0,0.0,0.0,0.0,0.0,0.0,0.0,0.0,0.0,0.0,0.0,-2.2863,-2.2675,-2.2425,-2.2048,-2.2048,-2.1922,-2.1544,-2.1544,-2.167,-2.1859,-2.167,-2.1488,-2.1362,-2.1362,-2.1148,-2.0875,0.0,-2.0708,-2.0414,-2.012,-1.992,-1.9773,-1.9479,-1.9424,-1.9424,-1.9424,-1.9424,-1.9424,-1.9424,-1.9424,-1.9424,-1.9424,-1.8971,-1.849,-1.849,-1.8063,-1.7582,-1.7582,-1.7582,-1.7582,-1.7582,-1.7582,-1.7582,-1.7582,-1.5802,-1.4078,-1.4078,-1.2309,-1.0692,-1.0692,-1.0692,-1.0692,-1.0692,-1.0692,-1.0692,-1.0692,-1.0692,-1.0692,-1.0692,-1.0692,-1.0692,-1.0692,-1.0692,-1.0692,-1.0692,-1.0692,-1.0692,-1.0692,-1.0692,-1.0692,-1.0692,-1.0692,-1.0692,-1.0692,-1.0692,-1.0741,-1.0842,-0.9507,-0.8714,-0.8402,-0.7047,-0.6228,-0.6759,-0.7731,-0.8714,-0.9274,0.0,-1.4547,-1.5254,-1.4649,0.0,0.0,0.0,0.0,0.0,0.0,0.0,0.0,0.0,0.0,0.0,0.0,0.0,0.0,0.0,0.0,0.0,0.0,0.0,0.0,0.0,0.0,-2.2487,-2.223,-2.1922,-2.1607,-2.1607,-2.1418,-2.1109,-2.1109,-2.1235,-2.1488,-2.1235,-2.1109,-2.1109,-2.1036,-2.0882,-2.0675,-2.0601,-2.0401,-2.0114,-1.9887,-1.976,-1.9679,-1.9452,-1.9424,-1.9424,-1.9424,-1.9424,-1.9424,-1.9424,-1.9424,-1.9424,-1.9424,-1.8971,-1.849,-1.849,-1.8063,-1.7582,-1.7582,-1.7582,-1.7582,-1.7582,-1.7582,-1.7529,-1.7259,-1.5589,-1.4024,-1.376,-1.2146,-1.0692,-1.0692,-1.0692,-1.0692,-1.0692,-1.0692,-1.0692,-1.0692,-1.0692,-1.0692,-1.0692,-1.0692,-1.0692,-1.0692,-1.0692,-1.0692,-1.0692,-1.0692,-1.0692,-1.0692,-1.0692,-1.0692,-1.0692,-1.0692,-1.0692,-1.0692,-1.0737,-1.0715,-1.0626,-0.9272,-0.8497,-0.823,-0.682,-0.6092,-0.706,-0.7996,-0.8966,-1.0466,-1.0917,0.0,-1.3553,-1.3176,0.0,-1.5005,0.0,0.0,0.0,0.0,0.0,0.0,0.0,0.0,0.0,0.0,0.0,0.0,0.0,0.0,0.0,0.0,0.0,0.0,0.0,0.0,-2.2174,-2.2104,-2.1922,-2.1607,-2.1607,-2.1418,-2.1109,-2.1109,-2.1109,-2.1109,-2.1109,-2.1109,-2.1096,-2.0828,-2.0695,-2.0661,-2.0381,-2.01,-1.9826,-1.9806,-1.9639,-1.9457,-1.943,-1.9424,-1.9424,-1.9424,-1.9424,-1.9424,-1.9424,-1.9424,-1.9424,-1.9424,-1.8971,-1.849,-1.849,-1.8063,-1.7582,-1.7582,-1.7582,-1.7582,-1.7582,-1.7582,-1.7312,-1.6287,-1.5049,-1.3814,-1.2738,-1.1555,-1.0692,-1.0692,-1.0692,-1.0692,-1.0692,-1.0692,-1.0692,-1.0692,-1.0692,-1.0692,-1.0692,-1.0692,-1.0692,-1.0692,-1.0692,-1.0692,-1.0692,-1.0692,-1.0692,-1.0692,-1.0692,-1.0692,-1.0692,-1.0692,-1.0692,-1.0692,-1.0858,-1.0554,-0.9599,-0.9771,-0.8975,-0.7215,-0.7253,-0.6759,-0.6142,-0.7339,-0.8568,-0.9174,-0.9963,0.0,0.0,-1.4359,-1.4454,-1.6317,-1.6907,0.0,0.0,0.0,0.0,0.0,0.0,0.0,0.0,0.0,0.0,0.0,0.0,0.0,0.0,0.0,0.0,0.0,0.0,0.0,-2.1796,-2.1607,-2.1337,-2.1029,-2.1029,-2.0873,-2.0568,-2.0568,-2.0116,-1.9361,-2.0362,-2.0453,-1.9669,-1.9329,-1.868,-1.7783,-1.8476,-1.8637,-1.8444,-1.9226,-1.9466,-1.9424,-1.9424,-1.9424,-1.9424,-1.9424,-1.9424,-1.9424,-1.9424,-1.9424,-1.9397,-1.9152,-1.8818,-1.8457,-1.827,-1.7916,-1.7582,-1.7582,-1.7582,-1.7582,-1.7582,-1.7582,-1.7312,-1.618,-1.4995,-1.3809,-1.263,-1.15,-1.0692,-1.0692,-1.0692,-1.0692,-1.0692,-1.0692,-1.0692,-1.0692,-1.0692,-1.0692,-1.0692,-1.0692,-1.0692,-1.0692,-1.0692,-1.0692,-1.0692,-1.0692,-1.0692,-1.0692,-1.0692,-1.0692,-1.0692,-1.0692,-1.0692,-1.0692,-1.0875,-1.0564,-0.9691,-0.9317,-0.8504,-0.7253,-0.675,-0.6283,-0.6024,-0.7046,-0.8181,-0.8573,0.0,0.0,-1.4145,-1.4569,-1.4812,-1.6741,-1.6605,0.0,0.0,0.0,0.0,0.0,0.0,0.0,0.0,0.0,0.0,0.0,0.0,0.0,0.0,0.0,0.0,0.0,0.0,0.0,0.0,-2.0953,-2.0742,-2.0541,-2.0535,-2.0441,-2.0173,-2.0173,-1.9546,-1.8294,-1.9337,-1.9186,-1.8063,-1.8111,-1.741,-1.6035,-1.686,-1.7084,-1.6985,-1.7818,-1.8415,-1.8829,-1.9243,-1.9424,-1.9424,-1.9424,-1.9424,-1.9424,-1.9424,-1.9424,-1.9332,-1.9132,-1.8804,-1.8457,-1.825,-1.7903,-1.7582,-1.7582,-1.7582,-1.7529,-1.7153,-1.7312,-1.7206,-1.5695,-1.4728,-1.3706,-1.22,-1.1232,-1.0692,-1.0692,-1.0692,-1.0692,-1.0692,-1.0692,-1.0692,-1.0692,-1.0692,-1.0692,-1.0692,-1.0692,-1.0692,-1.0692,-1.0692,-1.0692,-1.0692,-1.0692,-1.0692,-1.0692,-1.0692,-1.0692,-1.0692,-1.0692,-1.072,-1.0777,-1.0956,-1.0505,-0.9445,-0.8938,-0.8087,-0.6888,-0.6221,-0.5916,-0.7043,-0.7355,-0.792,0.0,0.0,0.0,-1.2986,-1.3201,-1.343,-1.5943,0.0,-1.3819,-1.8453,0.0,0.0,0.0,0.0,0.0,0.0,0.0,0.0,0.0,0.0,0.0,0.0,0.0,0.0,0.0,0.0,0.0,0.0,-2.0173,-2.0173,-2.0227,-2.0227,-2.0167,-2.0167,-2.0167,-1.954,-1.8282,-1.8022,-1.7369,-1.6382,-1.7418,-1.7181,-1.5963,-1.5671,-1.5569,-1.5569,-1.5569,-1.6338,-1.763,-1.8887,-1.9366,-1.9424,-1.9424,-1.9424,-1.9424,-1.9366,-1.9366,-1.9424,-1.9359,-1.8965,-1.849,-1.849,-1.8063,-1.7582,-1.7582,-1.7582,-1.7312,-1.618,-1.6717,-1.6988,-1.462,-1.4078,-1.3437,-1.1177,-1.0692,-1.0692,-1.0692,-1.0692,-1.0692,-1.0692,-1.0692,-1.0692,-1.0692,-1.0692,-1.0692,-1.0692,-1.0692,-1.0692,-1.0692,-1.0692,-1.0692,-1.0692,-1.0692,-1.0692,-1.0692,-1.0692,-1.0692,-1.0692,-1.0692,-1.0781,-1.102,-1.1139,-1.0321,-0.8587,-0.8715,-0.7803,-0.5916,-0.5916,-0.5916,-0.628,-0.7212,0.0,-0.8418,0.0,0.0,0.0,-1.2408,0.0,0.0,0.0,-1.5846,-1.7692,0.0,0.0,0.0,0.0,0.0,0.0,0.0,0.0,0.0,0.0,0.0,0.0,0.0,0.0,0.0,0.0,0.0,0.0,-2.0173,-2.014,-1.9933,-1.9927,-1.9826,-1.9626,-1.9626,-1.8538,-1.6433,-1.725,-1.6623,-1.4789,-1.4872,-1.4235,-1.311,-1.3937,-1.4262,-1.4321,-1.5213,-1.6338,-1.7513,-1.7929,-1.859,-1.9424,-1.9424,-1.9424,-1.9243,-1.835,-1.8648,-1.9216,-1.8058,-1.8044,-1.845,-1.8243,-1.7352,-1.6399,-1.6399,-1.6399,-1.634,-1.5968,-1.6127,-1.5802,-1.3437,-1.2896,-1.2521,-1.1017,-1.0692,-1.0692,-1.0692,-1.0692,-1.0692,-1.0692,-1.0692,-1.0692,-1.0692,-1.0692,-1.0692,-1.0692,-1.0692,-1.0692,-1.0692,-1.0692,-1.0692,-1.0692,-1.0692,-1.0692,-1.0692,-1.0692,-1.0692,-1.0692,-1.0818,-1.0915,-1.1024,-1.1265,-1.0498,-0.8587,-0.8715,-0.7803,-0.5916,-0.5916,-0.5916,-0.6903,-0.786,0.0,-0.9165,-0.9742,-1.0518,-1.1574,0.0,0.0,0.0,0.0,-1.5817,0.0,0.0,0.0,0.0,0.0,0.0,0.0,0.0,0.0,0.0,0.0,0.0,0.0,0.0,0.0,0.0,0.0,0.0,0.0,-1.9887,-1.9806,-1.9633,-1.9142,-1.8816,-1.8648,-1.8117,-1.6873,-1.4857,-1.5618,-1.4984,-1.3191,-1.3546,-1.302,-1.1837,-1.2603,-1.296,-1.302,-1.4326,-1.5628,-1.6809,-1.7279,-1.8292,-1.9424,-1.9424,-1.9068,-1.8532,-1.7753,-1.7695,-1.7717,-1.668,-1.6654,-1.7018,-1.674,-1.5911,-1.5049,-1.5049,-1.4942,-1.4781,-1.4293,-1.4132,-1.397,-1.3275,-1.2738,-1.2091,-1.0962,-1.0692,-1.0692,-1.0692,-1.0692,-1.0692,-1.0692,-1.0692,-1.0692,-1.0692,-1.0692,-1.0692,-1.0692,-1.0692,-1.0692,-1.0692,-1.0692,-1.0692,-1.0692,-1.0692,-1.0692,-1.0692,-1.0692,-1.0724,-1.0798,-1.0967,-1.1033,-1.1175,-1.139,-1.0576,-0.8663,-0.8739,-0.7678,-0.5483,-0.5483,-0.536,-0.8197,0.0,0.0,-1.0692,-1.0313,0.0,-1.0757,-1.2142,-1.3697,-1.5489,0.0,0.0,0.0,0.0,0.0,0.0,0.0,0.0,0.0,0.0,0.0,0.0,0.0,0.0,0.0,0.0,0.0,0.0,0.0,0.0,0.0,-1.9307,-1.9249,-1.9249,-1.7994,-1.7337,-1.7337,-1.6161,-1.4976,-1.3665,-1.3665,-1.2955,-1.1776,-1.2955,-1.29,-1.1776,-1.1776,-1.1776,-1.1833,-1.2955,-1.4202,-1.5451,-1.6744,-1.7994,-1.9127,-1.9249,-1.8512,-1.7354,-1.7243,-1.6463,-1.5408,-1.513,-1.49,-1.4778,-1.4557,-1.4048,-1.348,-1.348,-1.3324,-1.2891,-1.1755,-1.1487,-1.1919,-1.3485,-1.3009,-1.1932,-1.0907,-1.0692,-1.0692,-1.0692,-1.0692,-1.0692,-1.0692,-1.0692,-1.0692,-1.0692,-1.0692,-1.0692,-1.0692,-1.0692,-1.0692,-1.0692,-1.0692,-1.0692,-1.0692,-1.0692,-1.0692,-1.0692,-1.0692,-1.0773,-1.0904,-1.0984,-1.1151,-1.1492,-1.1457,-1.052,-0.8714,-0.8653,-0.7309,-0.4803,-0.4803,-0.4496,-0.7234,-0.7922,0.0,0.0,-1.0201,-1.0513,-1.0708,-1.117,-1.1633,-1.2214,-1.2731,0.0,0.0,0.0,0.0,0.0,0.0,0.0,0.0,0.0,0.0,0.0,0.0,0.0,0.0,0.0,0.0,0.0,0.0,0.0,-1.9424,-1.8467,-1.7929,-1.7929,-1.6691,-1.5983,-1.5983,-1.5752,-1.4852,0.0,-1.3301,-1.2526,-1.1035,-1.1824,-1.2074,-1.1776,-1.1522,-1.1398,-1.1398,-1.139,-1.2165,-1.3476,-1.4723,-1.6031,-1.7226,-1.824,-1.7741,-1.6443,-1.5406,-1.4751,-1.4235,-1.3227,-1.3348,-1.3937,-1.3885,-1.3003,-1.1973,-1.1973,-1.1919,-1.181,-1.1596,-1.1487,-1.1592,-1.1973,-1.1387,-1.0743,-1.0692,-1.0692,-1.0692,-1.0692,-1.0692,-1.0692,-1.0692,-1.0692,-1.0692,-1.0692,-1.0692,-1.0692,-1.0692,-1.0692,-1.0692,-1.0692,-1.0692,-1.0692,-1.0692,-1.0692,-1.0637,-1.0421,-1.0582,-1.0603,-1.0273,-1.0862,-1.1273,-1.1496,-1.0857,-0.9721,-0.8102,-0.7307,-0.5963,-0.4127,-0.4127,-0.4067,-0.7233,0.0,0.0,-0.964,0.0,-1.059,-1.0672,-1.0765,-1.0863,-1.0952,0.0,0.0,0.0,0.0,0.0,0.0,0.0,0.0,0.0,0.0,0.0,0.0,0.0,0.0,0.0,0.0,0.0,0.0,0.0,-1.8975,-1.8519,-1.787,-1.722,-1.6632,-1.5332,-1.4679,-1.4679,-1.4093,-1.325,-1.2286,-1.2286,-1.1748,-1.0789,-1.1156,-1.1345,-1.1281,-1.1156,-1.1031,-1.1023,-1.0827,-1.1491,-1.2749,-1.3364,-1.4803,-1.655,-1.7083,-1.6484,-1.5308,-1.4505,-1.3351,-1.2157,-1.1448,-1.1577,-1.1977,-1.1884,-1.119,-1.0515,-1.0515,-1.0406,-1.0241,-1.0241,-1.0241,-1.0296,-1.046,-1.0249,-1.0091,-1.0253,-1.0257,-1.0257,-1.0257,-1.0257,-1.0257,-1.0257,-1.0257,-1.0308,-1.0472,-1.0527,-1.0472,-1.0308,-1.0417,-1.0472,-1.0308,-1.0257,-1.0257,-1.0257,-1.0257,-1.0198,-1.0091,-1.0202,-1.022,-1.01,-1.0555,-1.0848,-1.1083,-1.0711,-0.9569,-0.7675,-0.7126,-0.572,-0.3453,-0.3453,-0.3268,-0.7347,0.0,-0.889,-0.9877,-1.0253,0.0,-1.0615,-1.0672,-1.0692,0.0,0.0,0.0,0.0,0.0,0.0,0.0,0.0,0.0,0.0,0.0,0.0,0.0,0.0,0.0,0.0,0.0,0.0,0.0,0.0,-1.8218,-1.7428,-1.6967,-1.6222,-1.5213,-1.3904,-1.3186,-1.3186,-1.2122,-1.1466,-1.1152,-1.1091,-1.091,-1.0607,-1.0607,-1.0668,-1.0785,-1.0699,-1.0688,-1.0676,-1.0458,-1.1055,-1.2167,-1.2244,-1.362,-1.5589,-1.5624,-1.4834,-1.3803,-1.3554,-1.1995,-1.0025,-0.9942,-0.9901,-0.9876,-0.9691,-0.9485,-0.9323,-0.9323,-0.9103,-0.8885,-0.8885,-0.8885,-0.8995,-0.9268,-0.9485,-0.9651,-0.9761,-0.9816,-0.9816,-0.9816,-0.9816,-0.9816,-0.9816,-0.9816,-0.9871,-1.0147,-1.0202,-1.0091,-0.9816,-1.0036,-1.0091,-0.9816,-0.9816,-0.9816,-0.9816,-0.9816,-0.9761,-0.9706,-0.9761,-0.9832,-0.9934,-1.01,-1.0266,-1.0436,-1.053,-0.9447,-0.7248,-0.7065,-0.5536,-0.2838,-0.2838,-0.2531,0.0,0.0,-0.8934,0.0,-1.0019,-1.0387,0.0,0.0,-1.0692,0.0,0.0,0.0,0.0,0.0,0.0,0.0,0.0,0.0,0.0,0.0,0.0,0.0,0.0,0.0,0.0,0.0,0.0,0.0,-1.7639,-1.7071,-1.7092,-1.4834,-1.352,-1.3531,-1.1985,-1.1209,-1.1209,-1.1031,-1.0793,-1.0425,-1.0122,-1.0001,-0.994,-0.994,-1.0243,-1.0781,-1.0348,-1.0171,-1.0157,-0.9707,-0.9655,-0.9957,-1.1021,-1.1656,-1.2135,-1.3193,-1.2734,-1.1525,-1.15,-1.044,-0.9106,-0.9085,-0.9078,-0.9071,-0.9054,-0.8992,-0.8995,-0.8995,-0.8937,-0.8885,-0.8885,-0.8885,-0.8885,-0.894,-0.8992,-0.9158,-0.9706,-0.9816,-0.9816,-0.9816,-0.9816,-0.9816,-0.9816,-0.9816,-0.9816,-0.9871,-0.9871,-0.9871,-0.9816,-0.9816,-0.9871,-0.9816,-0.9816,-0.9816,-0.9816,-0.9816,-0.9706,-0.9489,-0.9651,-0.9665,-0.9317,-0.9699,-0.9799,-0.9727,-0.957,-0.8532,-0.6505,-0.5655,-0.4189,-0.2161,-0.2161,-0.2099,-0.6753,-0.7679,-0.8572,0.0,-0.9756,-0.9983,-1.0237,0.0,0.0,0.0,0.0,0.0,0.0,0.0,0.0,0.0,0.0,0.0,0.0,0.0,0.0,0.0,0.0,0.0,0.0,0.0,0.0,0.0,-1.5372,-1.4863,-1.436,-1.3169,-1.2231,-1.1565,-1.0867,-1.0517,-1.0517,-1.0517,-1.0399,-1.0048,-0.9752,-0.9574,-0.9574,-0.9574,-0.9797,-1.0116,-0.9933,-0.9797,-0.9703,-0.9432,-0.9303,-0.9429,-0.991,-1.0608,-1.1368,-1.1772,-1.1577,-1.1108,-1.0941,-1.0034,-0.8885,-0.8885,-0.8885,-0.8885,-0.8885,-0.8885,-0.8885,-0.8885,-0.8885,-0.8885,-0.8885,-0.8885,-0.8885,-0.8885,-0.8885,-0.8992,-0.9213,-0.9323,-0.9323,-0.9323,-0.9323,-0.9379,-0.9541,-0.9434,-0.9379,-0.9541,-0.9599,-0.9489,-0.9323,-0.9434,-0.9489,-0.9323,-0.9323,-0.9323,-0.9323,-0.9323,-0.9268,-0.9103,-0.9213,-0.9241,-0.9028,-0.937,-0.9528,-0.9479,-0.9526,-0.841,-0.6139,-0.5653,-0.4247,-0.1977,-0.1977,-0.1977,0.0,0.0,-0.7923,-0.8958,-0.9356,-0.9587,0.0,0.0,0.0,0.0,0.0,0.0,0.0,0.0,0.0,0.0,0.0,0.0,0.0,0.0,0.0,0.0,0.0,0.0,0.0,0.0,0.0,0.0,-1.3287,-1.2836,-1.2157,-1.1767,-1.111,-1.0243,-1.0131,-1.0073,-1.0073,-1.0073,-0.9957,-0.9787,-0.9497,-0.9381,-0.9381,-0.9381,-0.9422,-0.9493,-0.9493,-0.9429,-0.931,-0.9161,-0.9167,-0.9259,-0.9144,-0.9783,-1.0664,-1.0482,-1.044,-1.0532,-1.0284,-0.9644,-0.8885,-0.8885,-0.8885,-0.8885,-0.8885,-0.8885,-0.8885,-0.8885,-0.8885,-0.8885,-0.8885,-0.8885,-0.8885,-0.8885,-0.8885,-0.8885,-0.8885,-0.8885,-0.8885,-0.8885,-0.8885,-0.8992,-0.9213,-0.9051,-0.8992,-0.9213,-0.9268,-0.9158,-0.8937,-0.9103,-0.9158,-0.8937,-0.8885,-0.8885,-0.8885,-0.8885,-0.8885,-0.8885,-0.8885,-0.8898,-0.8991,-0.9242,-0.9398,-0.9439,-0.969,-0.8653,-0.6385,-0.608,-0.4735,-0.2468,-0.2161,-0.1977,0.0,-0.6384,0.0,-0.787,-0.8613,0.0,0.0,0.0,0.0,0.0,0.0,0.0,0.0,0.0,0.0,0.0,0.0,0.0,0.0,0.0,0.0,0.0,0.0,0.0,0.0,0.0,0.0,0.0,-1.2259,-1.1698,-1.1789,-1.051,-0.9795,-0.9896,-0.9613,-0.9439,-0.9439,-0.9439,-0.9439,-0.9439,-0.9381,-0.9381,-0.9381,-0.9381,-0.9306,-0.9234,-0.9234,-0.9228,-0.921,-0.9011,-0.8898,-0.8905,-0.8898,-0.8954,-0.9016,-0.9009,-0.9006,-0.9006,-0.8995,-0.8937,-0.8885,-0.8885,-0.8885,-0.8885,-0.8885,-0.8885,-0.8885,-0.8885,-0.8885,-0.8885,-0.8885,-0.8885,-0.8885,-0.8885,-0.8885,-0.8885,-0.8885,-0.8885,-0.8885,-0.8885,-0.8885,-0.8885,-0.894,-0.894,-0.8885,-0.894,-0.8937,-0.894,-0.8885,-0.894,-0.894,-0.8885,-0.8885,-0.8885,-0.8885,-0.8885,-0.8885,-0.8885,-0.8885,-0.8998,-0.9193,-0.9296,-0.9449,-0.9595,-0.9744,-0.9147,-0.7795,-0.651,-0.5161,-0.3753,-0.259,-0.1977,0.0,0.0,0.0,-0.7313,-0.7959,-0.8467,0.0,0.0,0.0,0.0,0.0,0.0,0.0,0.0,0.0,0.0,0.0,0.0,0.0,0.0,0.0,0.0,0.0,0.0,0.0,0.0,0.0,0.0,0.0,-0.989,-0.995,-0.9457,-0.9206,-0.9265,-0.9152,-0.91,-0.91,-0.91,-0.91,-0.91,-0.91,-0.91,-0.91,-0.91,-0.9069,-0.9015,-0.9015,-0.9015,-0.9011,-0.8905,-0.8885,-0.8885,-0.8885,-0.8885,-0.8885,-0.8885,-0.8885,-0.8885,-0.8885,-0.8885,-0.8885,-0.8885,-0.8885,-0.8885,-0.8885,-0.8885,-0.8885,-0.8885,-0.8885,-0.8885,-0.8885,-0.8885,-0.8885,-0.8885,-0.8885,-0.8885,-0.8885,-0.8885,-0.8885,-0.8885,-0.8885,-0.8885,-0.8885,-0.8885,-0.8885,-0.8885,-0.8885,-0.8885,-0.8885,-0.8885,-0.8885,-0.8885,-0.8885,-0.8885,-0.8885,-0.8885,-0.8885,-0.8885,-0.8885,-0.8905,-0.9015,-0.9249,-0.9408,-0.9462,-0.97,-0.9147,-0.7917,-0.6569,-0.5223,-0.3875,-0.259,-0.1977,-0.5393,0.0,0.0,0.0,0.0,-0.7728,0.0,0.0,0.0,0.0,0.0,0.0,0.0,0.0,0.0,0.0,0.0,0.0,0.0,0.0,0.0,0.0,0.0,0.0,0.0,0.0,0.0,0.0,0.0,0.0,-0.8885,-0.8885,-0.8885,-0.8885,-0.8885,-0.8885,-0.8885,-0.8885,-0.8885,-0.8885,-0.8885,-0.8885,-0.8885,-0.8885,-0.8885,-0.8885,-0.8885,-0.8885,-0.8885,-0.8885,-0.8885,-0.8885,-0.8885,-0.8885,-0.8885,-0.8885,-0.8885,-0.8885,-0.8885,-0.8885,-0.8885,-0.8885,-0.8885,-0.8885,-0.8885,-0.8885,-0.8885,-0.8885,-0.8885,-0.8885,-0.8885,-0.8885,-0.8885,-0.8885,-0.8885,-0.8885,-0.8885,-0.8885,-0.8885,-0.8885,-0.8885,-0.8885,-0.8885,-0.8885,-0.8885,-0.8885,-0.8885,-0.8885,-0.8885,-0.8885,-0.8885,-0.8885,-0.8885,-0.8885,-0.8885,-0.8885,-0.8885,-0.8885,-0.8885,-0.8905,-0.9008,-0.9249,-0.9405,-0.9456,-0.9696,-0.939,-0.8532,-0.6754,-0.5468,-0.455,-0.2775,-0.1977,0.0,0.0,0.0,0.0,0.0,0.0,0.0,0.0,0.0,0.0,0.0,0.0,0.0,0.0,0.0,0.0,0.0,0.0,0.0,0.0,0.0,0.0,0.0,0.0,0.0,0.0,0.0,0.0,-0.8885,-0.8885,-0.8885,-0.8885,-0.8885,-0.8885,-0.8885,-0.8885,-0.8885,-0.8885,-0.8885,-0.8885,-0.8885,-0.8885,-0.8885,-0.8885,-0.8885,-0.8885,-0.8885,-0.8885,-0.8885,-0.8885,-0.8885,-0.8885,-0.8885,-0.8885,-0.8885,-0.8885,-0.8885,-0.8885,-0.8885,-0.8885,-0.8885,-0.8885,-0.8885,-0.8885,-0.8885,-0.8885,-0.8885,-0.8885,-0.8885,-0.8885,-0.8885,-0.8885,-0.8885,-0.8885,-0.8885,-0.8885,-0.8885,-0.8885,-0.8885,-0.8885,-0.8885,-0.8885,-0.8885,-0.8885,-0.8885,-0.8885,-0.8885,-0.8885,-0.8885,-0.8885,-0.8885,-0.8885,-0.8885,-0.8885,-0.8885,-0.8885,-0.8885,-0.8885,-0.8885,-0.9001,-0.9204,-0.93,-0.9452,-0.9605,-0.9747,-0.9822,-0.9822,-0.7182,-0.5896,-0.5835,-0.3204,-0.1977,-0.5039,0.0,0.0,0.0,0.0,0.0,0.0,0.0,0.0,0.0,0.0,0.0,0.0,0.0,0.0,0.0,0.0,0.0,0.0,0.0,0.0,0.0,0.0,0.0,0.0,0.0,0.0,0.0,-0.8885,-0.8885,-0.8885,-0.8885,-0.8885,-0.8885,-0.8885,-0.8885,-0.8885,-0.8885,-0.8885,-0.8885,-0.8885,-0.8885,-0.8885,-0.8885,-0.8885,-0.8885,-0.8885,-0.8885,-0.8885,-0.8885,-0.8885,-0.8885,-0.8885,-0.8885,-0.8885,-0.8885,-0.8885,-0.8885,-0.8885,-0.8885,-0.8885,-0.8885,-0.8885,-0.8885,-0.8885,-0.8885,-0.8885,-0.8885,-0.8885,-0.8885,-0.8885,-0.8885,-0.8885,-0.8885,-0.8885,-0.8885,-0.8885,-0.8885,-0.8885,-0.8885,-0.8885,-0.8885,-0.8885,-0.8885,-0.8885,-0.8885,-0.8885,-0.8885,-0.8885,-0.8885,-0.8885,-0.8885,-0.8885,-0.8885,-0.8885,-0.8885,-0.8885,-0.8885,-0.8885,-0.9001,-0.9204,-0.93,-0.9452,-0.9605,-0.9747,-0.9822,-0.9822,-0.7182,-0.5896,-0.5835,-0.3204,-0.1977,0.0,0.0,0.0,0.0,0.0,0.0,0.0,-0.6362,0.0,0.0,0.0,0.0,0.0,0.0,0.0,0.0,0.0,0.0,0.0,0.0,0.0,0.0,0.0,0.0,0.0,-0.8571,-0.8649,-0.8709,-0.8826,-0.8885,-0.8885,-0.8885,-0.8885,-0.8885,-0.8885,-0.8885,-0.8885,-0.8885,-0.8885,-0.8885,-0.8885,-0.8885,-0.8885,-0.8885,-0.8885,-0.8885,-0.8885,-0.8885,-0.8885,-0.8885,-0.8885,-0.8885,-0.8885,-0.8885,-0.8885,-0.8885,-0.8885,-0.8885,-0.8885,-0.8885,-0.8885,-0.8885,-0.8885,-0.8885,-0.8885,-0.8885,-0.8885,-0.8885,-0.8885,-0.8885,-0.8885,-0.8885,-0.8885,-0.8885,-0.8885,-0.8885,-0.8885,-0.8885,-0.8885,-0.8885,-0.8885,-0.8885,-0.8885,-0.8885,-0.8885,-0.8885,-0.8885,-0.8885,-0.8885,-0.8885,-0.8885,-0.8885,-0.8885,-0.8885,-0.8885,-0.8885,-0.8885,-0.8885,-0.8885,-0.9001,-0.9204,-0.93,-0.9452,-0.9605,-0.9747,-0.9268,-0.8163,-0.663,-0.5347,-0.4246,-0.2715,-0.1977,-0.5571,-0.5653,0.0,0.0,0.0,0.0,-0.6562,-0.6251,-0.599,0.0,0.0,0.0,0.0,0.0,0.0,0.0,0.0,0.0,0.0,0.0,0.0,0.0,0.0,0.0,-0.7863,-0.8094,-0.831,-0.8375,-0.8624,-0.8809,-0.8826,-0.8826,-0.8881,-0.8881,-0.8881,-0.8885,-0.8885,-0.8885,-0.8885,-0.8885,-0.8885,-0.8885,-0.8885,-0.8885,-0.8885,-0.8885,-0.8885,-0.8885,-0.8885,-0.8885,-0.8885,-0.8885,-0.8885,-0.8885,-0.8885,-0.8885,-0.8885,-0.8885,-0.8885,-0.8885,-0.8885,-0.8885,-0.8885,-0.8885,-0.8885,-0.8885,-0.8885,-0.8885,-0.8885,-0.8885,-0.8885,-0.8885,-0.8885,-0.8885,-0.8885,-0.8885,-0.8885,-0.8885,-0.8885,-0.8885,-0.8885,-0.8885,-0.8885,-0.8885,-0.8885,-0.8885,-0.8885,-0.8885,-0.8885,-0.8885,-0.8885,-0.8885,-0.8885,-0.8885,-0.8885,-0.8885,-0.8885,-0.8885,-0.8885,-0.9001,-0.9204,-0.934,-0.9435,-0.9605,-0.9566,-0.8346,-0.5896,-0.5774,-0.443,-0.1977,-0.1977,-0.1977,-0.653,-0.6373,-0.6221,-0.6056,0.0,0.0,-0.5408,-0.5392,-0.5514,0.0,0.0,0.0,0.0,0.0,0.0,0.0,0.0,0.0,0.0,0.0,0.0,0.0,0.0,0.0,-0.774,-0.7796,-0.7806,-0.7833,-0.7986,-0.8096,-0.8149,-0.8432,-0.8598,-0.8598,-0.8771,-0.8885,-0.8885,-0.8885,-0.8885,-0.8885,-0.8885,-0.8885,-0.8885,-0.8885,-0.8885,-0.8885,-0.8885,-0.8885,-0.8885,-0.8885,-0.8885,-0.8885,-0.8885,-0.8885,-0.8885,-0.8885,-0.8885,-0.8885,-0.8885,-0.8885,-0.8885,-0.8885,-0.8885,-0.8885,-0.8885,-0.8885,-0.8885,-0.8885,-0.8885,-0.8885,-0.8885,-0.8885,-0.8885,-0.8885,-0.8885,-0.8885,-0.8885,-0.8885,-0.8885,-0.8885,-0.8885,-0.8885,-0.8885,-0.8885,-0.8885,-0.8885,-0.8885,-0.8885,-0.8885,-0.8885,-0.8885,-0.8885,-0.8885,-0.8885,-0.8885,-0.8885,-0.8885,-0.8885,-0.8885,-0.9001,-0.9204,-0.9238,-0.9327,-0.9605,-0.8712,-0.749,-0.5896,-0.4795,-0.351,-0.1977,-0.1977,-0.1977,-0.6729,-0.6555,-0.6548,-0.6273,0.0,0.0,0.0,-0.5292,-0.5239,-0.5497,0.0,0.0,0.0,0.0,0.0,0.0,0.0,0.0,0.0,0.0,0.0,0.0,0.0,0.0,-0.7177,-0.729,-0.7476,-0.77,-0.7762,-0.7857,-0.7938,-0.8108,-0.8191,-0.8263,-0.838,-0.8546,-0.8712,-0.8712,-0.8768,-0.8885,-0.8768,-0.8712,-0.8712,-0.8546,-0.8436,-0.8436,-0.8436,-0.8436,-0.8436,-0.8436,-0.8436,-0.8491,-0.8771,-0.8885,-0.8885,-0.8885,-0.8885,-0.8885,-0.8885,-0.8885,-0.8885,-0.8885,-0.8885,-0.8885,-0.8885,-0.8885,-0.8885,-0.8885,-0.8885,-0.8885,-0.8885,-0.8885,-0.8885,-0.8885,-0.8885,-0.8885,-0.8885,-0.8885,-0.8885,-0.8885,-0.8885,-0.8885,-0.8885,-0.8885,-0.8885,-0.8885,-0.8885,-0.8885,-0.8885,-0.8885,-0.8885,-0.8885,-0.8885,-0.8885,-0.8885,-0.8885,-0.8885,-0.8885,-0.8885,-0.8971,-0.9042,-0.9173,-0.9005,-0.8581,-0.7441,-0.6157,-0.4916,-0.3571,-0.2652,-0.1977,-0.1977,-0.1977,0.0,0.0,0.0,0.0,0.0,-0.5986,0.0,0.0,0.0,-0.5425,0.0,0.0,0.0,0.0,0.0,0.0,0.0,0.0,0.0,0.0,0.0,0.0,0.0,0.0,-0.6505,-0.6681,-0.6999,-0.7436,-0.741,-0.7452,-0.7684,-0.7774,-0.7838,-0.7892,-0.7977,-0.8156,-0.8374,-0.8429,-0.8488,-0.8716,-0.8488,-0.8429,-0.8374,-0.81,-0.7989,-0.7989,-0.7989,-0.7989,-0.7989,-0.7989,-0.7989,-0.8045,-0.8546,-0.8716,-0.8716,-0.8716,-0.8716,-0.8716,-0.8716,-0.8716,-0.8716,-0.8826,-0.8881,-0.8885,-0.8885,-0.8885,-0.8885,-0.8885,-0.8885,-0.8885,-0.8885,-0.8885,-0.8885,-0.8885,-0.8885,-0.8885,-0.8885,-0.8885,-0.8885,-0.8885,-0.8885,-0.8885,-0.8885,-0.8885,-0.8885,-0.8885,-0.8885,-0.8885,-0.8885,-0.8885,-0.8885,-0.8885,-0.8885,-0.8885,-0.8885,-0.8885,-0.8885,-0.8885,-0.8885,-0.8885,-0.8885,-0.9076,-0.8702,-0.7587,-0.6359,-0.5086,-0.3875,-0.2529,-0.1915,-0.1915,-0.1915,-0.1853,0.0,0.0,0.0,0.0,-0.6788,0.0,0.0,0.0,-0.5291,-0.4811,0.0,0.0,0.0,0.0,0.0,0.0,0.0,0.0,0.0,0.0,0.0,0.0,0.0,0.0,0.0,-0.5958,-0.6106,-0.6702,-0.6343,-0.6341,-0.6898,-0.7243,-0.7473,-0.7488,-0.7819,-0.8045,-0.8045,-0.8045,-0.8045,-0.81,-0.8045,-0.8045,-0.8045,-0.7989,-0.7989,-0.7989,-0.7989,-0.7989,-0.7989,-0.7989,-0.7989,-0.7989,-0.81,-0.81,-0.81,-0.81,-0.81,-0.81,-0.81,-0.81,-0.8156,-0.8432,-0.8712,-0.8885,-0.8885,-0.8885,-0.8885,-0.8885,-0.8885,-0.8885,-0.8885,-0.8885,-0.8885,-0.8885,-0.8885,-0.8885,-0.8885,-0.8885,-0.8885,-0.8885,-0.8885,-0.8885,-0.8885,-0.8885,-0.8885,-0.8885,-0.8885,-0.8885,-0.8885,-0.8885,-0.8885,-0.8885,-0.8885,-0.8885,-0.8885,-0.8885,-0.8885,-0.8885,-0.8885,-0.8885,-0.8885,-0.9076,-0.8654,-0.7463,-0.6263,-0.5086,-0.3875,-0.2343,-0.1544,-0.1544,-0.1544,-0.142,0.0,0.0,0.0,0.0,0.0,0.0,-0.5466,0.0,-0.4924,0.0,0.0,0.0,0.0,0.0,0.0,0.0,0.0,0.0,0.0,0.0,0.0,0.0,0.0,0.0,0.0,0.0,0.0,0.0,-0.5996,-0.6034,-0.6562,-0.6807,-0.6995,-0.714,-0.7359,-0.7532,-0.7771,-0.7771,-0.7826,-0.7989,-0.7826,-0.7771,-0.7771,-0.7601,-0.7543,-0.7543,-0.7543,-0.7543,-0.7543,-0.7543,-0.7543,-0.7543,-0.7543,-0.7709,-0.7989,-0.7989,-0.7989,-0.7989,-0.7989,-0.7989,-0.8045,-0.8156,-0.8266,-0.838,-0.838,-0.8491,-0.8602,-0.8436,-0.8605,-0.8881,-0.8712,-0.8771,-0.8885,-0.8885,-0.8885,-0.8885,-0.8885,-0.8885,-0.8885,-0.8885,-0.8885,-0.8885,-0.8885,-0.8885,-0.8885,-0.8885,-0.8885,-0.8885,-0.8885,-0.8885,-0.8885,-0.8885,-0.8885,-0.8885,-0.8885,-0.8885,-0.8885,-0.8885,-0.8885,-0.8885,-0.8885,-0.8994,-0.8132,-0.6299,-0.5641,-0.4363,-0.2433,-0.1597,-0.1111,-0.0926,-0.1111,-0.1112,-0.739,0.0,0.0,0.0,0.0,0.0,0.0,0.0,0.0,0.0,0.0,0.0,0.0,0.0,0.0,0.0,0.0,0.0,0.0,0.0,0.0,0.0,0.0,0.0,0.0,0.0,0.0,0.0,0.0,-0.5707,-0.6358,-0.6505,-0.6665,-0.6877,-0.695,-0.7136,-0.7445,-0.7476,-0.7604,-0.7768,-0.7604,-0.7493,-0.7493,-0.7268,-0.721,-0.721,-0.721,-0.721,-0.721,-0.721,-0.721,-0.721,-0.721,-0.7432,-0.7768,-0.7768,-0.7768,-0.7768,-0.7768,-0.7823,-0.7881,-0.7881,-0.7934,-0.7989,-0.7989,-0.8156,-0.8322,-0.8045,-0.8325,-0.8657,-0.854,-0.8654,-0.8826,-0.8881,-0.8885,-0.8885,-0.8885,-0.8885,-0.8885,-0.8885,-0.8885,-0.8885,-0.8885,-0.8885,-0.8885,-0.8885,-0.8885,-0.8885,-0.8885,-0.8885,-0.8885,-0.8885,-0.8885,-0.8885,-0.8885,-0.8885,-0.8885,-0.8885,-0.8885,-0.8881,-0.8771,-0.8491,-0.7374,-0.5325,-0.4712,-0.3374,-0.1388,-0.1042,-0.0741,-0.0494,-0.0741,-0.0803,0.0,0.0,0.0,-0.6204,0.0,0.0,0.0,0.0,-0.5001,0.0,0.0,0.0,0.0,0.0,0.0,0.0,0.0,0.0,0.0,0.0,0.0,0.0,0.0,0.0,0.0,0.0,0.0,0.0,-0.5157,0.0,-0.6273,-0.638,-0.6449,-0.6627,-0.6861,-0.6986,-0.7046,-0.7155,-0.721,-0.721,-0.721,-0.721,-0.721,-0.721,-0.721,-0.721,-0.721,-0.721,-0.721,-0.721,-0.721,-0.721,-0.721,-0.721,-0.721,-0.721,-0.721,-0.721,-0.721,-0.7379,-0.7607,-0.7607,-0.7771,-0.7989,-0.7989,-0.7989,-0.7989,-0.7989,-0.7989,-0.81,-0.8429,-0.8484,-0.8598,-0.8826,-0.8885,-0.8885,-0.8885,-0.8885,-0.8885,-0.8885,-0.8885,-0.8885,-0.8885,-0.8885,-0.8885,-0.8885,-0.8885,-0.8885,-0.8885,-0.8885,-0.8885,-0.8885,-0.8885,-0.8885,-0.8885,-0.8885,-0.8885,-0.8885,-0.8885,-0.8771,-0.854,-0.7368,-0.6193,-0.5043,-0.3553,-0.2311,-0.1388,-0.0797,-0.0494,-0.0494,-0.0494,-0.037,0.0,0.0,-0.7101,-0.6187,0.0,0.0,0.0,0.0,0.0,0.0,0.0,0.0,0.0,0.0,0.0,0.0,0.0,0.0,0.0,0.0,0.0,0.0,0.0,0.0,0.0,0.0,0.0,0.0,-0.5143,0.0,0.0,-0.6331,-0.6441,-0.6616,-0.6779,-0.6904,-0.6983,-0.7152,-0.721,-0.721,-0.721,-0.721,-0.721,-0.721,-0.721,-0.721,-0.721,-0.721,-0.721,-0.721,-0.721,-0.721,-0.721,-0.721,-0.721,-0.721,-0.721,-0.721,-0.721,-0.7265,-0.7324,-0.7324,-0.7376,-0.7487,-0.7487,-0.7601,-0.7715,-0.7546,-0.7709,-0.7989,-0.7937,-0.8045,-0.8263,-0.8543,-0.8654,-0.8712,-0.8881,-0.8885,-0.8885,-0.8885,-0.8885,-0.8885,-0.8885,-0.8885,-0.8885,-0.8885,-0.8885,-0.8885,-0.8885,-0.8885,-0.8885,-0.8885,-0.8885,-0.8885,-0.8885,-0.8885,-0.8826,-0.8654,-0.8654,-0.8488,-0.8208,-0.7033,-0.588,-0.4678,-0.3128,-0.1827,-0.0713,-0.0366,-0.0185,-0.0185,-0.0185,-0.0123,-0.7257,-0.7212,0.0,-0.6207,-0.5855,0.0,-0.4966,0.0,0.0,0.0,0.0,0.0,0.0,0.0,0.0,0.0,0.0,0.0,0.0,0.0,0.0,0.0,0.0,0.0,0.0,0.0,-0.4074,-0.4789,-0.4904,0.0,0.0,0.0,-0.6385,-0.6548,-0.6673,-0.6796,-0.6918,-0.7035,-0.7169,-0.721,-0.721,-0.721,-0.721,-0.721,-0.721,-0.721,-0.721,-0.721,-0.721,-0.721,-0.721,-0.721,-0.721,-0.721,-0.721,-0.721,-0.721,-0.721,-0.721,-0.721,-0.721,-0.721,-0.721,-0.721,-0.721,-0.7324,-0.7438,-0.7265,-0.7432,-0.7712,-0.7607,-0.7715,-0.7937,-0.8263,-0.8322,-0.8377,-0.8712,-0.8768,-0.8771,-0.8881,-0.8885,-0.8885,-0.8885,-0.8885,-0.8885,-0.8885,-0.8885,-0.8885,-0.8885,-0.8885,-0.8885,-0.8885,-0.8885,-0.8881,-0.8768,-0.8657,-0.8491,-0.8322,-0.7928,-0.7593,-0.7207,-0.5693,-0.4467,-0.3691,-0.2184,-0.1111,-0.0412,-0.0121,0.0,0.0,0.0,0.0]},{"header":{"parameterUnit":"m.s-1","parameterCategory":1,"la1":30.6,"la2":29.2853,"lo1":-89.7004,"lo2":-87.6739,"dy":0.0162,"dx":0.0183,"nx":112,"ny":82,"refTime":"2024-08-20T06:00:00:Z","depth":0,"parameterNumber":3,"parameterNumberName":"V-component_of_WINDS"},"data":[0.0,0.0,0.0,0.0,0.0,0.0,0.0,0.0,0.0,0.0,0.0,0.0,0.0,0.0,0.0,0.0,0.0,0.0,0.0,0.0,0.0,0.0,0.0,0.0,0.0,0.0,0.0,0.0,0.0,0.0,0.0,0.0,0.0,0.0,0.0,0.0,0.0,0.0,0.0,0.0,0.0,0.0,0.0,0.0,0.0,0.0,0.0,0.0,0.0,0.0,0.0,0.0,0.0,0.0,0.0,0.0,0.0,0.0,0.0,0.0,0.0,0.0,0.0,0.0,0.0,0.0,0.0,0.0,0.0,0.0,0.0,0.0,0.0,0.0,0.0,0.0,0.0,0.0,0.0,0.0,0.0,0.0,0.0,0.0,0.0,0.0,0.0,0.0,0.0,0.0,3.0131,3.3325,3.765,4.0308,4.0301,3.8457,3.6051,3.3087,0.0,0.0,0.0,0.0,0.0,0.0,0.0,0.0,0.0,0.0,0.0,0.0,0.0,0.0,0.0,0.0,0.0,0.0,0.0,0.0,0.0,0.0,0.0,0.0,0.0,0.0,0.0,0.0,0.0,0.0,0.0,0.0,0.0,0.0,0.0,0.0,0.0,0.0,0.0,0.0,0.0,0.0,0.0,0.0,0.0,0.0,0.0,0.0,0.0,0.0,0.0,0.0,0.0,0.0,0.0,0.0,0.0,0.0,0.0,0.0,0.0,0.0,0.0,0.0,0.0,0.0,0.0,0.0,0.0,0.0,0.0,0.0,0.0,0.0,0.0,0.0,0.0,0.0,0.0,0.0,0.0,0.0,0.0,0.0,0.0,0.0,0.0,0.0,0.0,0.0,0.0,0.0,0.0,0.0,0.0,0.0,0.0,0.0,0.0,0.0,0.0,0.0,0.0,0.0,3.0405,3.65,3.9029,4.0307,4.0298,3.7413,3.4806,3.3006,0.0,0.0,0.0,0.0,0.0,0.0,0.0,0.0,0.0,0.0,0.0,0.0,0.0,0.0,0.0,0.0,0.0,0.0,0.0,0.0,0.0,0.0,0.0,0.0,0.0,0.0,0.0,0.0,0.0,0.0,0.0,0.0,0.0,0.0,0.0,0.0,0.0,0.0,0.0,0.0,0.0,0.0,0.0,0.0,0.0,0.0,0.0,0.0,0.0,0.0,0.0,0.0,0.0,0.0,0.0,0.0,0.0,0.0,0.0,0.0,0.0,0.0,0.0,0.0,0.0,0.0,0.0,0.0,0.0,0.0,0.0,0.0,0.0,0.0,0.0,0.0,0.0,0.0,0.0,0.0,0.0,0.0,0.0,0.0,0.0,0.0,0.0,0.0,0.0,0.0,0.0,0.0,0.0,0.0,0.0,0.0,0.0,0.0,0.0,0.0,0.0,0.0,0.0,2.9146,3.266,3.8036,3.9271,3.9698,3.9653,3.6553,3.3935,3.2358,2.7422,0.0,0.0,0.0,0.0,0.0,0.0,0.0,0.0,0.0,0.0,0.0,0.0,0.0,0.0,0.0,0.0,0.0,0.0,0.0,0.0,0.0,0.0,0.0,0.0,0.0,0.0,0.0,0.0,0.0,0.0,0.0,0.0,0.0,0.0,0.0,0.0,0.0,0.0,0.0,0.0,0.0,0.0,0.0,0.0,0.0,0.0,0.0,0.0,0.0,0.0,0.0,0.0,0.0,0.0,0.0,0.0,0.0,0.0,0.0,0.0,0.0,0.0,0.0,0.0,0.0,0.0,0.0,0.0,0.0,0.0,0.0,0.0,0.0,0.0,0.0,0.0,0.0,0.0,0.0,0.0,0.0,0.0,0.0,0.0,0.0,0.0,0.0,0.0,0.0,0.0,0.0,0.0,0.0,0.0,0.0,0.0,0.0,0.0,0.0,0.0,0.0,0.0,3.2455,3.4666,3.852,3.8908,3.8796,3.8553,3.5438,3.2794,3.1193,2.5558,0.0,0.0,0.0,0.0,0.0,0.0,0.0,0.0,0.0,0.0,0.0,0.0,0.0,0.0,0.0,0.0,0.0,0.0,0.0,0.0,0.0,0.0,0.0,0.0,0.0,0.0,0.0,0.0,0.0,0.0,0.0,0.0,0.0,0.0,0.0,0.0,0.0,0.0,0.0,0.0,0.0,0.0,0.0,0.0,0.0,0.0,0.0,0.0,0.0,0.0,0.0,0.0,0.0,0.0,0.0,0.0,0.0,0.0,0.0,0.0,0.0,0.0,0.0,0.0,0.0,0.0,0.0,0.0,0.0,0.0,0.0,0.0,0.0,0.0,0.0,0.0,0.0,0.0,0.0,0.0,0.0,0.0,0.0,0.0,0.0,0.0,0.0,0.0,0.0,0.0,0.0,0.0,0.0,0.0,0.0,0.0,0.0,0.0,0.0,0.0,0.0,0.0,3.2602,3.5122,3.7788,3.804,3.769,3.6922,3.3681,3.1002,2.937,2.3749,0.0,0.0,0.0,0.0,0.0,0.0,0.0,0.0,0.0,0.0,0.0,0.0,0.0,0.0,0.0,0.0,0.0,0.0,0.0,0.0,0.0,0.0,0.0,0.0,0.0,0.0,0.0,0.0,0.0,0.0,0.0,0.0,0.0,0.0,0.0,0.0,0.0,0.0,0.0,0.0,0.0,0.0,0.0,0.0,0.0,0.0,0.0,0.0,0.0,0.0,0.0,0.0,0.0,0.0,0.0,0.0,0.0,0.0,0.0,0.0,0.0,0.0,0.0,0.0,0.0,0.0,0.0,0.0,0.0,0.0,0.0,0.0,0.0,0.0,0.0,0.0,0.0,0.0,0.0,0.0,0.0,0.0,0.0,0.0,0.0,0.0,0.0,0.0,0.0,0.0,0.0,0.0,0.0,0.0,0.0,0.0,0.0,0.0,0.0,0.0,0.0,0.0,3.1832,3.4372,0.0,3.7159,3.6825,3.6017,3.3294,3.0687,2.8486,0.0,0.0,0.0,0.0,0.0,0.0,0.0,0.0,0.0,0.0,0.0,0.0,0.0,0.0,0.0,0.0,0.0,0.0,0.0,0.0,0.0,0.0,0.0,0.0,0.0,0.0,0.0,0.0,0.0,0.0,0.0,0.0,0.0,0.0,0.0,0.0,0.0,0.0,0.0,0.0,0.0,0.0,0.0,0.0,0.0,0.0,0.0,0.0,0.0,0.0,0.0,0.0,0.0,0.0,0.0,0.0,0.0,0.0,0.0,0.0,0.0,0.0,0.0,0.0,0.0,0.0,0.0,0.0,0.0,0.0,0.0,0.0,0.0,0.0,0.0,0.0,0.0,0.0,0.0,0.0,0.0,0.0,0.0,0.0,0.0,0.0,0.0,0.0,0.0,0.0,0.0,0.0,0.0,0.0,0.0,0.0,0.0,0.0,0.0,0.0,0.0,0.0,2.8944,3.1549,3.3776,0.0,3.6327,3.5865,3.4769,3.2333,2.9781,2.7237,0.0,0.0,0.0,0.0,0.0,0.0,0.0,0.0,0.0,0.0,0.0,0.0,0.0,0.0,0.0,0.0,0.0,0.0,0.0,0.0,0.0,0.0,0.0,0.0,0.0,0.0,0.0,0.0,0.0,0.0,0.0,0.0,0.0,0.0,0.0,0.0,0.0,0.0,0.0,0.0,0.0,0.0,0.0,0.0,0.0,0.0,0.0,0.0,0.0,0.0,0.0,0.0,0.0,0.0,0.0,0.0,0.0,0.0,0.0,0.0,0.0,0.0,0.0,0.0,0.0,0.0,0.0,0.0,0.0,0.0,0.0,0.0,0.0,0.0,0.0,0.0,0.0,0.0,0.0,0.0,0.0,0.0,0.0,0.0,0.0,0.0,0.0,0.0,0.0,0.0,0.0,0.0,0.0,0.0,0.0,0.0,0.0,0.0,0.0,0.0,0.0,0.0,2.9832,3.1908,3.3564,3.5308,3.55,3.4788,3.3045,3.0569,2.8025,0.0,0.0,0.0,0.0,0.0,0.0,0.0,0.0,0.0,0.0,0.0,0.0,0.0,0.0,0.0,0.0,0.0,0.0,0.0,0.0,0.0,0.0,0.0,0.0,0.0,0.0,0.0,0.0,0.0,0.0,0.0,0.0,0.0,0.0,0.0,0.0,0.0,0.0,0.0,0.0,0.0,0.0,0.0,0.0,0.0,0.0,0.0,0.0,0.0,0.0,0.0,0.0,0.0,0.0,0.0,0.0,0.0,0.0,0.0,0.0,0.0,0.0,0.0,0.0,0.0,0.0,0.0,0.0,0.0,0.0,0.0,0.0,0.0,0.0,0.0,0.0,0.0,0.0,0.0,0.0,0.0,0.0,0.0,0.0,0.0,0.0,0.0,0.0,0.0,0.0,0.0,0.0,0.0,0.0,0.0,0.0,0.0,0.0,0.0,0.0,0.0,0.0,0.0,2.9844,3.194,3.3627,3.5316,3.5509,3.4783,3.3045,3.1141,2.869,2.5567,0.0,0.0,0.0,0.0,0.0,0.0,0.0,0.0,0.0,0.0,0.0,0.0,0.0,0.0,0.0,0.0,0.0,0.0,0.0,0.0,0.0,0.0,0.0,0.0,0.0,0.0,0.0,0.0,0.0,0.0,0.0,0.0,0.0,0.0,0.0,0.0,0.0,0.0,0.0,0.0,0.0,0.0,0.0,0.0,0.0,0.0,0.0,0.0,0.0,0.0,0.0,0.0,0.0,0.0,0.0,0.0,0.0,0.0,0.0,0.0,0.0,0.0,0.0,0.0,0.0,0.0,0.0,0.0,0.0,0.0,0.0,0.0,0.0,0.0,0.0,0.0,0.0,0.0,0.0,0.0,0.0,0.0,0.0,0.0,0.0,0.0,0.0,0.0,0.0,0.0,0.0,0.0,0.0,0.0,0.0,0.0,0.0,0.0,0.0,0.0,0.0,0.0,2.9839,3.1934,3.3621,3.5309,3.5502,3.4944,3.3551,3.1871,2.963,2.6583,0.0,0.0,0.0,0.0,0.0,0.0,0.0,0.0,0.0,0.0,0.0,0.0,0.0,0.0,0.0,0.0,0.0,0.0,0.0,0.0,0.0,0.0,0.0,0.0,0.0,0.0,0.0,0.0,0.0,0.0,0.0,0.0,0.0,0.0,0.0,0.0,0.0,0.0,0.0,0.0,0.0,0.0,0.0,0.0,0.0,0.0,0.0,0.0,0.0,0.0,0.0,0.0,0.0,0.0,0.0,0.0,0.0,0.0,0.0,0.0,0.0,0.0,0.0,0.0,0.0,0.0,0.0,0.0,0.0,0.0,0.0,0.0,0.0,0.0,0.0,0.0,0.0,0.0,0.0,0.0,0.0,0.0,0.0,0.0,0.0,0.0,0.0,0.0,0.0,0.0,0.0,0.0,0.0,0.0,0.0,0.0,0.0,0.0,0.0,0.0,0.0,0.0,2.9822,3.1902,3.3564,3.5301,3.5507,3.5142,3.4269,3.2651,3.0654,2.8173,0.0,0.0,0.0,0.0,0.0,0.0,0.0,0.0,0.0,0.0,0.0,0.0,0.0,0.0,0.0,0.0,0.0,0.0,0.0,0.0,0.0,0.0,0.0,0.0,0.0,0.0,0.0,0.0,0.0,0.0,0.0,0.0,0.0,0.0,0.0,0.0,0.0,0.0,0.0,0.0,0.0,0.0,0.0,0.0,0.0,0.0,0.0,0.0,0.0,0.0,0.0,0.0,0.0,0.0,0.0,0.0,0.0,0.0,0.0,0.0,2.2856,0.0,0.0,0.0,0.0,0.0,0.0,0.0,0.0,0.0,0.0,0.0,0.0,0.0,0.0,0.0,0.0,0.0,0.0,0.0,0.0,0.0,0.0,0.0,0.0,0.0,0.0,0.0,0.0,0.0,0.0,0.0,0.0,0.0,0.0,0.0,0.0,0.0,0.0,0.0,0.0,0.0,2.9763,3.1839,3.3545,3.5247,3.5521,3.52,3.4276,3.2651,3.0904,2.9037,2.579,0.0,0.0,0.0,0.0,0.0,0.0,0.0,0.0,0.0,0.0,0.0,0.0,0.0,0.0,0.0,0.0,0.0,0.0,0.0,0.0,0.0,0.0,0.0,0.0,0.0,0.0,0.0,0.0,0.0,0.0,0.0,0.0,0.0,0.0,0.0,0.0,0.0,0.0,0.0,0.0,0.0,0.0,0.0,0.0,0.0,0.0,0.0,0.0,0.0,0.0,0.0,0.0,0.0,0.0,0.0,0.0,0.0,0.0,0.0,0.0,2.5372,0.0,0.0,0.0,0.0,0.0,0.0,0.0,0.0,0.0,0.0,0.0,0.0,0.0,0.0,0.0,0.0,0.0,0.0,0.0,0.0,0.0,0.0,0.0,0.0,0.0,0.0,0.0,0.0,0.0,0.0,0.0,0.0,0.0,0.0,0.0,0.0,0.0,0.0,0.0,0.0,3.029,3.2269,3.3811,3.507,3.5266,3.516,3.4808,3.3596,3.2171,3.0553,2.8052,0.0,0.0,0.0,0.0,0.0,0.0,0.0,0.0,0.0,0.0,0.0,0.0,0.0,0.0,0.0,0.0,0.0,0.0,0.0,0.0,0.0,0.0,0.0,0.0,0.0,0.0,0.0,0.0,0.0,0.0,0.0,0.0,0.0,0.0,0.0,0.0,0.0,0.0,0.0,0.0,0.0,0.0,0.0,0.0,0.0,0.0,0.0,0.0,0.0,0.0,0.0,0.0,0.0,3.2559,3.299,3.299,3.299,3.3317,3.3768,3.1602,3.0599,3.0342,2.8156,0.0,0.0,0.0,0.0,0.0,0.0,0.0,0.0,0.0,0.0,0.0,0.0,0.0,0.0,0.0,0.0,0.0,0.0,0.0,0.0,0.0,0.0,0.0,0.0,3.4139,3.3896,3.0073,0.0,0.0,0.0,0.0,0.0,0.0,0.0,0.0,0.0,0.0,0.0,3.1034,3.2797,3.4099,3.5067,3.5075,3.5094,3.5335,3.4556,3.3525,3.2279,3.0631,2.8385,0.0,0.0,0.0,0.0,0.0,0.0,0.0,0.0,0.0,0.0,0.0,0.0,0.0,0.0,0.0,0.0,0.0,0.0,0.0,0.0,0.0,0.0,0.0,0.0,0.0,0.0,0.0,0.0,0.0,0.0,0.0,0.0,2.0971,2.1746,0.0,0.0,0.0,0.0,0.0,0.0,0.0,0.0,0.0,0.0,0.0,0.0,0.0,3.1455,3.23,3.3835,3.4921,3.5576,3.7008,3.7698,3.7698,3.7698,3.7771,3.7818,3.7491,0.0,3.2825,3.2477,0.0,0.0,0.0,0.0,0.0,0.0,0.0,0.0,0.0,0.0,0.0,0.0,0.0,0.0,0.0,0.0,0.0,0.0,0.0,0.0,0.0,0.0,3.8803,3.7489,3.7335,3.736,0.0,3.2723,2.8932,2.7914,2.6511,0.0,0.0,0.0,0.0,0.0,0.0,0.0,3.1638,3.2902,3.414,3.571,3.5344,3.5043,3.513,3.4339,3.3838,3.3806,3.2225,3.0833,2.9795,2.7692,0.0,0.0,0.0,0.0,0.0,0.0,0.0,0.0,0.0,0.0,0.0,0.0,0.0,0.0,0.0,0.0,0.0,0.0,0.0,0.0,0.0,0.0,0.0,0.0,0.0,0.0,0.0,0.0,0.0,2.1614,2.3301,2.3169,2.3949,2.3943,0.0,0.0,0.0,0.0,0.0,0.0,0.0,0.0,0.0,3.38,3.5387,3.6801,3.7991,3.9134,3.9859,4.0204,4.086,4.1188,4.1188,4.1188,4.1188,4.1188,4.1188,4.0308,3.8638,3.5784,3.3578,3.1949,0.0,0.0,0.0,0.0,3.3292,3.3947,3.6838,3.6686,3.5349,3.6166,0.0,0.0,0.0,0.0,0.0,0.0,0.0,0.0,0.0,0.0,3.8372,3.8525,3.8608,3.8622,3.8622,3.631,3.3729,0.0,3.1528,3.0261,2.6753,0.0,0.0,0.0,0.0,3.1719,3.3258,3.4631,3.5584,3.5902,3.5675,3.5361,3.5011,3.464,3.4291,3.4003,3.3298,3.216,3.0505,2.9329,2.7528,0.0,0.0,0.0,0.0,0.0,0.0,0.0,0.0,0.0,0.0,0.0,0.0,0.0,0.0,0.0,0.0,0.0,0.0,0.0,0.0,0.0,0.0,0.0,0.0,0.0,0.0,0.0,0.0,2.3897,2.5456,2.5246,2.7084,2.7349,0.0,0.0,0.0,0.0,0.0,0.0,3.3556,3.4707,3.6151,3.8008,3.9698,4.1153,4.2309,4.2896,4.3189,4.3189,4.3189,4.3189,4.3189,4.3189,4.3189,4.3189,4.3189,4.3189,4.2904,3.889,3.6768,3.5973,3.51,3.4782,3.5044,3.6905,3.7372,3.7576,4.1026,4.0866,3.9287,4.0085,3.8562,3.616,3.4692,0.0,0.0,0.0,0.0,3.5646,3.6532,3.735,3.8247,3.9454,3.9584,3.9435,3.9435,3.8799,3.7594,0.0,3.5501,3.464,3.0538,0.0,0.0,0.0,0.0,3.4261,3.4985,3.6183,3.6855,3.652,3.6118,3.5689,3.5208,3.4944,3.4624,3.4175,3.3944,3.2947,3.0964,3.0471,2.9033,2.647,0.0,0.0,0.0,0.0,0.0,0.0,0.0,0.0,0.0,0.0,0.0,0.0,0.0,0.0,0.0,0.0,0.0,0.0,0.0,0.0,0.0,0.0,0.0,0.0,0.0,0.0,0.0,0.0,0.0,2.8688,3.0617,0.0,0.0,0.0,0.0,3.1828,3.2579,3.4684,3.8618,3.9496,4.0785,4.281,4.2965,4.3051,4.3138,4.3172,4.3189,4.3189,4.3189,4.3189,4.3189,4.3189,4.3189,4.3189,4.3189,4.3189,4.312,4.2085,4.1246,4.055,4.0232,4.0193,4.0423,4.1361,4.2242,4.3058,4.3675,4.3299,4.2686,4.3485,4.1553,3.8767,3.7912,3.6588,0.0,0.0,3.7665,3.9045,3.9918,4.0736,4.1367,4.146,4.0884,4.0327,4.0327,3.9695,3.8625,0.0,3.6619,3.6093,3.4306,0.0,3.4989,3.4132,3.4892,3.5849,3.659,3.6808,3.7218,3.7997,3.6717,3.5822,3.5852,3.5093,3.468,3.4832,3.4083,3.327,3.2523,3.0963,2.9736,2.8923,2.7245,0.0,0.0,0.0,0.0,0.0,0.0,0.0,0.0,0.0,0.0,0.0,0.0,0.0,0.0,0.0,0.0,0.0,0.0,0.0,0.0,0.0,0.0,0.0,0.0,0.0,0.0,0.0,0.0,3.176,3.4043,0.0,3.3247,3.4382,3.5654,3.6687,3.8563,4.0281,4.1773,4.3406,4.4646,4.5372,4.5855,4.6096,4.6096,4.6096,4.6096,4.6096,4.6096,4.6096,4.6096,4.6096,4.6096,4.6061,4.5596,4.5389,4.532,4.463,4.3583,4.2514,4.2457,4.252,4.2708,4.337,4.3818,4.4171,4.458,4.438,4.3961,4.3982,4.3596,4.2927,4.2073,4.1423,4.081,4.0048,4.0271,4.0531,3.9751,3.977,3.9993,3.9993,3.977,3.9547,3.9547,3.9821,3.9849,3.9222,3.9124,3.8611,3.6955,3.7301,3.7221,3.5459,3.6335,3.7318,3.7661,3.8222,3.8503,3.8289,3.7758,3.7207,3.6704,3.5916,3.5216,3.4737,3.3937,3.293,3.1694,3.1188,3.0099,2.8297,2.828,2.6676,0.0,0.0,0.0,0.0,0.0,0.0,0.0,0.0,0.0,0.0,0.0,0.0,0.0,0.0,0.0,0.0,0.0,0.0,0.0,0.0,0.0,0.0,0.0,0.0,0.0,0.0,3.4091,3.4331,3.7217,3.8438,3.6566,3.8532,4.0271,4.1045,4.2719,4.4024,4.4746,4.5945,4.6721,4.6948,4.7185,4.7459,4.7689,4.7689,4.7689,4.7689,4.7689,4.7689,4.7689,4.7689,4.7689,4.7655,4.7172,4.7003,4.6988,4.629,4.5476,4.4665,4.4436,4.4387,4.4557,4.5093,4.5156,4.4914,4.5052,4.5052,4.4929,4.4378,4.4707,4.5138,4.4265,4.3819,4.3373,4.2296,4.1813,4.1274,3.99,3.9528,3.9454,3.9175,3.9101,3.9175,3.9472,4.0044,4.0645,4.1146,4.1078,4.0579,3.9439,3.9444,3.9099,3.7586,3.8003,3.8551,3.8621,3.9164,3.9321,3.8807,3.8488,3.8075,3.7549,3.6254,3.5334,3.5052,3.3475,3.2211,3.1467,3.0815,2.9711,2.8176,2.9192,2.8335,2.5492,0.0,0.0,0.0,0.0,0.0,0.0,0.0,0.0,0.0,0.0,0.0,0.0,0.0,0.0,0.0,0.0,0.0,0.0,0.0,0.0,0.0,0.0,0.0,3.3526,3.4718,3.5859,3.6521,4.0114,4.1553,3.8975,4.1645,4.3876,4.4652,4.4749,4.5622,4.7533,4.7031,4.702,4.7765,4.7111,4.7083,4.7827,4.7855,4.781,4.7793,4.7793,4.7803,4.7786,4.7786,4.7786,4.7786,4.7751,4.7817,4.7894,4.714,4.6969,4.7106,4.6295,4.5998,4.6073,4.6672,4.6381,4.5655,4.5302,4.5451,4.5737,4.493,4.499,4.5212,4.4339,4.3522,4.2909,4.289,4.2314,4.1516,4.068,4.0471,4.0215,3.938,3.9157,3.9394,4.0248,4.0524,4.1045,4.2596,4.2352,4.1857,4.1754,4.1143,4.0662,4.0638,4.0018,0.0,3.9532,3.9577,3.9589,3.9589,3.8845,3.8338,3.8338,3.6085,3.5015,3.5803,3.2751,3.1287,3.2067,2.993,2.8814,2.9006,3.01,3.0694,3.0714,0.0,0.0,0.0,0.0,0.0,0.0,0.0,0.0,0.0,0.0,0.0,0.0,0.0,0.0,0.0,0.0,0.0,0.0,0.0,0.0,0.0,3.5429,3.7786,3.6419,3.8324,4.0268,4.1281,4.2809,4.3702,4.3393,4.4432,4.4985,4.4723,4.6084,4.6745,4.635,4.7552,4.8616,4.943,4.9707,5.0212,5.0947,5.0947,5.0671,5.0183,5.0183,4.9948,4.9509,4.9412,4.9412,4.9474,4.8938,4.8723,4.8709,4.8118,4.7605,4.7106,4.6295,4.6048,4.6172,4.6326,4.6257,4.6094,4.6337,4.6711,4.7035,4.6505,4.665,4.6884,4.6067,4.5658,4.5361,4.4766,4.4451,4.3949,4.25,4.1702,4.12,4.0958,4.0495,4.0333,4.1171,4.1941,4.2553,4.2907,4.34,4.3517,4.2772,4.2473,4.2165,4.1622,4.0881,0.0,4.044,3.9952,3.9589,3.9589,3.9383,3.9251,3.9251,3.7505,3.6002,3.5015,3.2949,3.1879,3.2086,3.1618,3.2059,3.3561,3.2814,3.2711,0.0,0.0,0.0,0.0,0.0,0.0,0.0,0.0,0.0,0.0,0.0,0.0,0.0,0.0,0.0,0.0,0.0,0.0,0.0,0.0,0.0,0.0,3.9319,4.1591,4.1316,4.2401,4.3402,4.3866,4.498,4.5603,4.5457,4.6613,4.7057,4.6303,4.7654,4.8378,4.8051,4.8878,4.9858,5.0949,5.1089,5.1469,5.2188,5.2188,5.1964,5.158,5.164,5.1331,5.0657,5.0662,5.0518,5.0268,4.9833,4.967,4.9684,4.9053,4.8566,0.0,0.0,0.0,0.0,0.0,4.6196,4.6246,4.6525,4.6908,4.7284,4.7029,4.742,4.7847,4.7404,4.7155,4.6903,4.6438,4.6048,4.5491,4.4191,4.3515,4.2932,4.1894,4.1334,4.118,4.1633,4.2221,4.2833,4.3479,4.4074,0.0,4.3727,4.3339,4.2978,4.2551,4.1777,4.1265,4.1291,4.0591,4.0096,4.0096,3.9796,3.9589,3.9589,3.8068,0.0,0.0,0.0,3.3018,3.2749,3.2836,0.0,0.0,0.0,0.0,0.0,0.0,0.0,0.0,3.5485,3.5795,0.0,0.0,0.0,0.0,0.0,0.0,0.0,0.0,0.0,0.0,0.0,0.0,0.0,0.0,0.0,0.0,4.2532,4.5034,4.6802,4.6497,4.5857,4.5259,4.6733,4.7358,4.6203,4.8299,4.9425,4.862,4.9192,4.9969,5.0906,0.0,0.0,0.0,0.0,5.1692,5.2416,5.2446,5.2425,5.2369,5.2567,5.2258,5.1494,5.1645,5.1285,5.0565,5.0565,5.0579,5.0532,4.993,4.9678,4.9565,4.7994,4.6923,4.6196,4.6196,4.6196,4.6196,4.6196,0.0,0.0,4.6908,4.7503,4.823,4.8287,4.8052,4.778,4.7814,4.733,4.6603,4.5786,4.5552,4.4982,4.2787,4.2184,4.209,4.2095,4.2076,4.2486,4.3999,4.4323,4.4388,4.4482,4.3914,4.3444,4.3444,4.2699,4.2155,4.2155,4.1441,4.0947,4.0947,0.0,0.0,3.9739,3.8293,3.7617,3.8131,3.6179,3.4741,3.4149,3.4329,3.4832,3.5623,3.6363,3.7583,3.9315,4.0188,4.0696,4.0803,3.7807,3.7704,0.0,0.0,0.0,0.0,0.0,0.0,0.0,0.0,0.0,0.0,0.0,0.0,0.0,0.0,0.0,4.3253,4.5914,4.7893,4.8494,4.9142,4.9056,4.7793,4.8392,4.8646,4.8042,4.9206,4.9906,4.9633,4.9834,5.0019,5.0122,5.0091,5.0492,5.1361,5.1824,5.2657,5.3791,5.3822,5.3718,5.3562,0.0,0.0,5.2596,5.2527,5.2155,5.1535,5.1535,5.1169,5.0612,5.0616,5.0249,4.9565,4.7994,4.6923,4.6196,4.6196,4.6196,4.6196,4.6196,4.6501,4.6908,4.6908,4.727,4.7816,4.8191,4.8253,0.0,4.858,4.8626,4.8397,4.7541,4.6877,4.634,4.5854,4.4793,4.39,4.39,4.3432,4.3131,4.345,4.352,4.3745,4.4388,4.4369,4.4271,4.4271,4.3576,4.305,4.305,4.2286,4.176,4.176,4.1629,4.1272,4.0609,3.9683,3.8613,3.7411,3.7493,3.7523,3.7408,3.8844,3.9437,3.8978,3.9281,3.9622,4.0002,4.0835,4.1255,4.1281,4.0982,4.1478,0.0,0.0,0.0,0.0,0.0,0.0,0.0,0.0,0.0,0.0,0.0,3.8782,4.0369,0.0,4.5012,4.7368,4.8966,5.0084,5.0633,5.0905,5.0546,4.9209,4.9646,4.9876,4.9386,5.0627,5.1112,5.0354,5.0913,5.1251,5.1093,5.1155,5.155,5.2267,5.2909,5.355,5.4188,5.446,5.4537,5.4465,5.4508,5.4196,5.3504,5.3504,5.3142,5.2492,5.2061,5.1675,5.1272,5.1004,5.0443,4.9635,4.8863,4.7819,4.6765,4.6354,4.6196,4.6196,4.6196,4.635,4.6596,4.6817,4.723,4.7738,4.8212,4.855,4.8785,4.8995,4.9098,4.9038,4.8609,4.8245,4.7801,4.6943,4.6199,4.5565,4.5148,4.4144,4.3426,4.382,4.3576,4.3426,4.3839,4.4219,4.4501,4.4501,4.4144,4.3895,4.3895,4.3182,4.2656,4.2656,4.2267,4.1835,4.1423,4.1041,4.044,3.9614,3.9558,3.9558,3.9558,4.0056,4.0146,3.9762,3.9848,4.0146,4.0649,4.1457,4.2127,4.2687,4.375,4.4548,0.0,0.0,0.0,0.0,0.0,0.0,0.0,0.0,3.718,3.8916,4.1157,4.3398,4.5495,4.6882,4.8491,5.0815,5.1309,5.1667,5.232,5.2014,5.1359,5.0308,5.0737,5.0944,5.0453,5.1799,5.227,5.1234,5.1978,5.2522,5.2609,5.2503,5.2784,5.3483,5.3929,5.4188,5.4284,5.4728,5.4992,5.5083,5.5217,5.4962,5.4372,5.4484,5.4121,5.3348,5.2418,5.1899,5.1751,5.1136,5.0504,4.9934,4.9776,4.8924,4.7731,4.6775,4.6337,4.6196,4.6196,4.6196,4.627,4.6649,4.7097,4.7575,4.804,4.855,4.901,4.9096,4.9162,4.9211,4.9211,4.9276,4.8987,4.7657,4.7286,4.7012,4.6148,4.4796,4.3914,4.4388,4.3857,4.3294,4.3294,4.3839,4.4313,4.4482,4.4501,4.4501,4.4501,4.3933,4.3538,4.3538,4.2887,4.2417,4.2267,4.2098,4.2079,4.2248,4.1492,4.1041,4.1041,4.0265,3.9758,3.9589,3.9758,4.0308,4.129,4.2255,4.3246,4.4292,4.6024,4.6898,2.7519,2.8942,3.086,3.3561,3.3922,3.4947,0.0,0.0,4.2236,4.3301,4.6295,4.8697,4.8593,4.9738,5.1072,5.2067,5.2263,5.232,5.2389,5.2347,5.2101,5.1555,5.1708,5.1681,5.1217,5.1968,5.2542,5.2822,5.2557,5.2782,5.3682,5.3281,5.3281,5.3847,5.3912,5.4171,5.4648,5.471,5.4974,5.5448,5.5478,5.5425,5.5355,5.5355,5.4946,5.4103,5.2646,5.1645,5.1013,5.0926,5.0838,5.068,4.9987,4.96,4.9284,4.7801,4.6818,4.6196,4.6196,4.6196,4.6196,4.627,4.6495,4.6812,4.7284,4.7795,4.8307,4.8732,4.9062,4.9292,4.9292,4.9374,4.9437,4.9249,4.8626,4.7838,4.703,4.611,4.5247,4.4613,4.3857,4.3294,4.3294,4.3369,4.3688,4.4388,4.4501,4.4501,4.4501,4.4407,4.4369,4.4369,4.4275,4.3919,4.3219,4.2436,4.2323,4.3106,4.2342,4.1873,4.1873,4.1098,4.034,3.9608,4.0303,4.1073,4.1893,4.3472,4.4683,4.5552,4.7451,4.8185,3.2269,3.3983,3.5447,0.0,3.8659,4.0204,4.2929,4.4846,4.627,4.7075,4.9273,5.0895,5.0367,5.1413,5.2485,0.0,5.3366,5.3758,5.3758,5.2832,5.1945,5.1363,5.1094,5.1041,5.1265,5.1826,5.2435,5.3043,5.3196,5.3466,5.3879,5.3682,5.3682,5.3912,5.4203,5.4474,5.471,5.5005,5.5282,5.5507,5.5507,5.5507,5.5507,5.5507,5.5069,5.4244,5.3155,5.226,5.1505,5.1066,5.0891,5.0855,5.0549,5.0101,4.953,4.7959,4.7187,4.6835,4.6354,4.6196,4.6246,4.6525,4.6817,4.716,4.763,4.8075,4.8421,4.8624,4.8907,4.9127,4.9127,4.9311,4.9509,4.9509,4.9227,4.8852,4.8532,4.7406,4.6373,4.6035,4.4909,4.4008,4.4008,4.3613,4.3407,4.3745,4.4214,4.4501,4.4501,4.4501,4.4501,4.4501,4.4501,4.435,4.4026,4.3656,4.36,4.3989,4.2736,4.2004,4.2004,4.0778,4.0171,4.0303,4.1098,4.2136,4.3468,4.5139,4.6373,4.7195,4.868,4.9338,3.5843,3.7758,0.0,4.0565,4.2574,4.4364,4.4875,4.6807,4.8592,4.8941,5.0481,5.166,5.1117,5.2097,5.3054,5.3264,5.3883,5.4468,5.4676,5.333,5.2049,5.1266,5.0489,5.0309,5.1142,5.1698,5.2303,5.3044,5.3616,5.3977,5.4106,5.4106,5.4188,5.4348,5.471,5.4913,5.4913,5.5312,5.5507,5.5507,5.5507,5.5507,5.5507,5.5507,5.5069,5.4279,5.3734,5.2927,5.1951,5.1417,5.1066,5.0891,5.0891,5.0522,4.9855,4.8521,4.7766,4.7274,4.6477,4.6196,4.627,4.6596,4.6976,4.7356,4.7692,4.8173,4.8605,4.8605,4.8873,4.9146,4.9146,4.9329,4.9509,4.9509,4.9509,4.9509,4.9509,4.8551,4.7631,4.7387,4.6167,4.5101,4.4857,4.4346,4.3895,4.3651,4.4327,4.467,4.4219,4.435,4.4501,4.4501,4.4501,4.4501,4.4501,4.4294,4.4177,4.4177,4.2605,4.1667,4.1667,4.0553,4.0309,4.1116,4.2155,4.3506,4.5176,4.6636,4.777,4.8662,4.9497,5.0019,0.0,0.0,4.0829,4.2953,4.4638,4.5914,4.6658,4.7786,4.856,4.8115,4.979,5.1181,5.0703,5.1606,5.2649,5.3376,5.3532,5.3796,5.4606,5.3817,5.2782,5.1795,5.0328,4.9855,0.0,5.1613,5.2303,5.3044,5.3616,5.4139,5.4648,5.4679,5.4913,5.5448,5.5478,5.5478,5.5478,5.5478,5.5507,5.5507,5.5507,5.5507,5.5507,5.5507,5.5069,5.4314,5.4279,5.3418,5.1986,5.1969,5.1558,5.0891,5.0891,5.0873,5.075,4.9952,4.8661,4.7274,4.6477,4.6196,4.6196,4.6221,4.6584,4.7002,4.7025,4.7772,4.8605,4.8605,4.9029,4.9474,4.9474,4.949,4.9509,4.9509,4.9509,4.9509,4.9509,4.9471,4.9171,4.8326,4.75,4.6674,4.581,4.5641,4.5359,4.4576,4.5153,4.5097,4.3538,4.4026,4.4501,4.4501,4.4501,4.4501,4.4501,4.3782,4.3332,4.3332,4.1755,4.0835,4.0835,4.0797,4.1135,4.1948,4.3581,4.5251,4.6936,4.7763,4.8715,4.9752,4.9784,4.9981,3.9371,0.0,4.2949,4.4638,4.5798,4.6725,4.7454,4.8605,4.9293,4.855,4.9125,4.9561,4.8861,4.9347,5.0243,5.1581,5.263,5.3748,5.5059,5.3918,5.2576,5.1635,5.0892,0.0,0.0,0.0,0.0,5.3986,5.3817,5.4094,5.5187,5.5252,5.5312,5.5478,5.5507,5.5507,5.5507,5.5507,5.5507,5.5507,5.5507,5.5507,5.5507,5.5507,5.5367,5.5086,5.4542,5.3734,5.2751,5.2225,5.1575,5.0891,5.0891,5.0891,5.0785,5.0004,4.9476,4.897,4.7525,4.6766,4.6471,4.6471,4.6801,4.7209,4.7209,4.771,4.8269,4.8269,4.8695,4.9179,4.9179,4.9327,4.9509,4.9509,4.9509,4.9509,4.9509,4.9509,4.9415,4.9114,4.8382,4.7706,4.7406,4.643,4.5604,4.5341,4.4627,4.3914,4.3369,4.3031,4.2849,4.2849,4.2849,4.2849,4.2849,4.2586,4.2436,4.2436,4.1911,4.1591,4.1591,4.2149,4.2844,4.3637,4.5289,4.6711,4.78,4.8791,4.9442,4.9817,5.018,5.042,4.1463,4.3251,4.4754,4.6212,4.7139,4.7736,4.7951,4.8572,4.8837,4.8001,4.7854,4.7688,4.7176,4.7246,4.8217,5.0735,5.1835,5.3141,5.5337,5.4308,5.3047,5.2275,5.1802,5.1575,0.0,0.0,0.0,5.4492,5.4396,5.4603,5.5443,5.5507,5.5507,5.5507,5.5507,5.5507,5.5507,5.5507,5.5507,5.5507,5.5507,5.5507,5.5507,5.5507,5.5507,5.549,5.4963,5.4296,5.3524,5.2751,5.1979,5.1259,5.0996,5.0972,5.0982,5.0453,5.0248,4.9973,4.8176,4.7384,4.7104,4.6837,4.7007,4.7302,4.7302,4.7669,4.8115,4.8232,4.8623,4.9027,4.9146,4.9345,4.9509,4.9509,4.9509,4.9509,4.9509,4.9509,4.9509,4.9509,4.9039,4.8664,4.8664,4.75,4.658,4.658,4.519,4.4158,4.4158,4.367,4.3206,4.2924,4.2887,4.2887,4.2887,4.2624,4.2455,4.2455,4.2455,4.2455,4.2455,4.3557,4.4552,4.5364,4.673,4.7838,4.8664,4.9361,4.9781,4.9943,5.0292,5.0605,4.3197,4.4854,4.6295,4.7703,4.858,4.8928,4.8149,4.777,4.7322,4.6434,4.5929,4.5583,4.5459,0.0,4.6619,5.0681,5.1096,5.2072,5.5419,5.4968,5.4157,0.0,0.0,0.0,0.0,0.0,0.0,5.4637,0.0,5.5472,5.5507,5.5507,5.5507,5.5507,5.5507,5.5507,5.5507,5.5507,5.5507,5.5507,5.5507,5.5507,5.5507,5.5507,5.5507,5.5507,5.5507,5.5051,5.4261,5.3524,5.2751,5.1944,5.1251,5.1096,5.1298,5.1324,5.1007,5.0341,4.8577,4.8081,4.8097,4.7306,4.7178,4.7302,4.7302,4.7689,4.8173,4.8477,4.8784,4.9077,4.9393,4.9493,4.9509,4.9509,4.9509,4.9509,4.9509,4.9509,4.9509,4.9509,4.9509,4.9509,4.9509,4.8814,4.8269,4.8269,4.6899,4.5848,4.5716,4.566,4.5359,4.4576,4.4501,4.4501,4.4501,4.3801,4.3351,4.3351,4.3388,4.3426,4.3426,4.4965,4.6223,4.7049,4.7856,4.8664,4.9509,4.9521,4.9755,5.0195,5.0218,5.0548,4.5467,4.7139,4.8349,4.873,4.9226,4.9269,4.7996,4.7474,4.6658,4.4656,4.3682,4.2643,4.0838,4.2267,0.0,4.7351,4.9546,0.0,5.5156,5.5029,0.0,5.4162,0.0,5.4135,5.4127,5.4489,0.0,0.0,5.4858,5.4875,5.5472,5.5507,5.5507,5.5507,5.5507,5.5507,5.5507,5.5507,5.5507,5.5507,5.5507,5.5507,5.5507,5.5507,5.5507,5.5507,5.5507,5.5051,5.4296,5.4103,5.3225,5.1997,5.2004,5.1715,5.1307,5.1513,5.164,5.1538,5.048,4.9374,4.8398,4.8183,4.7889,4.7615,4.7615,4.7832,4.8134,4.8212,4.8605,4.9027,4.9113,4.9311,4.9509,4.9509,4.9509,4.9509,4.9509,4.9509,4.9509,4.9509,4.9509,4.9509,4.9509,4.9321,4.9171,4.9171,4.8795,4.7856,4.5941,4.519,4.4726,4.4519,4.4501,4.4501,4.4501,4.4313,4.4182,4.4182,4.4759,4.5097,4.5097,4.6674,4.7669,4.7894,4.872,4.9283,4.9509,4.9736,4.9929,5.0062,5.0457,5.0764,4.6957,4.8746,4.9991,4.9327,4.9636,4.9407,4.6862,4.5952,4.4888,4.2149,4.092,3.9911,3.8557,3.9966,0.0,0.0,0.0,0.0,5.4889,5.5303,5.5131,0.0,5.4972,0.0,5.4846,5.5344,5.5695,0.0,5.5145,5.5033,5.549,5.5507,5.5507,5.5507,5.5607,5.5753,5.5897,5.5753,5.5753,5.5897,5.5897,5.5897,5.5897,5.5897,5.5897,5.5897,0.0,5.5631,5.5189,5.4836,5.3969,5.2864,5.2706,5.2232,5.1665,5.1815,5.2054,5.2197,5.1746,5.0772,4.96,4.8914,4.8244,4.7717,4.7717,4.7806,4.7953,4.8075,4.8346,4.8641,4.8784,4.9044,4.9279,4.9279,4.9393,4.9509,4.9509,4.9509,4.9509,4.9509,4.9509,4.9509,4.9509,4.9509,4.9509,4.9509,4.9509,4.8983,4.7556,4.6636,4.5998,4.5627,4.5589,4.5589,4.5589,4.5589,4.5589,4.5589,4.6354,4.6805,4.6805,4.8063,4.8776,4.8776,4.9246,4.9509,4.9509,4.9702,4.9855,5.0012,5.0298,5.0596,4.8308,5.0008,5.1196,5.0039,5.0026,4.9291,4.5503,4.4098,4.2678,3.9434,0.0,3.7541,3.727,3.8187,4.0543,4.5355,0.0,5.0559,5.4634,5.5557,5.5755,5.5637,5.5625,5.5625,5.5625,5.5822,5.5975,5.5975,5.5753,5.5625,5.5625,5.5625,5.5625,5.5625,5.585,5.6106,5.6401,5.6116,5.6116,5.6401,5.6401,5.6401,5.6401,5.6401,5.6401,5.6401,5.6401,5.6401,5.6347,5.566,5.4821,5.3947,5.333,5.2695,5.2084,5.215,5.2293,5.2498,5.2498,5.1973,5.1049,4.9564,4.8514,4.7823,4.7735,4.7717,4.7762,4.7974,4.8075,4.8173,4.8476,4.8749,4.8957,4.8991,4.9211,4.9443,4.949,4.9509,4.9509,4.9509,4.9509,4.9509,4.9509,4.9509,4.9509,4.9509,4.9509,4.9509,4.9509,4.8833,4.8101,4.7406,4.7331,4.7331,4.7331,4.7331,4.7331,4.7331,4.7988,4.8363,4.8363,4.9096,4.9509,4.9509,4.9509,4.9509,4.9509,4.9536,4.9702,4.9993,5.0062,5.0366,5.1114,5.1536,5.142,5.1842,5.0863,4.8951,4.569,4.3643,0.0,0.0,3.6898,3.6281,3.4496,3.6799,4.0145,4.3614,0.0,0.0,0.0,0.0,5.5543,0.0,5.6235,5.6235,5.6235,0.0,0.0,0.0,0.0,5.6235,5.6235,5.6235,5.6235,5.6235,5.6273,5.6328,5.6401,5.6328,5.6328,5.6401,5.6401,5.6401,5.6401,5.6401,5.6401,5.6401,5.6401,0.0,5.6383,5.624,5.5312,5.4026,5.4107,5.3293,5.2126,5.234,5.2475,5.2498,5.2498,5.1973,5.114,5.0202,4.9347,4.8565,4.7916,4.7717,4.7699,4.7762,4.7931,4.8096,4.8154,4.8421,4.8731,4.894,4.9025,4.9162,4.9443,4.9509,4.9509,4.9509,4.9509,4.9509,4.9509,4.9509,4.9509,4.9509,4.9509,4.9509,4.9509,4.9377,4.9227,4.9077,4.9077,4.9077,4.9077,4.9077,4.9077,4.9077,4.9208,4.9265,4.9265,4.9415,4.9509,4.9509,4.9509,4.9509,4.9509,4.9721,4.9871,4.9933,5.038,5.0635,5.1425,5.1946,5.1952,5.1516,5.0382,4.8229,4.3872,0.0,0.0,0.0,3.4939,3.4627,3.3596,3.5562,0.0,4.1537,0.0,0.0,0.0,0.0,0.0,0.0,0.0,0.0,0.0,0.0,0.0,0.0,0.0,5.6689,5.641,5.6401,5.6465,5.66,5.6465,5.6546,5.6821,5.668,5.6662,5.6821,5.6821,5.6821,5.6821,5.6821,5.6821,5.6821,5.6821,0.0,5.6821,5.6821,5.5903,5.4464,5.4607,5.37,5.2317,5.2452,5.2498,5.2498,5.2498,5.2245,5.1719,5.051,4.9564,4.8746,4.7932,4.7717,4.7717,4.7717,4.7785,4.7891,4.7891,4.8113,4.8421,4.8731,4.9027,4.9295,4.9459,4.9509,4.9509,4.9509,4.9509,4.9509,4.9509,4.9509,4.9509,4.9509,4.9509,4.9509,4.9509,4.9509,4.9509,4.9509,4.9509,4.9509,4.9509,4.9509,4.9509,4.9509,4.9509,4.9509,4.9509,4.9509,4.9509,4.9509,4.9509,4.9509,4.9509,4.9692,4.983,4.9906,5.0313,5.0577,5.1275,5.2104,5.2353,5.1139,4.9816,4.7436,4.2254,4.002,0.0,0.0,3.3393,3.3393,3.3393,0.0,3.6564,0.0,4.1596,4.474,0.0,0.0,0.0,0.0,0.0,0.0,0.0,0.0,0.0,0.0,0.0,0.0,5.66,5.6573,5.668,5.6873,5.6662,5.6768,5.7206,5.7003,5.7003,5.7188,5.7188,5.7188,5.7188,5.7188,5.7188,5.7188,5.7188,0.0,0.0,5.7188,5.6283,5.4907,5.4907,5.3929,5.2498,5.2498,5.2498,5.2498,5.2498,5.2498,5.2263,5.0836,4.98,4.8985,4.8007,4.7717,4.7717,4.7717,4.7717,4.7717,4.7717,4.7868,4.8114,4.8514,4.9062,4.9509,4.9509,4.9509,4.9509,4.9509,4.9509,4.9509,4.9509,4.9509,4.9509,4.9509,4.9509,4.9509,4.9509,4.9509,4.9509,4.9509,4.9509,4.9509,4.9509,4.9509,4.9509,4.9509,4.9509,4.9509,4.9509,4.9509,4.9509,4.9509,4.9509,4.9509,4.9509,4.9648,4.9788,4.9912,5.023,5.049,5.1903,5.2461,5.2479,5.2335,5.0069,4.6747,4.2571,0.0,3.7359,3.4081,3.3393,3.3393,3.3393,3.4117,3.5747,0.0,0.0,4.3786,0.0,0.0,0.0,0.0,0.0,0.0,0.0,0.0,0.0,0.0,0.0,0.0,5.713,5.713,5.7156,5.7163,5.7138,5.7138,5.7188,5.7181,5.7181,5.7188,5.7188,5.7188,5.7188,5.7188,5.7188,5.7188,5.7188,0.0,0.0,5.7188,5.6283,5.4907,5.4907,5.3929,5.2498,5.2498,5.2498,5.2498,5.2498,5.2498,5.2353,5.1466,5.0655,4.9691,4.817,4.7717,4.7717,4.7717,4.7717,4.7717,4.7717,4.772,4.7888,4.8458,4.9062,4.9509,4.9509,4.9509,4.9509,4.9509,4.9509,4.9509,4.9509,4.9509,4.9509,4.9509,4.9509,4.9509,4.9509,4.9509,4.9509,4.9509,4.9509,4.9509,4.9509,4.9509,4.9509,4.9509,4.9509,4.9509,4.9509,4.9509,4.9509,4.9509,4.9509,4.9509,4.9509,4.9764,4.9898,4.9906,5.0418,5.0678,5.0448,5.1411,5.1647,5.1176,4.9365,4.652,4.2012,0.0,3.7303,3.4063,3.3393,3.3393,3.3393,3.3665,3.4769,0.0,3.8047,4.0094,4.5689,0.0,0.0,0.0,0.0,0.0,0.0,0.0,0.0,0.0,0.0,0.0,5.7188,5.7188,5.7188,5.7188,5.7188,5.7188,5.7188,5.7188,5.7188,5.7188,5.7188,5.7188,5.7188,5.7188,5.7188,5.7188,5.7188,0.0,0.0,5.7188,5.6554,5.5522,5.507,5.4218,5.3168,5.2679,5.2498,5.2498,5.2498,5.2498,5.2371,5.1556,5.0764,4.9872,4.8768,4.8076,4.7717,4.7717,4.7717,4.7717,4.7717,4.7827,4.8053,4.8495,4.8907,4.9262,4.9459,4.9509,4.9509,4.9509,4.9567,4.9623,4.9623,4.9623,4.9653,4.9736,4.9593,4.9521,4.9608,4.9551,4.9509,4.9509,4.9509,4.9509,4.9509,4.9509,4.9509,4.9509,4.9582,4.9623,4.9623,4.9692,4.975,4.975,4.9648,4.9667,4.975,4.9857,4.9933,5.0031,5.0404,5.0615,4.8007,4.9438,5.0035,4.9238,4.7826,4.5508,0.0,3.8971,3.7013,3.4009,3.3393,3.3393,3.3393,3.3393,3.4117,0.0,3.6363,3.7938,4.3027,4.4349,0.0,0.0,0.0,0.0,0.0,0.0,0.0,0.0,0.0,0.0,5.7188,5.7188,5.7188,5.7188,5.7188,5.7188,5.7188,5.7188,5.7188,5.7188,5.7188,5.7188,5.7188,5.7188,5.7188,5.7188,5.7188,0.0,0.0,5.7188,5.6591,5.5613,5.5106,5.4255,5.3277,5.2715,5.2498,5.2498,5.2498,5.2498,5.2408,5.1828,5.0963,5.0003,4.9438,4.8532,4.7717,4.7717,4.7738,4.7759,4.7717,4.797,4.8288,4.8587,4.8887,4.9209,4.9563,4.9623,4.9623,4.9623,4.9692,4.9764,4.9764,4.9764,4.9788,4.9898,4.975,4.9653,4.975,4.9653,4.9567,4.9567,4.9567,4.9536,4.949,4.9509,4.9505,4.9551,4.9653,4.9721,4.9764,4.9857,4.9912,4.9912,4.9802,4.9802,4.9912,4.9952,5.0018,5.0108,5.0423,5.0662,4.4693,4.6522,4.7554,4.6739,4.5327,4.3299,4.013,3.8172,3.6325,3.39,3.3393,3.3393,3.3393,3.3393,3.3936,3.555,3.6472,3.8372,4.2358,4.4965,0.0,0.0,0.0,0.0,0.0,0.0,0.0,0.0,0.0,0.0,5.7188,5.7188,5.7188,5.7188,5.7188,5.7188,5.7188,5.7188,5.7188,5.7188,5.7188,5.7188,5.7188,5.7188,5.7188,5.7188,0.0,0.0,0.0,5.7188,5.6301,5.4907,5.4907,5.3929,5.2498,5.2498,5.2498,5.2498,5.2498,5.2498,5.2498,5.248,5.1393,5.0112,5.0093,4.8967,4.7717,4.7717,4.7798,4.7861,4.7738,4.8088,4.855,4.8747,4.9104,4.9491,4.9824,4.9898,4.9898,4.9898,4.9912,4.9912,4.9912,4.9912,4.9912,4.9912,4.9912,4.9898,4.9912,4.9774,4.9692,4.9692,4.9692,4.9653,4.9505,4.9509,4.9551,4.9678,4.9692,4.9764,4.9879,4.9912,4.9912,4.9912,4.9912,4.9912,4.9912,5.0031,5.0095,5.012,5.0509,5.0875,4.0238,4.2375,4.4095,4.2755,4.2031,4.0963,3.8354,3.6942,3.5657,3.3791,3.3393,3.3393,3.3393,3.3393,3.428,3.6997,3.7649,0.0,0.0,0.0,0.0,0.0,0.0,0.0,0.0,0.0,0.0,0.0,0.0,0.0,5.7188,5.7188,5.7188,5.7188,5.7188,5.7188,5.7188,5.7188,5.7188,5.7188,5.7188,5.7188,5.7188,5.7188,5.7188,0.0,0.0,0.0,0.0,5.7188,5.6591,5.5595,5.5106,5.4255,5.3241,5.2697,5.2498,5.2498,5.2498,5.2498,5.2498,5.2498,5.1774,5.0836,5.0275,4.8985,4.7717,4.7717,4.7798,4.7881,4.784,4.7963,4.8226,4.8801,4.9021,4.9268,4.9797,4.9912,4.9912,4.9912,4.9959,5.0044,5.0044,5.0044,5.007,5.017,5.0031,4.992,5.0031,4.9925,4.9843,4.9843,4.9843,4.9774,4.9653,4.9721,4.9788,4.983,4.9925,4.9992,5.0044,5.0114,5.0163,5.0163,5.0076,5.0082,5.0163,5.0133,5.02,5.0369,5.0596,5.0835,3.658,3.8717,4.0437,3.9423,3.9188,3.8717,3.6942,3.5928,3.4971,3.3665,3.3393,3.3393,3.3393,3.3393,3.4244,3.687,3.754,0.0,0.0,0.0,0.0,0.0,0.0,0.0,0.0,0.0,0.0,0.0,0.0,0.0,5.7188,5.7188,5.7188,5.7188,5.7188,5.7188,5.7188,5.7188,5.7188,5.7188,5.7188,5.7188,5.7188,5.7188,5.7188,0.0,0.0,0.0,0.0,5.6862,5.6283,5.5504,5.4762,5.3965,5.3186,5.2679,5.2498,5.2498,5.2498,5.2503,5.2531,5.2531,5.181,5.082,5.0003,4.8838,4.778,4.7804,4.7925,4.7986,4.7945,4.7988,4.8189,4.8748,4.8986,4.9246,4.9759,4.9954,5.0038,5.0038,5.012,5.0182,5.0182,5.0182,5.0207,5.029,5.017,5.0076,5.017,5.007,4.9978,4.9978,4.9978,4.9939,4.9857,4.9885,4.9906,4.9978,5.0057,5.012,5.017,5.0255,5.0302,5.0302,5.0219,5.0219,5.0302,5.0219,5.0294,5.0507,5.0653,5.0811,0.0,3.5385,3.6633,3.6524,3.6524,3.6397,3.5711,3.4932,0.0,3.3538,3.3357,3.3357,3.3538,3.352,3.4099,3.5912,0.0,0.0,0.0,0.0,0.0,0.0,0.0,0.0,0.0,0.0,0.0,0.0,0.0,0.0,5.7188,5.7188,5.7188,5.7188,5.7188,5.7188,5.7188,5.7188,5.7188,5.7188,5.7188,5.7188,5.7213,5.7213,5.7213,0.0,0.0,0.0,0.0,5.6344,5.5583,5.484,5.4043,5.3228,5.2521,5.2521,5.2521,5.2521,5.2521,5.2577,5.2613,5.2613,5.1624,5.025,4.9523,4.866,4.7943,4.799,4.809,4.8168,4.805,4.8151,4.8345,4.8641,4.9017,4.9375,4.973,5.0063,5.0302,5.0302,5.0302,5.0302,5.0302,5.0302,5.0302,5.0302,5.0302,5.0302,5.0302,5.0194,5.012,5.012,5.012,5.012,5.012,5.0005,4.9992,5.0108,5.012,5.017,5.029,5.0302,5.0302,5.0302,5.0302,5.0302,5.0302,5.0314,5.0377,5.0517,5.072,5.0905,2.994,0.0,3.3027,3.1795,3.1958,3.2534,0.0,3.25,3.2214,3.3263,3.2994,3.3125,3.4914,3.4718,3.5623,3.9659,0.0,0.0,0.0,0.0,0.0,0.0,0.0,0.0,0.0,0.0,0.0,0.0,0.0,5.7188,5.7188,5.7188,5.7188,5.7188,5.7188,5.7188,5.7188,5.7188,5.7188,5.7188,5.7188,5.7239,5.7338,5.7338,5.7406,0.0,0.0,0.0,5.7431,5.6648,5.5848,5.5047,5.4246,5.3445,5.2735,5.2735,5.2735,5.2735,5.2735,5.2739,5.2761,5.2761,5.1686,5.038,5.0302,4.9261,4.8108,4.8012,4.809,4.8187,4.8168,4.8187,4.8324,4.8694,4.9048,4.9375,4.973,5.0063,5.0302,5.0302,5.0302,5.0302,5.0302,5.0302,5.0302,5.0302,5.0302,5.0302,5.0302,5.0278,5.0255,5.0255,5.0255,5.0255,5.0255,5.0231,5.0219,5.0255,5.0255,5.0267,5.0302,5.0302,5.0302,5.0302,5.0302,5.0302,5.0302,5.0399,5.0508,5.0671,5.1473,5.1925,2.8324,3.0529,3.2581,3.1668,3.2077,3.2813,3.3252,3.2164,3.1325,3.2205,0.0,3.2791,3.4449,3.4996,0.0,0.0,4.1234,0.0,0.0,0.0,0.0,0.0,0.0,0.0,0.0,0.0,0.0,0.0,0.0,5.7188,5.7188,5.7188,5.7232,5.7307,5.7289,5.7264,5.7188,5.7264,5.7289,5.7289,5.7338,5.7412,5.7486,5.7486,5.7528,0.0,0.0,0.0,5.751,5.6343,5.5595,5.5085,5.3895,5.3166,5.2806,5.2806,5.2806,5.2806,5.2806,5.2828,5.2893,5.2955,5.1898,5.0602,5.0682,4.9548,4.8228,4.8151,4.8189,4.8247,4.8247,4.8247,4.8287,4.8514,4.8932,4.9345,4.9527,4.9955,5.0302,5.0302,5.0302,5.0302,5.0302,5.0302,5.0302,5.0302,5.0302,5.0302,5.0302,5.0302,5.0302,5.0302,5.0302,5.0302,5.0302,5.0302,5.0302,5.0302,5.0302,5.0302,5.0302,5.0302,5.0302,5.0302,5.0302,5.0302,5.0302,5.0442,5.0739,5.1222,5.1896,5.2443,2.8352,3.1054,3.3632,3.3102,3.3785,3.4543,3.4334,0.0,0.0,0.0,0.0,0.0,3.4004,3.5423,0.0,0.0,0.0,0.0,0.0,0.0,0.0,0.0,0.0,0.0,0.0,0.0,0.0,0.0,0.0,5.7188,5.7188,5.7188,5.7264,5.7406,5.7388,5.7356,5.7264,5.7363,5.7412,5.7412,5.7553,5.7625,5.7625,5.7625,5.7649,5.7673,0.0,0.0,5.7357,5.5861,5.5186,5.493,5.3434,5.2868,5.2868,5.2868,5.2868,5.2868,5.2868,5.2934,5.3042,5.3164,5.2123,5.0802,5.0802,4.9627,4.8306,4.8306,4.8306,4.8306,4.8306,4.8306,4.8306,4.8306,4.8815,4.9299,4.9299,4.983,5.0302,5.0302,5.0302,5.0302,5.0302,5.0302,5.0302,5.0302,5.0302,5.0302,5.0302,5.0302,5.0302,5.0302,5.0302,5.0302,5.0302,5.0302,5.0302,5.0302,5.0302,5.0302,5.0302,5.0302,5.0302,5.0302,5.0302,5.0302,5.0302,5.0577,5.1093,5.1836,5.2354,5.2995,3.0461,3.2988,3.4223,3.1602,3.2582,3.3983,3.3096,0.0,0.0,0.0,0.0,0.0,0.0,3.8227,4.0075,0.0,0.0,0.0,0.0,0.0,0.0,0.0,0.0,0.0,0.0,0.0,0.0,0.0,0.0,5.7188,5.7188,5.7188,5.7264,5.7406,5.7388,5.7437,5.7553,5.7577,5.7577,5.7577,5.7601,5.7673,5.7768,5.7768,5.7815,5.795,0.0,5.7565,5.6846,5.5933,5.5145,5.4426,5.3491,5.3143,5.3143,5.3143,5.3143,5.3143,5.3143,5.3164,5.3185,5.3185,5.2123,5.0802,5.0802,4.9627,4.8306,4.8306,4.8306,4.8306,4.8306,4.8306,4.8306,4.8306,4.8815,4.9299,4.9299,4.983,5.0302,5.0302,5.0302,5.0302,5.0302,5.0302,5.0302,5.0302,5.0302,5.0302,5.0302,5.0302,5.0302,5.0302,5.0302,5.0302,5.0302,5.0302,5.0302,5.0302,5.0302,5.0302,5.0302,5.0302,5.0302,5.0302,5.0302,5.0302,5.0302,5.1171,5.1731,5.2009,5.3633,5.4532,2.8891,3.1791,3.4068,3.3108,3.4964,3.6893,3.6395,3.498,0.0,0.0,0.0,0.0,0.0,0.0,4.2122,0.0,0.0,0.0,0.0,0.0,0.0,0.0,0.0,0.0,0.0,0.0,0.0,0.0,0.0,0.0,5.7307,5.7381,5.748,5.7625,5.7625,5.7673,5.7815,5.7815,5.7768,5.7697,5.7768,5.7857,5.7904,5.7904,5.7712,5.7354,0.0,5.6895,5.6088,5.528,5.473,5.4326,5.3518,5.3185,5.3185,5.3185,5.3185,5.3185,5.3185,5.3185,5.3185,5.3185,5.2123,5.0802,5.0802,4.9627,4.8306,4.8306,4.8306,4.8306,4.8306,4.8306,4.8306,4.8306,4.8815,4.9299,4.9299,4.983,5.0302,5.0302,5.0302,5.0302,5.0302,5.0302,5.0302,5.0302,5.0302,5.0302,5.0302,5.0302,5.0302,5.0302,5.0302,5.0302,5.0302,5.0302,5.0302,5.0302,5.0302,5.0302,5.0302,5.0302,5.0302,5.0302,5.0302,5.0531,5.1009,5.1612,5.2425,5.3425,5.4448,5.5197,2.7884,3.0581,3.3393,3.5225,0.0,3.9038,3.948,3.8038,0.0,0.0,0.0,0.0,0.0,0.0,0.0,0.0,0.0,0.0,0.0,0.0,0.0,0.0,0.0,0.0,0.0,0.0,0.0,0.0,0.0,0.0,5.7455,5.7534,5.7673,5.7792,5.7792,5.7862,5.7997,5.7997,5.795,5.7857,5.795,5.7997,5.7997,5.7795,5.7373,5.6804,5.6602,5.6051,5.5262,5.4638,5.4289,5.4069,5.3445,5.3185,5.3185,5.3185,5.3185,5.3185,5.3185,5.3185,5.3185,5.3185,5.2123,5.0802,5.0802,4.9627,4.8306,4.8306,4.8306,4.8306,4.8306,4.8306,4.8325,4.8402,4.8883,4.9314,4.9409,4.987,5.0302,5.0302,5.0302,5.0302,5.0302,5.0302,5.0302,5.0302,5.0302,5.0302,5.0302,5.0302,5.0302,5.0302,5.0302,5.0302,5.0302,5.0302,5.0302,5.0302,5.0302,5.0302,5.0302,5.0302,5.0302,5.0302,5.0512,5.0956,5.1653,5.225,5.3272,5.4657,5.5048,5.5624,2.9981,3.1057,3.2193,3.6802,3.7608,0.0,3.9642,3.9522,0.0,4.1366,0.0,0.0,0.0,0.0,0.0,0.0,0.0,0.0,0.0,0.0,0.0,0.0,0.0,0.0,0.0,0.0,0.0,0.0,0.0,0.0,5.7577,5.7583,5.7673,5.7792,5.7792,5.7862,5.7997,5.7997,5.7997,5.7997,5.7997,5.7997,5.796,5.7226,5.6859,5.6767,5.5996,5.5225,5.4473,5.4418,5.3959,5.3277,5.3203,5.3185,5.3185,5.3185,5.3185,5.3185,5.3185,5.3185,5.3185,5.3185,5.2123,5.0802,5.0802,4.9627,4.8306,4.8306,4.8306,4.8306,4.8306,4.8306,4.8383,4.8676,4.9031,4.9394,4.9702,5.0051,5.0302,5.0302,5.0302,5.0302,5.0302,5.0302,5.0302,5.0302,5.0302,5.0302,5.0302,5.0302,5.0302,5.0302,5.0302,5.0302,5.0302,5.0302,5.0302,5.0302,5.0302,5.0302,5.0302,5.0302,5.0302,5.0302,5.1085,5.1588,5.1794,5.3371,5.4362,5.48,5.5564,5.6059,2.7706,2.9994,3.2543,3.5473,3.7508,0.0,0.0,4.2606,4.3995,4.4983,4.5828,0.0,0.0,0.0,0.0,0.0,0.0,0.0,0.0,0.0,0.0,0.0,0.0,0.0,0.0,0.0,0.0,0.0,0.0,0.0,5.7721,5.7792,5.7642,5.7194,5.7194,5.696,5.651,5.651,5.661,5.6832,5.7103,5.7361,5.7531,5.6739,5.6236,5.5973,5.5419,5.4705,5.3946,5.3734,5.3482,5.3185,5.3185,5.3185,5.3185,5.3185,5.3185,5.3185,5.3185,5.3185,5.3112,5.2619,5.1701,5.071,5.0196,4.9224,4.8306,4.8306,4.8306,4.8306,4.8306,4.8306,4.8383,4.8711,4.9048,4.9375,4.973,5.0063,5.0302,5.0302,5.0302,5.0302,5.0302,5.0302,5.0302,5.0302,5.0302,5.0302,5.0302,5.0302,5.0302,5.0302,5.0302,5.0302,5.0302,5.0302,5.0302,5.0302,5.0302,5.0302,5.0302,5.0302,5.0302,5.0302,5.1162,5.1924,5.2611,5.3868,5.4852,5.5564,5.5981,5.6232,2.7312,2.9924,3.2965,3.5201,0.0,0.0,4.274,4.5005,4.6978,4.8108,4.8568,0.0,0.0,0.0,0.0,0.0,0.0,0.0,0.0,0.0,0.0,0.0,0.0,0.0,0.0,0.0,0.0,0.0,0.0,0.0,0.0,5.718,5.6987,5.6436,5.6418,5.6161,5.5614,5.5614,5.5776,5.6096,5.6158,5.652,5.7073,5.6156,5.564,5.5463,5.4932,5.4392,5.387,5.3641,5.3481,5.3357,5.323,5.3185,5.3185,5.3185,5.3185,5.3185,5.3185,5.3185,5.3115,5.2564,5.1665,5.071,5.0141,4.9187,4.8306,4.8306,4.8306,4.8325,4.8439,4.8383,4.842,4.8849,4.9129,4.9424,4.9857,5.0144,5.0302,5.0302,5.0302,5.0302,5.0302,5.0302,5.0302,5.0302,5.0302,5.0302,5.0302,5.0302,5.0302,5.0302,5.0302,5.0302,5.0302,5.0302,5.0302,5.0302,5.0302,5.0302,5.0302,5.0302,5.0436,5.0703,5.1544,5.2514,5.3568,5.4506,5.535,5.6102,5.6239,5.6291,2.9764,3.1236,3.331,0.0,0.0,0.0,4.4735,4.6421,4.802,5.0758,0.0,5.0041,5.0358,0.0,0.0,0.0,0.0,0.0,0.0,0.0,0.0,0.0,0.0,0.0,0.0,0.0,0.0,0.0,0.0,0.0,0.0,5.5614,5.5614,5.5574,5.5574,5.5596,5.5596,5.5596,5.5757,5.6059,5.526,5.551,5.6664,5.5454,5.5119,5.5443,5.4653,5.4296,5.4296,5.4296,5.407,5.3662,5.3336,5.3206,5.3185,5.3185,5.3185,5.3185,5.3206,5.3206,5.3185,5.3188,5.2105,5.0802,5.0802,4.9627,4.8306,4.8306,4.8306,4.8383,4.8711,4.855,4.8477,4.9161,4.9299,4.9498,5.0156,5.0302,5.0302,5.0302,5.0302,5.0302,5.0302,5.0302,5.0302,5.0302,5.0302,5.0302,5.0302,5.0302,5.0302,5.0302,5.0302,5.0302,5.0302,5.0302,5.0302,5.0302,5.0302,5.0302,5.0302,5.0302,5.0722,5.157,5.2403,5.3406,5.4602,5.5413,5.5962,5.6291,5.6291,5.6291,2.8476,3.171,0.0,3.7204,0.0,0.0,0.0,4.8416,0.0,0.0,0.0,5.1831,5.1747,0.0,0.0,0.0,0.0,0.0,0.0,0.0,0.0,0.0,0.0,0.0,0.0,0.0,0.0,0.0,0.0,0.0,0.0,5.5614,5.5335,5.4766,5.4748,5.4473,5.3922,5.3922,5.4223,5.4816,5.4298,5.48,5.6172,5.526,5.5044,5.5404,5.4879,5.4654,5.4639,5.4397,5.407,5.3701,5.3584,5.342,5.3185,5.3185,5.3185,5.323,5.3482,5.34,5.3157,5.2819,5.1852,5.0692,5.0123,4.9342,4.8658,4.8658,4.8658,4.8658,4.8781,4.8729,4.8815,4.9498,4.9641,4.9757,5.0212,5.0302,5.0302,5.0302,5.0302,5.0302,5.0302,5.0302,5.0302,5.0302,5.0302,5.0302,5.0302,5.0302,5.0302,5.0302,5.0302,5.0302,5.0302,5.0302,5.0302,5.0302,5.0302,5.0302,5.0302,5.0894,5.1353,5.1589,5.2996,5.4009,5.4602,5.5413,5.5962,5.6291,5.6291,5.6291,3.0978,3.4387,0.0,4.0099,4.3272,4.6481,4.8441,0.0,0.0,0.0,0.0,5.2554,0.0,0.0,0.0,0.0,0.0,0.0,0.0,0.0,0.0,0.0,0.0,0.0,0.0,0.0,0.0,0.0,0.0,0.0,0.0,5.4638,5.4418,5.394,5.4054,5.3879,5.34,5.3562,5.3926,5.4495,5.4242,5.4724,5.5746,5.5097,5.5023,5.539,5.514,5.5038,5.5023,5.4657,5.4279,5.3925,5.3777,5.3502,5.3185,5.3185,5.3293,5.344,5.3642,5.3662,5.3531,5.2901,5.2028,5.1046,5.0213,4.9518,4.9031,4.9031,4.9064,4.9113,4.9237,4.9283,4.9329,4.9541,4.9702,4.9884,5.0224,5.0302,5.0302,5.0302,5.0302,5.0302,5.0302,5.0302,5.0302,5.0302,5.0302,5.0302,5.0302,5.0302,5.0302,5.0302,5.0302,5.0302,5.0302,5.0302,5.0302,5.0302,5.0302,5.0455,5.0799,5.1322,5.1907,5.2575,5.3588,5.4411,5.5085,5.5567,5.596,5.6296,5.6296,5.6308,3.5331,0.0,0.0,4.4113,4.5346,0.0,5.0608,5.1819,5.2258,5.2713,0.0,0.0,0.0,0.0,0.0,0.0,0.0,0.0,0.0,0.0,0.0,0.0,0.0,0.0,0.0,0.0,0.0,0.0,0.0,0.0,0.0,5.3227,5.3248,5.3248,5.3583,5.3758,5.3758,5.4123,5.4463,5.4806,5.4806,5.5019,5.5403,5.5019,5.5052,5.5403,5.5403,5.5403,5.5371,5.5019,5.467,5.433,5.3925,5.3583,5.3272,5.3248,5.3385,5.3609,5.3665,5.3848,5.3956,5.3203,5.2395,5.1536,5.0767,5.0018,4.9445,4.9445,4.9508,4.9622,4.9924,5.0006,4.9885,4.9464,4.9632,4.9942,5.0236,5.0302,5.0302,5.0302,5.0302,5.0302,5.0302,5.0302,5.0302,5.0302,5.0302,5.0302,5.0302,5.0302,5.0302,5.0302,5.0302,5.0302,5.0302,5.0302,5.0302,5.0302,5.0302,5.0684,5.1575,5.1677,5.2461,5.4065,5.4193,5.476,5.5808,5.5817,5.599,5.6319,5.6319,5.6344,3.3145,3.6294,0.0,0.0,4.7231,4.9461,5.0378,5.1178,5.1936,5.2644,5.2522,0.0,0.0,0.0,0.0,0.0,0.0,0.0,0.0,0.0,0.0,0.0,0.0,0.0,0.0,0.0,0.0,0.0,0.0,0.0,5.3185,5.3442,5.3584,5.3584,5.3962,5.4176,5.4176,5.4264,5.4476,0.0,5.4876,5.5078,5.5476,5.5333,5.5319,5.5403,5.5396,5.5402,5.5402,5.5364,5.5159,5.4813,5.4471,5.4121,5.3814,5.3541,5.3214,5.2955,5.3286,5.2965,5.2438,5.256,5.1844,5.09,5.0711,5.0279,4.9872,4.9872,4.9885,4.9911,4.9981,5.0006,4.9962,4.9872,5.0069,5.0271,5.0302,5.0302,5.0302,5.0302,5.0302,5.0302,5.0302,5.0302,5.0302,5.0302,5.0302,5.0302,5.0302,5.0302,5.0302,5.0302,5.0302,5.0302,5.0302,5.0302,5.0314,5.0379,5.0325,5.07,5.1644,5.2222,5.3034,5.4085,5.4894,5.5483,5.588,5.597,5.6149,5.6372,5.6372,5.6396,3.3845,0.0,0.0,4.5354,0.0,4.9824,5.0206,5.0646,5.1104,5.1525,0.0,0.0,0.0,0.0,0.0,0.0,0.0,0.0,0.0,0.0,0.0,0.0,0.0,0.0,0.0,0.0,0.0,0.0,0.0,5.2849,5.3404,5.3603,5.3795,5.398,5.4364,5.4544,5.4544,5.4738,5.4928,5.5132,5.5132,5.5269,5.5504,5.5451,5.5453,5.5446,5.5451,5.5456,5.5418,5.5059,5.4944,5.4947,5.4358,5.4065,5.3923,5.3368,5.3086,5.2949,5.2749,5.2569,5.2397,5.2177,5.1688,5.1115,5.0716,5.0474,5.0279,5.0279,5.0302,5.0336,5.0336,5.0336,5.0325,5.0291,5.0374,5.0446,5.0393,5.0412,5.0412,5.0412,5.0412,5.0412,5.0412,5.0412,5.0382,5.0348,5.0337,5.0348,5.0382,5.0359,5.0348,5.0382,5.0412,5.0412,5.0412,5.0412,5.0404,5.0446,5.0424,5.0798,5.1659,5.2464,5.3322,5.4171,5.5101,5.5688,5.5941,5.6013,5.6194,5.6457,5.6457,5.6468,3.438,0.0,4.16,4.6222,4.8239,0.0,4.9939,5.0206,5.0302,0.0,0.0,0.0,0.0,0.0,0.0,0.0,0.0,0.0,0.0,0.0,0.0,0.0,0.0,0.0,0.0,0.0,0.0,0.0,0.0,5.235,5.3441,5.3609,5.3901,5.4397,5.4746,5.4924,5.4924,5.5248,5.5428,5.5432,5.5444,5.548,5.5539,5.5539,5.5527,5.5485,5.5362,5.5305,5.5247,5.4434,5.4336,5.4598,5.384,5.3629,5.3701,5.2958,5.282,5.2897,5.2174,5.2214,5.2489,5.1749,5.1538,5.1404,5.0743,5.0563,5.0613,5.0613,5.0653,5.0712,5.0712,5.0712,5.0692,5.0623,5.0563,5.0532,5.0511,5.05,5.05,5.05,5.05,5.05,5.05,5.05,5.0489,5.0435,5.0424,5.0446,5.05,5.0457,5.0446,5.05,5.05,5.05,5.05,5.05,5.0511,5.0521,5.0511,5.0875,5.171,5.2574,5.3437,5.4319,5.5136,5.5708,5.5998,5.6021,5.6212,5.6511,5.6511,5.6545,0.0,0.0,4.203,0.0,4.739,4.9129,0.0,0.0,5.0302,0.0,0.0,0.0,0.0,0.0,0.0,0.0,0.0,0.0,0.0,0.0,0.0,0.0,0.0,0.0,0.0,0.0,0.0,0.0,5.1228,5.177,5.2605,5.3266,5.3977,5.4779,5.5198,5.5401,5.5401,5.5456,5.5523,5.5573,5.5629,5.5651,5.5662,5.5662,5.5607,5.5466,5.4833,5.4548,5.4471,5.368,5.3392,5.3396,5.2987,5.2851,5.2823,5.2428,5.2039,5.172,5.1605,5.1312,5.099,5.0875,5.0836,5.0798,5.0702,5.0673,5.0692,5.0692,5.0683,5.0712,5.0712,5.0712,5.0712,5.0702,5.0673,5.0643,5.0521,5.05,5.05,5.05,5.05,5.05,5.05,5.05,5.05,5.0489,5.0489,5.0489,5.05,5.05,5.0489,5.05,5.05,5.05,5.05,5.05,5.0521,5.0582,5.0532,5.0907,5.1845,5.2649,5.3524,5.447,5.5331,5.5836,5.601,5.6161,5.6368,5.658,5.658,5.6582,3.1771,3.6126,4.0329,0.0,4.6148,4.7218,4.8162,0.0,0.0,0.0,0.0,0.0,0.0,0.0,0.0,0.0,0.0,0.0,0.0,0.0,0.0,0.0,0.0,0.0,0.0,0.0,0.0,0.0,5.0873,5.141,5.2445,5.2817,5.3242,5.383,5.4015,5.4104,5.4104,5.4104,5.4127,5.4213,5.4267,5.4299,5.4299,5.4299,5.4517,5.4916,5.4592,5.418,5.3661,5.2817,5.276,5.3135,5.251,5.2434,5.2634,5.2024,5.1688,5.1431,5.0928,5.0736,5.0712,5.0712,5.0712,5.0712,5.0712,5.0712,5.0712,5.0712,5.0712,5.0712,5.0712,5.0712,5.0712,5.0712,5.0712,5.0673,5.0633,5.0613,5.0613,5.0613,5.0613,5.0603,5.0553,5.0593,5.0603,5.0553,5.0562,5.0582,5.0613,5.0593,5.0582,5.0613,5.0613,5.0613,5.0613,5.0613,5.0623,5.0653,5.0633,5.0787,5.1202,5.2471,5.3355,5.376,5.5081,5.5855,5.6051,5.6142,5.6324,5.6606,5.6606,5.6606,0.0,0.0,3.7273,4.2144,4.4017,4.5105,0.0,0.0,0.0,0.0,0.0,0.0,0.0,0.0,0.0,0.0,0.0,0.0,0.0,0.0,0.0,0.0,0.0,0.0,0.0,0.0,0.0,0.0,5.0468,5.1007,5.2137,5.2266,5.2549,5.3004,5.3045,5.3056,5.3056,5.3056,5.3078,5.3129,5.3182,5.3203,5.3203,5.3203,5.3433,5.3837,5.3837,5.3472,5.2799,5.1952,5.1991,5.251,5.1856,5.1839,5.2123,5.1522,5.1312,5.1193,5.0546,5.0493,5.0712,5.0712,5.0712,5.0712,5.0712,5.0712,5.0712,5.0712,5.0712,5.0712,5.0712,5.0712,5.0712,5.0712,5.0712,5.0712,5.0712,5.0712,5.0712,5.0712,5.0712,5.0673,5.0633,5.0682,5.0673,5.0633,5.0623,5.0643,5.0683,5.0653,5.0643,5.0683,5.0712,5.0712,5.0712,5.0712,5.0712,5.0712,5.0712,5.0789,5.0991,5.2414,5.3299,5.353,5.4953,5.5817,5.6044,5.6078,5.6246,5.6528,5.658,5.6606,0.0,2.9872,0.0,3.7024,4.052,0.0,0.0,0.0,0.0,0.0,0.0,0.0,0.0,0.0,0.0,0.0,0.0,0.0,0.0,0.0,0.0,0.0,0.0,0.0,0.0,0.0,0.0,0.0,4.9863,5.0418,5.1319,5.1656,5.2214,5.307,5.3161,5.3192,5.3192,5.3192,5.3192,5.3192,5.3203,5.3203,5.3203,5.3203,5.2779,5.2038,5.2038,5.2,5.1904,5.1106,5.0789,5.0827,5.0789,5.0779,5.0808,5.0769,5.075,5.075,5.0692,5.0683,5.0712,5.0712,5.0712,5.0712,5.0712,5.0712,5.0712,5.0712,5.0712,5.0712,5.0712,5.0712,5.0712,5.0712,5.0712,5.0712,5.0712,5.0712,5.0712,5.0712,5.0712,5.0712,5.0702,5.0702,5.0712,5.0702,5.0683,5.0702,5.0712,5.0702,5.0702,5.0712,5.0712,5.0712,5.0712,5.0712,5.0712,5.0712,5.0712,5.1029,5.1808,5.2722,5.3587,5.4414,5.5261,5.5778,5.5904,5.6049,5.6169,5.632,5.6503,5.6606,0.0,0.0,0.0,3.4407,3.7445,3.9833,0.0,0.0,0.0,0.0,0.0,0.0,0.0,0.0,0.0,0.0,0.0,0.0,0.0,0.0,0.0,0.0,0.0,0.0,0.0,0.0,0.0,0.0,0.0,5.0585,5.0892,5.1025,5.123,5.1557,5.1577,5.1606,5.1606,5.1606,5.1606,5.1606,5.1606,5.1606,5.1606,5.1606,5.1433,5.1125,5.1125,5.1125,5.1106,5.0827,5.0712,5.0712,5.0712,5.0712,5.0712,5.0712,5.0712,5.0712,5.0712,5.0712,5.0712,5.0712,5.0712,5.0712,5.0712,5.0712,5.0712,5.0712,5.0712,5.0712,5.0712,5.0712,5.0712,5.0712,5.0712,5.0712,5.0712,5.0712,5.0712,5.0712,5.0712,5.0712,5.0712,5.0712,5.0712,5.0712,5.0712,5.0712,5.0712,5.0712,5.0712,5.0712,5.0712,5.0712,5.0712,5.0712,5.0712,5.0712,5.0712,5.0827,5.1125,5.2452,5.3356,5.3664,5.5011,5.5778,5.5887,5.6022,5.6164,5.6292,5.6503,5.6606,2.5371,0.0,0.0,0.0,0.0,3.6356,0.0,0.0,0.0,0.0,0.0,0.0,0.0,0.0,0.0,0.0,0.0,0.0,0.0,0.0,0.0,0.0,0.0,0.0,0.0,0.0,0.0,0.0,0.0,0.0,5.0712,5.0712,5.0712,5.0712,5.0712,5.0712,5.0712,5.0712,5.0712,5.0712,5.0712,5.0712,5.0712,5.0712,5.0712,5.0712,5.0712,5.0712,5.0712,5.0712,5.0712,5.0712,5.0712,5.0712,5.0712,5.0712,5.0712,5.0712,5.0712,5.0712,5.0712,5.0712,5.0712,5.0712,5.0712,5.0712,5.0712,5.0712,5.0712,5.0712,5.0712,5.0712,5.0712,5.0712,5.0712,5.0712,5.0712,5.0712,5.0712,5.0712,5.0712,5.0712,5.0712,5.0712,5.0712,5.0712,5.0712,5.0712,5.0712,5.0712,5.0712,5.0712,5.0712,5.0712,5.0712,5.0712,5.0712,5.0712,5.0712,5.0827,5.1087,5.2452,5.3337,5.3626,5.4991,5.5738,5.5836,5.602,5.6141,5.6242,5.6494,5.6606,0.0,0.0,0.0,0.0,0.0,0.0,0.0,0.0,0.0,0.0,0.0,0.0,0.0,0.0,0.0,0.0,0.0,0.0,0.0,0.0,0.0,0.0,0.0,0.0,0.0,0.0,0.0,0.0,5.0712,5.0712,5.0712,5.0712,5.0712,5.0712,5.0712,5.0712,5.0712,5.0712,5.0712,5.0712,5.0712,5.0712,5.0712,5.0712,5.0712,5.0712,5.0712,5.0712,5.0712,5.0712,5.0712,5.0712,5.0712,5.0712,5.0712,5.0712,5.0712,5.0712,5.0712,5.0712,5.0712,5.0712,5.0712,5.0712,5.0712,5.0712,5.0712,5.0712,5.0712,5.0712,5.0712,5.0712,5.0712,5.0712,5.0712,5.0712,5.0712,5.0712,5.0712,5.0712,5.0712,5.0712,5.0712,5.0712,5.0712,5.0712,5.0712,5.0712,5.0712,5.0712,5.0712,5.0712,5.0712,5.0712,5.0712,5.0712,5.0712,5.0712,5.0712,5.1048,5.1865,5.2741,5.3606,5.4472,5.528,5.5703,5.5703,5.5967,5.6097,5.6104,5.6432,5.6606,2.3709,0.0,0.0,0.0,0.0,0.0,0.0,0.0,0.0,0.0,0.0,0.0,0.0,0.0,0.0,0.0,0.0,0.0,0.0,0.0,0.0,0.0,0.0,0.0,0.0,0.0,0.0,0.0,5.0712,5.0712,5.0712,5.0712,5.0712,5.0712,5.0712,5.0712,5.0712,5.0712,5.0712,5.0712,5.0712,5.0712,5.0712,5.0712,5.0712,5.0712,5.0712,5.0712,5.0712,5.0712,5.0712,5.0712,5.0712,5.0712,5.0712,5.0712,5.0712,5.0712,5.0712,5.0712,5.0712,5.0712,5.0712,5.0712,5.0712,5.0712,5.0712,5.0712,5.0712,5.0712,5.0712,5.0712,5.0712,5.0712,5.0712,5.0712,5.0712,5.0712,5.0712,5.0712,5.0712,5.0712,5.0712,5.0712,5.0712,5.0712,5.0712,5.0712,5.0712,5.0712,5.0712,5.0712,5.0712,5.0712,5.0712,5.0712,5.0712,5.0712,5.0712,5.1048,5.1865,5.2741,5.3606,5.4472,5.528,5.5703,5.5703,5.5967,5.6097,5.6104,5.6432,5.6606,0.0,0.0,0.0,0.0,0.0,0.0,0.0,3.2727,0.0,0.0,0.0,0.0,0.0,0.0,0.0,0.0,0.0,0.0,0.0,0.0,0.0,0.0,0.0,0.0,0.0,5.0211,5.0336,5.0683,5.0702,5.0712,5.0712,5.0712,5.0712,5.0712,5.0712,5.0712,5.0712,5.0712,5.0712,5.0712,5.0712,5.0712,5.0712,5.0712,5.0712,5.0712,5.0712,5.0712,5.0712,5.0712,5.0712,5.0712,5.0712,5.0712,5.0712,5.0712,5.0712,5.0712,5.0712,5.0712,5.0712,5.0712,5.0712,5.0712,5.0712,5.0712,5.0712,5.0712,5.0712,5.0712,5.0712,5.0712,5.0712,5.0712,5.0712,5.0712,5.0712,5.0712,5.0712,5.0712,5.0712,5.0712,5.0712,5.0712,5.0712,5.0712,5.0712,5.0712,5.0712,5.0712,5.0712,5.0712,5.0712,5.0712,5.0712,5.0712,5.0712,5.0712,5.0712,5.1048,5.1865,5.2741,5.3606,5.4472,5.528,5.5758,5.5872,5.6015,5.6172,5.6305,5.6517,5.6606,2.6351,2.7631,0.0,0.0,0.0,0.0,3.3564,3.2927,3.2519,0.0,0.0,0.0,0.0,0.0,0.0,0.0,0.0,0.0,0.0,0.0,0.0,0.0,0.0,0.0,4.9299,4.936,4.9661,5.0383,5.0519,5.0606,5.0702,5.0702,5.0693,5.0693,5.0693,5.0712,5.0712,5.0712,5.0712,5.0712,5.0712,5.0712,5.0712,5.0712,5.0712,5.0712,5.0712,5.0712,5.0712,5.0712,5.0712,5.0712,5.0712,5.0712,5.0712,5.0712,5.0712,5.0712,5.0712,5.0712,5.0712,5.0712,5.0712,5.0712,5.0712,5.0712,5.0712,5.0712,5.0712,5.0712,5.0712,5.0712,5.0712,5.0712,5.0712,5.0712,5.0712,5.0712,5.0712,5.0712,5.0712,5.0712,5.0712,5.0712,5.0712,5.0712,5.0712,5.0712,5.0712,5.0712,5.0712,5.0712,5.0712,5.0712,5.0712,5.0712,5.0712,5.0712,5.0712,5.1048,5.1865,5.2635,5.351,5.4472,5.5312,5.5844,5.6097,5.611,5.6291,5.6606,5.6606,5.6606,3.072,3.1152,3.1819,3.0797,0.0,0.0,2.9906,3.0008,3.0879,0.0,0.0,0.0,0.0,0.0,0.0,0.0,0.0,0.0,0.0,0.0,0.0,0.0,0.0,0.0,4.8527,4.8538,4.8596,4.8769,4.9378,5.0053,5.0736,5.073,5.0702,5.0702,5.0712,5.0712,5.0712,5.0712,5.0712,5.0712,5.0712,5.0712,5.0712,5.0712,5.0712,5.0712,5.0712,5.0712,5.0712,5.0712,5.0712,5.0712,5.0712,5.0712,5.0712,5.0712,5.0712,5.0712,5.0712,5.0712,5.0712,5.0712,5.0712,5.0712,5.0712,5.0712,5.0712,5.0712,5.0712,5.0712,5.0712,5.0712,5.0712,5.0712,5.0712,5.0712,5.0712,5.0712,5.0712,5.0712,5.0712,5.0712,5.0712,5.0712,5.0712,5.0712,5.0712,5.0712,5.0712,5.0712,5.0712,5.0712,5.0712,5.0712,5.0712,5.0712,5.0712,5.0712,5.0712,5.1048,5.1865,5.2058,5.2895,5.4472,5.5393,5.5946,5.6097,5.6222,5.6375,5.6606,5.6606,5.6606,3.2175,3.2769,3.3885,3.3042,0.0,0.0,0.0,3.0402,3.0292,3.1992,0.0,0.0,0.0,0.0,0.0,0.0,0.0,0.0,0.0,0.0,0.0,0.0,0.0,0.0,4.7666,4.7708,4.7877,4.8276,4.8662,4.926,5.0117,5.013,5.0294,5.0738,5.0758,5.073,5.0702,5.0702,5.0693,5.0712,5.0693,5.0702,5.0702,5.073,5.0749,5.0749,5.0749,5.0749,5.0749,5.0749,5.0749,5.074,5.0712,5.0712,5.0712,5.0712,5.0712,5.0712,5.0712,5.0712,5.0712,5.0712,5.0712,5.0712,5.0712,5.0712,5.0712,5.0712,5.0712,5.0712,5.0712,5.0712,5.0712,5.0712,5.0712,5.0712,5.0712,5.0712,5.0712,5.0712,5.0712,5.0712,5.0712,5.0712,5.0712,5.0712,5.0712,5.0712,5.0712,5.0712,5.0712,5.0712,5.0712,5.0712,5.0712,5.0712,5.0712,5.0712,5.0712,5.0875,5.1279,5.1692,5.2752,5.4564,5.5125,5.5656,5.6191,5.6371,5.65,5.6606,5.6606,5.6606,0.0,0.0,0.0,0.0,0.0,3.4167,0.0,0.0,0.0,3.2856,0.0,0.0,0.0,0.0,0.0,0.0,0.0,0.0,0.0,0.0,0.0,0.0,0.0,0.0,4.6283,4.6081,4.6488,4.7962,4.7452,4.7722,4.9208,4.9431,4.9837,5.054,5.0724,5.0775,5.072,5.071,5.072,5.0721,5.072,5.071,5.072,5.0784,5.0801,5.0801,5.0801,5.0801,5.0801,5.0801,5.0801,5.0793,5.073,5.0721,5.0721,5.0721,5.0721,5.0721,5.0721,5.0721,5.0721,5.0702,5.0693,5.0712,5.0712,5.0712,5.0712,5.0712,5.0712,5.0712,5.0712,5.0712,5.0712,5.0712,5.0712,5.0712,5.0712,5.0712,5.0712,5.0712,5.0712,5.0712,5.0712,5.0712,5.0712,5.0712,5.0712,5.0712,5.0712,5.0712,5.0712,5.0712,5.0712,5.0712,5.0712,5.0712,5.0712,5.0712,5.0712,5.0712,5.0712,5.1471,5.2704,5.4415,5.4749,5.5353,5.6292,5.6506,5.6608,5.6608,5.6608,5.6591,0.0,0.0,0.0,0.0,3.7536,0.0,0.0,0.0,3.2047,3.0165,0.0,0.0,0.0,0.0,0.0,0.0,0.0,0.0,0.0,0.0,0.0,0.0,0.0,0.0,0.0,4.2396,4.3105,4.6946,4.4432,4.4413,4.8319,4.9196,4.9636,4.9732,5.0433,5.0793,5.0793,5.0793,5.0793,5.0784,5.0793,5.0793,5.0793,5.0801,5.0801,5.0801,5.0801,5.0801,5.0801,5.0801,5.0801,5.0801,5.0784,5.0784,5.0784,5.0784,5.0784,5.0784,5.0784,5.0784,5.0775,5.073,5.0702,5.0712,5.0712,5.0712,5.0712,5.0712,5.0712,5.0712,5.0712,5.0712,5.0712,5.0712,5.0712,5.0712,5.0712,5.0712,5.0712,5.0712,5.0712,5.0712,5.0712,5.0712,5.0712,5.0712,5.0712,5.0712,5.0712,5.0712,5.0712,5.0712,5.0712,5.0712,5.0712,5.0712,5.0712,5.0712,5.0712,5.0712,5.0712,5.1471,5.2415,5.3525,5.4445,5.5353,5.6292,5.6494,5.66,5.66,5.66,5.6603,0.0,0.0,0.0,0.0,0.0,0.0,3.3106,0.0,3.1532,0.0,0.0,0.0,0.0,0.0,0.0,0.0,0.0,0.0,0.0,0.0,0.0,0.0,0.0,0.0,0.0,0.0,0.0,0.0,4.2667,4.2937,4.6689,4.768,4.862,4.9626,4.9988,5.0397,5.0855,5.0855,5.0846,5.0801,5.0846,5.0855,5.0855,5.0861,5.085,5.085,5.085,5.085,5.085,5.085,5.085,5.085,5.085,5.0825,5.0801,5.0801,5.0801,5.0801,5.0801,5.0801,5.0793,5.0775,5.0757,5.0758,5.0758,5.074,5.0721,5.0749,5.074,5.0693,5.0702,5.0712,5.0712,5.0712,5.0712,5.0712,5.0712,5.0712,5.0712,5.0712,5.0712,5.0712,5.0712,5.0712,5.0712,5.0712,5.0712,5.0712,5.0712,5.0712,5.0712,5.0712,5.0712,5.0712,5.0712,5.0712,5.0712,5.0712,5.0712,5.0712,5.0712,5.101,5.1708,5.273,5.3669,5.467,5.5728,5.6305,5.6591,5.6594,5.6591,5.661,3.9391,0.0,0.0,0.0,0.0,0.0,0.0,0.0,0.0,0.0,0.0,0.0,0.0,0.0,0.0,0.0,0.0,0.0,0.0,0.0,0.0,0.0,0.0,0.0,0.0,0.0,0.0,0.0,0.0,4.0932,4.5239,4.6283,4.7424,4.8933,4.9455,4.9981,5.0568,5.0781,5.088,5.0836,5.088,5.0897,5.0897,5.0909,5.0898,5.0898,5.0898,5.0898,5.0898,5.0898,5.0898,5.0898,5.0898,5.0866,5.0836,5.0836,5.0836,5.0836,5.0836,5.0827,5.0838,5.0838,5.081,5.0801,5.0801,5.0775,5.0748,5.0793,5.0767,5.0712,5.0692,5.0692,5.0702,5.0693,5.0712,5.0712,5.0712,5.0712,5.0712,5.0712,5.0712,5.0712,5.0712,5.0712,5.0712,5.0712,5.0712,5.0712,5.0712,5.0712,5.0712,5.0712,5.0712,5.0712,5.0712,5.0712,5.0712,5.0712,5.0712,5.0693,5.0712,5.074,5.1249,5.2308,5.319,5.4192,5.5295,5.6162,5.6597,5.6599,5.6597,5.6596,0.0,0.0,0.0,3.6825,0.0,0.0,0.0,0.0,3.397,0.0,0.0,0.0,0.0,0.0,0.0,0.0,0.0,0.0,0.0,0.0,0.0,0.0,0.0,0.0,0.0,0.0,0.0,0.0,3.6986,0.0,4.4284,4.5394,4.6252,4.7154,4.8817,4.9707,4.9738,5.0511,5.0898,5.0898,5.0898,5.0898,5.0898,5.0898,5.0898,5.0898,5.0898,5.0898,5.0898,5.0898,5.0898,5.0898,5.0898,5.0898,5.0898,5.0898,5.0898,5.0898,5.0898,5.0893,5.0899,5.0899,5.0855,5.0801,5.0801,5.0801,5.0801,5.0801,5.0801,5.0784,5.071,5.0701,5.0702,5.0702,5.0712,5.0712,5.0712,5.0712,5.0712,5.0712,5.0712,5.0712,5.0712,5.0712,5.0712,5.0712,5.0712,5.0712,5.0712,5.0712,5.0712,5.0712,5.0712,5.0712,5.0712,5.0712,5.0712,5.0712,5.0712,5.0712,5.0692,5.0816,5.1366,5.2375,5.3319,5.4287,5.5295,5.6166,5.6599,5.6599,5.6599,5.66,0.0,0.0,4.3011,3.9064,0.0,0.0,0.0,0.0,0.0,0.0,0.0,0.0,0.0,0.0,0.0,0.0,0.0,0.0,0.0,0.0,0.0,0.0,0.0,0.0,0.0,0.0,0.0,0.0,3.6889,0.0,0.0,4.5045,4.6194,4.7076,4.8237,4.9126,4.9687,5.0492,5.0898,5.0898,5.0898,5.0898,5.0898,5.0898,5.0898,5.0898,5.0898,5.0898,5.0898,5.0898,5.0898,5.0898,5.0898,5.0898,5.0898,5.0898,5.0898,5.0898,5.0898,5.089,5.0901,5.0901,5.0874,5.0858,5.0858,5.0861,5.0863,5.0869,5.0825,5.0801,5.0829,5.0793,5.0738,5.0711,5.0692,5.0702,5.0693,5.0712,5.0712,5.0712,5.0712,5.0712,5.0712,5.0712,5.0712,5.0712,5.0712,5.0712,5.0712,5.0712,5.0712,5.0712,5.0712,5.0712,5.0712,5.0712,5.0702,5.0692,5.0692,5.072,5.0747,5.0844,5.1108,5.1526,5.3033,5.4012,5.4448,5.5897,5.6601,5.6601,5.6601,5.6601,4.3659,4.3983,0.0,4.0622,3.947,0.0,3.4784,0.0,0.0,0.0,0.0,0.0,0.0,0.0,0.0,0.0,0.0,0.0,0.0,0.0,0.0,0.0,0.0,0.0,0.0,0.0,3.1751,3.5775,3.5739,0.0,0.0,0.0,4.5432,4.6593,4.7482,4.8353,4.9223,5.0055,5.0608,5.0898,5.0898,5.0898,5.0898,5.0898,5.0898,5.0898,5.0898,5.0898,5.0898,5.0898,5.0898,5.0898,5.0898,5.0898,5.0898,5.0898,5.0898,5.0898,5.0898,5.0898,5.0898,5.0898,5.0898,5.0898,5.0898,5.0901,5.0905,5.089,5.0866,5.0844,5.0899,5.0863,5.0829,5.0738,5.0748,5.0739,5.0702,5.0693,5.0712,5.0693,5.0712,5.0712,5.0712,5.0712,5.0712,5.0712,5.0712,5.0712,5.0712,5.0712,5.0712,5.0712,5.0712,5.0693,5.0693,5.0712,5.074,5.0748,5.0771,5.0803,5.0879,5.0952,5.1055,5.1176,5.265,5.3602,5.4002,5.5449,5.6308,5.6601,5.6601,5.6601]}]]